<?xml version="1.0" encoding="UTF-8" standalone="no" ?>
<gpx xmlns="http://www.topografix.com/GPX/1/1" xmlns:xsi="http://www.w3.org/2001/XMLSchema-instance" xsi:schemaLocation="http://www.topografix.com/GPX/1/1 http://www.topografix.com/GPX/1/1/gpx.xsd" version="1.1" creator="VisuGPX - https://www.visugpx.com">
  <metadata>
    <name>Trail du Confluent 2013</name>
    <desc><![CDATA[Circuit Randonnée du Trail du Confluent 2013]]></desc>
  </metadata>
  <trk>
    <name><![CDATA[20130615-194116(1) (simplifiée)]]></name>
    <desc><![CDATA[Color:004000ff]]></desc>
    <trkseg>
      <trkpt lat="43.50509" lon="1.3949">
        <ele>136.860001</ele>
        <time>2013-06-15T14:07:41Z</time>
      </trkpt>
      <trkpt lat="43.50509" lon="1.39501">
        <ele>134.649994</ele>
        <time>2013-06-15T14:07:53Z</time>
      </trkpt>
      <trkpt lat="43.50512" lon="1.39514">
        <ele>133.099991</ele>
        <time>2013-06-15T14:07:59Z</time>
      </trkpt>
      <trkpt lat="43.50512" lon="1.39519">
        <ele>132.220001</ele>
        <time>2013-06-15T14:08:01Z</time>
      </trkpt>
      <trkpt lat="43.50514" lon="1.39528">
        <ele>135.559998</ele>
        <time>2013-06-15T14:08:05Z</time>
      </trkpt>
      <trkpt lat="43.50515" lon="1.3954">
        <ele>138.059998</ele>
        <time>2013-06-15T14:08:09Z</time>
      </trkpt>
      <trkpt lat="43.50514" lon="1.39545">
        <ele>139.459991</ele>
        <time>2013-06-15T14:08:11Z</time>
      </trkpt>
      <trkpt lat="43.50511" lon="1.39554">
        <ele>141.259995</ele>
        <time>2013-06-15T14:08:15Z</time>
      </trkpt>
      <trkpt lat="43.5051" lon="1.39558">
        <ele>142.119995</ele>
        <time>2013-06-15T14:08:17Z</time>
      </trkpt>
      <trkpt lat="43.50505" lon="1.39562">
        <ele>142.410004</ele>
        <time>2013-06-15T14:08:21Z</time>
      </trkpt>
      <trkpt lat="43.50499" lon="1.39565">
        <ele>141.929993</ele>
        <time>2013-06-15T14:08:25Z</time>
      </trkpt>
      <trkpt lat="43.50492" lon="1.39567">
        <ele>142.139999</ele>
        <time>2013-06-15T14:08:29Z</time>
      </trkpt>
      <trkpt lat="43.50478" lon="1.39576">
        <ele>143.5</ele>
        <time>2013-06-15T14:08:39Z</time>
      </trkpt>
      <trkpt lat="43.50471" lon="1.39583">
        <ele>143.910004</ele>
        <time>2013-06-15T14:08:44Z</time>
      </trkpt>
      <trkpt lat="43.5047" lon="1.39583">
        <ele>141.330002</ele>
        <time>2013-06-15T14:08:47Z</time>
      </trkpt>
      <trkpt lat="43.50451" lon="1.39592">
        <ele>145.360001</ele>
        <time>2013-06-15T14:08:59Z</time>
      </trkpt>
      <trkpt lat="43.50448" lon="1.39595">
        <ele>145.099991</ele>
        <time>2013-06-15T14:09:01Z</time>
      </trkpt>
      <trkpt lat="43.50441" lon="1.39598">
        <ele>143.479996</ele>
        <time>2013-06-15T14:09:07Z</time>
      </trkpt>
      <trkpt lat="43.50434" lon="1.39603">
        <ele>140.949997</ele>
        <time>2013-06-15T14:09:13Z</time>
      </trkpt>
      <trkpt lat="43.50427" lon="1.39611">
        <ele>142.789993</ele>
        <time>2013-06-15T14:09:19Z</time>
      </trkpt>
      <trkpt lat="43.50423" lon="1.39614">
        <ele>141.039993</ele>
        <time>2013-06-15T14:09:23Z</time>
      </trkpt>
      <trkpt lat="43.50422" lon="1.39617">
        <ele>142.12999</ele>
        <time>2013-06-15T14:09:25Z</time>
      </trkpt>
      <trkpt lat="43.50416" lon="1.39623">
        <ele>143.509995</ele>
        <time>2013-06-15T14:09:29Z</time>
      </trkpt>
      <trkpt lat="43.50412" lon="1.39625">
        <ele>143.959991</ele>
        <time>2013-06-15T14:09:31Z</time>
      </trkpt>
      <trkpt lat="43.50404" lon="1.39633">
        <ele>142.009995</ele>
        <time>2013-06-15T14:09:37Z</time>
      </trkpt>
      <trkpt lat="43.50403" lon="1.39636">
        <ele>144.839996</ele>
        <time>2013-06-15T14:09:39Z</time>
      </trkpt>
      <trkpt lat="43.50399" lon="1.39639">
        <ele>142.839996</ele>
        <time>2013-06-15T14:09:41Z</time>
      </trkpt>
      <trkpt lat="43.50394" lon="1.39646">
        <ele>142.610001</ele>
        <time>2013-06-15T14:09:45Z</time>
      </trkpt>
      <trkpt lat="43.5039" lon="1.39649">
        <ele>140.619995</ele>
        <time>2013-06-15T14:09:49Z</time>
      </trkpt>
      <trkpt lat="43.50389" lon="1.39653">
        <ele>141.389999</ele>
        <time>2013-06-15T14:09:51Z</time>
      </trkpt>
      <trkpt lat="43.50384" lon="1.39658">
        <ele>142.050003</ele>
        <time>2013-06-15T14:09:55Z</time>
      </trkpt>
      <trkpt lat="43.50384" lon="1.39661">
        <ele>140.619995</ele>
        <time>2013-06-15T14:09:57Z</time>
      </trkpt>
      <trkpt lat="43.50384" lon="1.39664">
        <ele>139.819992</ele>
        <time>2013-06-15T14:09:59Z</time>
      </trkpt>
      <trkpt lat="43.50381" lon="1.39669">
        <ele>140.690002</ele>
        <time>2013-06-15T14:10:03Z</time>
      </trkpt>
      <trkpt lat="43.50375" lon="1.39675">
        <ele>139.589996</ele>
        <time>2013-06-15T14:10:07Z</time>
      </trkpt>
      <trkpt lat="43.50366" lon="1.39688">
        <ele>139.559998</ele>
        <time>2013-06-15T14:10:15Z</time>
      </trkpt>
      <trkpt lat="43.50365" lon="1.39691">
        <ele>139.369995</ele>
        <time>2013-06-15T14:10:17Z</time>
      </trkpt>
      <trkpt lat="43.50361" lon="1.39697">
        <ele>138.940002</ele>
        <time>2013-06-15T14:10:21Z</time>
      </trkpt>
      <trkpt lat="43.50351" lon="1.3971">
        <ele>138.779999</ele>
        <time>2013-06-15T14:10:27Z</time>
      </trkpt>
      <trkpt lat="43.50347" lon="1.39716">
        <ele>136.039993</ele>
        <time>2013-06-15T14:10:31Z</time>
      </trkpt>
      <trkpt lat="43.50344" lon="1.39723">
        <ele>135.48999</ele>
        <time>2013-06-15T14:10:35Z</time>
      </trkpt>
      <trkpt lat="43.5034" lon="1.3973">
        <ele>138.679993</ele>
        <time>2013-06-15T14:10:39Z</time>
      </trkpt>
      <trkpt lat="43.50338" lon="1.39731">
        <ele>136.720001</ele>
        <time>2013-06-15T14:10:41Z</time>
      </trkpt>
      <trkpt lat="43.50334" lon="1.39737">
        <ele>134.949997</ele>
        <time>2013-06-15T14:10:45Z</time>
      </trkpt>
      <trkpt lat="43.5033" lon="1.39738">
        <ele>142.169998</ele>
        <time>2013-06-15T14:10:47Z</time>
      </trkpt>
      <trkpt lat="43.50324" lon="1.39741">
        <ele>136.709991</ele>
        <time>2013-06-15T14:10:49Z</time>
      </trkpt>
      <trkpt lat="43.5032" lon="1.39743">
        <ele>134.539993</ele>
        <time>2013-06-15T14:10:51Z</time>
      </trkpt>
      <trkpt lat="43.50311" lon="1.39754">
        <ele>142.12999</ele>
        <time>2013-06-15T14:10:57Z</time>
      </trkpt>
      <trkpt lat="43.50304" lon="1.39763">
        <ele>141.62999</ele>
        <time>2013-06-15T14:11:03Z</time>
      </trkpt>
      <trkpt lat="43.50303" lon="1.39765">
        <ele>141.37999</ele>
        <time>2013-06-15T14:11:05Z</time>
      </trkpt>
      <trkpt lat="43.50302" lon="1.39769">
        <ele>140.720001</ele>
        <time>2013-06-15T14:11:07Z</time>
      </trkpt>
      <trkpt lat="43.503" lon="1.39773">
        <ele>140.319992</ele>
        <time>2013-06-15T14:11:11Z</time>
      </trkpt>
      <trkpt lat="43.50296" lon="1.39777">
        <ele>140.089996</ele>
        <time>2013-06-15T14:11:15Z</time>
      </trkpt>
      <trkpt lat="43.50292" lon="1.39783">
        <ele>141.209991</ele>
        <time>2013-06-15T14:11:19Z</time>
      </trkpt>
      <trkpt lat="43.5028" lon="1.39804">
        <ele>144.970001</ele>
        <time>2013-06-15T14:11:31Z</time>
      </trkpt>
      <trkpt lat="43.50273" lon="1.39813">
        <ele>146.910004</ele>
        <time>2013-06-15T14:11:37Z</time>
      </trkpt>
      <trkpt lat="43.50266" lon="1.39822">
        <ele>148.169998</ele>
        <time>2013-06-15T14:11:43Z</time>
      </trkpt>
      <trkpt lat="43.50256" lon="1.39833">
        <ele>147.050003</ele>
        <time>2013-06-15T14:11:51Z</time>
      </trkpt>
      <trkpt lat="43.50246" lon="1.39845">
        <ele>146.119995</ele>
        <time>2013-06-15T14:11:59Z</time>
      </trkpt>
      <trkpt lat="43.50239" lon="1.39859">
        <ele>147.169998</ele>
        <time>2013-06-15T14:12:05Z</time>
      </trkpt>
      <trkpt lat="43.50238" lon="1.39862">
        <ele>146.959991</ele>
        <time>2013-06-15T14:12:07Z</time>
      </trkpt>
      <trkpt lat="43.50234" lon="1.3987">
        <ele>152.169998</ele>
        <time>2013-06-15T14:12:09Z</time>
      </trkpt>
      <trkpt lat="43.5023" lon="1.39873">
        <ele>150.440002</ele>
        <time>2013-06-15T14:12:11Z</time>
      </trkpt>
      <trkpt lat="43.50226" lon="1.39878">
        <ele>145.419998</ele>
        <time>2013-06-15T14:12:15Z</time>
      </trkpt>
      <trkpt lat="43.50224" lon="1.39883">
        <ele>147.349991</ele>
        <time>2013-06-15T14:12:17Z</time>
      </trkpt>
      <trkpt lat="43.50219" lon="1.3989">
        <ele>147.770004</ele>
        <time>2013-06-15T14:12:21Z</time>
      </trkpt>
      <trkpt lat="43.50217" lon="1.39897">
        <ele>148.179993</ele>
        <time>2013-06-15T14:12:25Z</time>
      </trkpt>
      <trkpt lat="43.50214" lon="1.399">
        <ele>148.270004</ele>
        <time>2013-06-15T14:12:27Z</time>
      </trkpt>
      <trkpt lat="43.50209" lon="1.39913">
        <ele>148.300003</ele>
        <time>2013-06-15T14:12:33Z</time>
      </trkpt>
      <trkpt lat="43.50188" lon="1.39946">
        <ele>150.410004</ele>
        <time>2013-06-15T14:12:51Z</time>
      </trkpt>
      <trkpt lat="43.50186" lon="1.3995">
        <ele>149.399994</ele>
        <time>2013-06-15T14:12:53Z</time>
      </trkpt>
      <trkpt lat="43.50184" lon="1.39954">
        <ele>149.869995</ele>
        <time>2013-06-15T14:12:55Z</time>
      </trkpt>
      <trkpt lat="43.50181" lon="1.39956">
        <ele>147.660004</ele>
        <time>2013-06-15T14:12:56Z</time>
      </trkpt>
      <trkpt lat="43.50175" lon="1.39967">
        <ele>149.419998</ele>
        <time>2013-06-15T14:13:06Z</time>
      </trkpt>
      <trkpt lat="43.50174" lon="1.39971">
        <ele>149.759995</ele>
        <time>2013-06-15T14:13:08Z</time>
      </trkpt>
      <trkpt lat="43.50172" lon="1.39974">
        <ele>150.5</ele>
        <time>2013-06-15T14:13:10Z</time>
      </trkpt>
      <trkpt lat="43.50171" lon="1.39978">
        <ele>150.459991</ele>
        <time>2013-06-15T14:13:12Z</time>
      </trkpt>
      <trkpt lat="43.50171" lon="1.39982">
        <ele>149.959991</ele>
        <time>2013-06-15T14:13:14Z</time>
      </trkpt>
      <trkpt lat="43.50168" lon="1.3999">
        <ele>150.789993</ele>
        <time>2013-06-15T14:13:18Z</time>
      </trkpt>
      <trkpt lat="43.50164" lon="1.39996">
        <ele>151.849991</ele>
        <time>2013-06-15T14:13:22Z</time>
      </trkpt>
      <trkpt lat="43.50163" lon="1.40002">
        <ele>153.389999</ele>
        <time>2013-06-15T14:13:24Z</time>
      </trkpt>
      <trkpt lat="43.50161" lon="1.40005">
        <ele>153.899994</ele>
        <time>2013-06-15T14:13:26Z</time>
      </trkpt>
      <trkpt lat="43.50158" lon="1.40013">
        <ele>155</ele>
        <time>2013-06-15T14:13:30Z</time>
      </trkpt>
      <trkpt lat="43.50156" lon="1.40017">
        <ele>155.690002</ele>
        <time>2013-06-15T14:13:32Z</time>
      </trkpt>
      <trkpt lat="43.50155" lon="1.40021">
        <ele>156.199997</ele>
        <time>2013-06-15T14:13:34Z</time>
      </trkpt>
      <trkpt lat="43.50151" lon="1.40028">
        <ele>155.949997</ele>
        <time>2013-06-15T14:13:38Z</time>
      </trkpt>
      <trkpt lat="43.50149" lon="1.40034">
        <ele>155.470001</ele>
        <time>2013-06-15T14:13:42Z</time>
      </trkpt>
      <trkpt lat="43.50147" lon="1.40036">
        <ele>153.709991</ele>
        <time>2013-06-15T14:13:44Z</time>
      </trkpt>
      <trkpt lat="43.50144" lon="1.40043">
        <ele>151.800003</ele>
        <time>2013-06-15T14:13:48Z</time>
      </trkpt>
      <trkpt lat="43.5014" lon="1.40054">
        <ele>152.059998</ele>
        <time>2013-06-15T14:13:54Z</time>
      </trkpt>
      <trkpt lat="43.50134" lon="1.40068">
        <ele>152.519989</ele>
        <time>2013-06-15T14:14:00Z</time>
      </trkpt>
      <trkpt lat="43.50131" lon="1.40076">
        <ele>149.839996</ele>
        <time>2013-06-15T14:14:04Z</time>
      </trkpt>
      <trkpt lat="43.50128" lon="1.4008">
        <ele>150.190002</ele>
        <time>2013-06-15T14:14:06Z</time>
      </trkpt>
      <trkpt lat="43.50126" lon="1.40086">
        <ele>146.569992</ele>
        <time>2013-06-15T14:14:10Z</time>
      </trkpt>
      <trkpt lat="43.50124" lon="1.40089">
        <ele>144.569992</ele>
        <time>2013-06-15T14:14:12Z</time>
      </trkpt>
      <trkpt lat="43.5012" lon="1.40102">
        <ele>141.830002</ele>
        <time>2013-06-15T14:14:20Z</time>
      </trkpt>
      <trkpt lat="43.50116" lon="1.40108">
        <ele>138.559998</ele>
        <time>2013-06-15T14:14:24Z</time>
      </trkpt>
      <trkpt lat="43.50113" lon="1.40115">
        <ele>137.020004</ele>
        <time>2013-06-15T14:14:28Z</time>
      </trkpt>
      <trkpt lat="43.5011" lon="1.40121">
        <ele>136.580002</ele>
        <time>2013-06-15T14:14:32Z</time>
      </trkpt>
      <trkpt lat="43.50108" lon="1.40125">
        <ele>135.87999</ele>
        <time>2013-06-15T14:14:34Z</time>
      </trkpt>
      <trkpt lat="43.50108" lon="1.40128">
        <ele>133.080002</ele>
        <time>2013-06-15T14:14:36Z</time>
      </trkpt>
      <trkpt lat="43.501" lon="1.4014">
        <ele>131.940002</ele>
        <time>2013-06-15T14:14:44Z</time>
      </trkpt>
      <trkpt lat="43.50097" lon="1.40148">
        <ele>133.599991</ele>
        <time>2013-06-15T14:14:48Z</time>
      </trkpt>
      <trkpt lat="43.50095" lon="1.40153">
        <ele>133.869995</ele>
        <time>2013-06-15T14:14:50Z</time>
      </trkpt>
      <trkpt lat="43.50095" lon="1.40158">
        <ele>133.459991</ele>
        <time>2013-06-15T14:14:52Z</time>
      </trkpt>
      <trkpt lat="43.50093" lon="1.40163">
        <ele>132.569992</ele>
        <time>2013-06-15T14:14:54Z</time>
      </trkpt>
      <trkpt lat="43.50091" lon="1.40175">
        <ele>134.779999</ele>
        <time>2013-06-15T14:14:58Z</time>
      </trkpt>
      <trkpt lat="43.50092" lon="1.40179">
        <ele>135.009995</ele>
        <time>2013-06-15T14:15:00Z</time>
      </trkpt>
      <trkpt lat="43.50093" lon="1.40183">
        <ele>135.190002</ele>
        <time>2013-06-15T14:15:02Z</time>
      </trkpt>
      <trkpt lat="43.50094" lon="1.40189">
        <ele>135.419998</ele>
        <time>2013-06-15T14:15:04Z</time>
      </trkpt>
      <trkpt lat="43.50095" lon="1.40194">
        <ele>136.860001</ele>
        <time>2013-06-15T14:15:06Z</time>
      </trkpt>
      <trkpt lat="43.50102" lon="1.40206">
        <ele>137.119995</ele>
        <time>2013-06-15T14:15:12Z</time>
      </trkpt>
      <trkpt lat="43.50104" lon="1.40215">
        <ele>135.800003</ele>
        <time>2013-06-15T14:15:16Z</time>
      </trkpt>
      <trkpt lat="43.50104" lon="1.40222">
        <ele>136.729996</ele>
        <time>2013-06-15T14:15:20Z</time>
      </trkpt>
      <trkpt lat="43.50105" lon="1.40228">
        <ele>137.800003</ele>
        <time>2013-06-15T14:15:22Z</time>
      </trkpt>
      <trkpt lat="43.50106" lon="1.40239">
        <ele>140.349991</ele>
        <time>2013-06-15T14:15:26Z</time>
      </trkpt>
      <trkpt lat="43.50107" lon="1.40255">
        <ele>144.520004</ele>
        <time>2013-06-15T14:15:30Z</time>
      </trkpt>
      <trkpt lat="43.50108" lon="1.4026">
        <ele>143.649994</ele>
        <time>2013-06-15T14:15:32Z</time>
      </trkpt>
      <trkpt lat="43.50108" lon="1.40266">
        <ele>142.37999</ele>
        <time>2013-06-15T14:15:34Z</time>
      </trkpt>
      <trkpt lat="43.50104" lon="1.40282">
        <ele>143.720001</ele>
        <time>2013-06-15T14:15:40Z</time>
      </trkpt>
      <trkpt lat="43.501" lon="1.40292">
        <ele>146.889999</ele>
        <time>2013-06-15T14:15:44Z</time>
      </trkpt>
      <trkpt lat="43.50098" lon="1.40298">
        <ele>146.610001</ele>
        <time>2013-06-15T14:15:46Z</time>
      </trkpt>
      <trkpt lat="43.50096" lon="1.40301">
        <ele>145.559998</ele>
        <time>2013-06-15T14:15:48Z</time>
      </trkpt>
      <trkpt lat="43.50089" lon="1.40318">
        <ele>143.259995</ele>
        <time>2013-06-15T14:15:56Z</time>
      </trkpt>
      <trkpt lat="43.50087" lon="1.40321">
        <ele>144.709991</ele>
        <time>2013-06-15T14:15:57Z</time>
      </trkpt>
      <trkpt lat="43.50087" lon="1.4032">
        <ele>144.149994</ele>
        <time>2013-06-15T14:16:00Z</time>
      </trkpt>
      <trkpt lat="43.50078" lon="1.40336">
        <ele>147.449997</ele>
        <time>2013-06-15T14:16:08Z</time>
      </trkpt>
      <trkpt lat="43.50073" lon="1.40351">
        <ele>147.5</ele>
        <time>2013-06-15T14:16:14Z</time>
      </trkpt>
      <trkpt lat="43.50069" lon="1.40357">
        <ele>147.110001</ele>
        <time>2013-06-15T14:16:18Z</time>
      </trkpt>
      <trkpt lat="43.50061" lon="1.40372">
        <ele>148.759995</ele>
        <time>2013-06-15T14:16:26Z</time>
      </trkpt>
      <trkpt lat="43.50059" lon="1.40377">
        <ele>148.550003</ele>
        <time>2013-06-15T14:16:28Z</time>
      </trkpt>
      <trkpt lat="43.50059" lon="1.40387">
        <ele>149.009995</ele>
        <time>2013-06-15T14:16:32Z</time>
      </trkpt>
      <trkpt lat="43.50058" lon="1.40391">
        <ele>148.599991</ele>
        <time>2013-06-15T14:16:34Z</time>
      </trkpt>
      <trkpt lat="43.50056" lon="1.40397">
        <ele>147.87999</ele>
        <time>2013-06-15T14:16:36Z</time>
      </trkpt>
      <trkpt lat="43.50055" lon="1.40403">
        <ele>147.839996</ele>
        <time>2013-06-15T14:16:38Z</time>
      </trkpt>
      <trkpt lat="43.5005" lon="1.40415">
        <ele>147.069992</ele>
        <time>2013-06-15T14:16:44Z</time>
      </trkpt>
      <trkpt lat="43.50046" lon="1.40424">
        <ele>147.399994</ele>
        <time>2013-06-15T14:16:48Z</time>
      </trkpt>
      <trkpt lat="43.50043" lon="1.40428">
        <ele>147.110001</ele>
        <time>2013-06-15T14:16:50Z</time>
      </trkpt>
      <trkpt lat="43.50041" lon="1.40433">
        <ele>146.23999</ele>
        <time>2013-06-15T14:16:52Z</time>
      </trkpt>
      <trkpt lat="43.50039" lon="1.40443">
        <ele>144.959991</ele>
        <time>2013-06-15T14:16:56Z</time>
      </trkpt>
      <trkpt lat="43.50039" lon="1.40449">
        <ele>145.149994</ele>
        <time>2013-06-15T14:16:58Z</time>
      </trkpt>
      <trkpt lat="43.50037" lon="1.4046">
        <ele>144.929993</ele>
        <time>2013-06-15T14:17:02Z</time>
      </trkpt>
      <trkpt lat="43.50034" lon="1.40464">
        <ele>144.679993</ele>
        <time>2013-06-15T14:17:04Z</time>
      </trkpt>
      <trkpt lat="43.50031" lon="1.40474">
        <ele>143.199997</ele>
        <time>2013-06-15T14:17:08Z</time>
      </trkpt>
      <trkpt lat="43.50025" lon="1.40484">
        <ele>141.529999</ele>
        <time>2013-06-15T14:17:14Z</time>
      </trkpt>
      <trkpt lat="43.50016" lon="1.40504">
        <ele>140.599991</ele>
        <time>2013-06-15T14:17:24Z</time>
      </trkpt>
      <trkpt lat="43.50015" lon="1.40508">
        <ele>139.770004</ele>
        <time>2013-06-15T14:17:26Z</time>
      </trkpt>
      <trkpt lat="43.5001" lon="1.40514">
        <ele>139.059998</ele>
        <time>2013-06-15T14:17:30Z</time>
      </trkpt>
      <trkpt lat="43.50007" lon="1.40524">
        <ele>138.949997</ele>
        <time>2013-06-15T14:17:34Z</time>
      </trkpt>
      <trkpt lat="43.50003" lon="1.40528">
        <ele>138.419998</ele>
        <time>2013-06-15T14:17:36Z</time>
      </trkpt>
      <trkpt lat="43.50002" lon="1.40531">
        <ele>137.910004</ele>
        <time>2013-06-15T14:17:38Z</time>
      </trkpt>
      <trkpt lat="43.49999" lon="1.40533">
        <ele>138.720001</ele>
        <time>2013-06-15T14:17:39Z</time>
      </trkpt>
      <trkpt lat="43.49995" lon="1.40534">
        <ele>141.520004</ele>
        <time>2013-06-15T14:17:41Z</time>
      </trkpt>
      <trkpt lat="43.49992" lon="1.40535">
        <ele>139.940002</ele>
        <time>2013-06-15T14:17:43Z</time>
      </trkpt>
      <trkpt lat="43.4997" lon="1.40559">
        <ele>143.889999</ele>
        <time>2013-06-15T14:17:59Z</time>
      </trkpt>
      <trkpt lat="43.49961" lon="1.40567">
        <ele>141.800003</ele>
        <time>2013-06-15T14:18:05Z</time>
      </trkpt>
      <trkpt lat="43.49947" lon="1.40581">
        <ele>144.899994</ele>
        <time>2013-06-15T14:18:15Z</time>
      </trkpt>
      <trkpt lat="43.49932" lon="1.40595">
        <ele>145.599991</ele>
        <time>2013-06-15T14:18:25Z</time>
      </trkpt>
      <trkpt lat="43.49926" lon="1.40603">
        <ele>145.649994</ele>
        <time>2013-06-15T14:18:29Z</time>
      </trkpt>
      <trkpt lat="43.49923" lon="1.40607">
        <ele>145.37999</ele>
        <time>2013-06-15T14:18:31Z</time>
      </trkpt>
      <trkpt lat="43.49915" lon="1.40611">
        <ele>145.270004</ele>
        <time>2013-06-15T14:18:35Z</time>
      </trkpt>
      <trkpt lat="43.49913" lon="1.40614">
        <ele>144</ele>
        <time>2013-06-15T14:18:37Z</time>
      </trkpt>
      <trkpt lat="43.49909" lon="1.40617">
        <ele>141.449997</ele>
        <time>2013-06-15T14:18:41Z</time>
      </trkpt>
      <trkpt lat="43.49906" lon="1.40621">
        <ele>139.520004</ele>
        <time>2013-06-15T14:18:45Z</time>
      </trkpt>
      <trkpt lat="43.499" lon="1.40627">
        <ele>139.099991</ele>
        <time>2013-06-15T14:18:49Z</time>
      </trkpt>
      <trkpt lat="43.49897" lon="1.40629">
        <ele>138.389999</ele>
        <time>2013-06-15T14:18:51Z</time>
      </trkpt>
      <trkpt lat="43.49894" lon="1.40629">
        <ele>137.970001</ele>
        <time>2013-06-15T14:18:53Z</time>
      </trkpt>
      <trkpt lat="43.49888" lon="1.40628">
        <ele>136.87999</ele>
        <time>2013-06-15T14:18:57Z</time>
      </trkpt>
      <trkpt lat="43.49881" lon="1.40628">
        <ele>136.389999</ele>
        <time>2013-06-15T14:19:01Z</time>
      </trkpt>
      <trkpt lat="43.49878" lon="1.40627">
        <ele>133.959991</ele>
        <time>2013-06-15T14:19:03Z</time>
      </trkpt>
      <trkpt lat="43.49867" lon="1.40627">
        <ele>129.929993</ele>
        <time>2013-06-15T14:19:09Z</time>
      </trkpt>
      <trkpt lat="43.49863" lon="1.40625">
        <ele>130.389999</ele>
        <time>2013-06-15T14:19:11Z</time>
      </trkpt>
      <trkpt lat="43.4986" lon="1.40625">
        <ele>130.279999</ele>
        <time>2013-06-15T14:19:13Z</time>
      </trkpt>
      <trkpt lat="43.49859" lon="1.40628">
        <ele>129.599991</ele>
        <time>2013-06-15T14:19:15Z</time>
      </trkpt>
      <trkpt lat="43.49859" lon="1.40636">
        <ele>127.869995</ele>
        <time>2013-06-15T14:19:21Z</time>
      </trkpt>
      <trkpt lat="43.49866" lon="1.40646">
        <ele>130.75</ele>
        <time>2013-06-15T14:19:31Z</time>
      </trkpt>
      <trkpt lat="43.49868" lon="1.40648">
        <ele>131.279999</ele>
        <time>2013-06-15T14:19:33Z</time>
      </trkpt>
      <trkpt lat="43.49875" lon="1.40653">
        <ele>130.029999</ele>
        <time>2013-06-15T14:19:41Z</time>
      </trkpt>
      <trkpt lat="43.49876" lon="1.40656">
        <ele>128.369995</ele>
        <time>2013-06-15T14:19:43Z</time>
      </trkpt>
      <trkpt lat="43.4988" lon="1.4066">
        <ele>128.73999</ele>
        <time>2013-06-15T14:19:45Z</time>
      </trkpt>
      <trkpt lat="43.49886" lon="1.40674">
        <ele>127.199997</ele>
        <time>2013-06-15T14:19:53Z</time>
      </trkpt>
      <trkpt lat="43.49889" lon="1.40679">
        <ele>125.889999</ele>
        <time>2013-06-15T14:19:55Z</time>
      </trkpt>
      <trkpt lat="43.49893" lon="1.40682">
        <ele>127.360001</ele>
        <time>2013-06-15T14:19:57Z</time>
      </trkpt>
      <trkpt lat="43.49898" lon="1.40683">
        <ele>125.040001</ele>
        <time>2013-06-15T14:20:01Z</time>
      </trkpt>
      <trkpt lat="43.49904" lon="1.4069">
        <ele>123.279999</ele>
        <time>2013-06-15T14:20:05Z</time>
      </trkpt>
      <trkpt lat="43.49909" lon="1.407">
        <ele>120.219994</ele>
        <time>2013-06-15T14:20:09Z</time>
      </trkpt>
      <trkpt lat="43.49912" lon="1.40709">
        <ele>121.419998</ele>
        <time>2013-06-15T14:20:11Z</time>
      </trkpt>
      <trkpt lat="43.49915" lon="1.40715">
        <ele>122.619995</ele>
        <time>2013-06-15T14:20:13Z</time>
      </trkpt>
      <trkpt lat="43.49923" lon="1.40723">
        <ele>121.790001</ele>
        <time>2013-06-15T14:20:17Z</time>
      </trkpt>
      <trkpt lat="43.49929" lon="1.40731">
        <ele>120.829994</ele>
        <time>2013-06-15T14:20:21Z</time>
      </trkpt>
      <trkpt lat="43.49933" lon="1.40734">
        <ele>121.540001</ele>
        <time>2013-06-15T14:20:23Z</time>
      </trkpt>
      <trkpt lat="43.49936" lon="1.40739">
        <ele>120.629997</ele>
        <time>2013-06-15T14:20:25Z</time>
      </trkpt>
      <trkpt lat="43.49939" lon="1.40741">
        <ele>121.339996</ele>
        <time>2013-06-15T14:20:27Z</time>
      </trkpt>
      <trkpt lat="43.49942" lon="1.4075">
        <ele>124.949997</ele>
        <time>2013-06-15T14:20:31Z</time>
      </trkpt>
      <trkpt lat="43.49944" lon="1.40756">
        <ele>125.739998</ele>
        <time>2013-06-15T14:20:33Z</time>
      </trkpt>
      <trkpt lat="43.49949" lon="1.40762">
        <ele>126.479996</ele>
        <time>2013-06-15T14:20:37Z</time>
      </trkpt>
      <trkpt lat="43.49954" lon="1.4077">
        <ele>129.369995</ele>
        <time>2013-06-15T14:20:41Z</time>
      </trkpt>
      <trkpt lat="43.49957" lon="1.40775">
        <ele>129.649994</ele>
        <time>2013-06-15T14:20:43Z</time>
      </trkpt>
      <trkpt lat="43.49959" lon="1.40776">
        <ele>130.069992</ele>
        <time>2013-06-15T14:20:45Z</time>
      </trkpt>
      <trkpt lat="43.4996" lon="1.40776">
        <ele>130.099991</ele>
        <time>2013-06-15T14:20:53Z</time>
      </trkpt>
      <trkpt lat="43.4996" lon="1.40779">
        <ele>133.720001</ele>
        <time>2013-06-15T14:20:55Z</time>
      </trkpt>
      <trkpt lat="43.49957" lon="1.40775">
        <ele>127.629997</ele>
        <time>2013-06-15T14:20:57Z</time>
      </trkpt>
      <trkpt lat="43.49947" lon="1.4077">
        <ele>129.009995</ele>
        <time>2013-06-15T14:21:01Z</time>
      </trkpt>
      <trkpt lat="43.49944" lon="1.40771">
        <ele>132.009995</ele>
        <time>2013-06-15T14:21:03Z</time>
      </trkpt>
      <trkpt lat="43.49936" lon="1.40776">
        <ele>126.989998</ele>
        <time>2013-06-15T14:21:07Z</time>
      </trkpt>
      <trkpt lat="43.49929" lon="1.40779">
        <ele>128.009995</ele>
        <time>2013-06-15T14:21:09Z</time>
      </trkpt>
      <trkpt lat="43.49924" lon="1.40784">
        <ele>133.830002</ele>
        <time>2013-06-15T14:21:11Z</time>
      </trkpt>
      <trkpt lat="43.49918" lon="1.40789">
        <ele>136.229996</ele>
        <time>2013-06-15T14:21:15Z</time>
      </trkpt>
      <trkpt lat="43.49915" lon="1.40792">
        <ele>138.139999</ele>
        <time>2013-06-15T14:21:17Z</time>
      </trkpt>
      <trkpt lat="43.49905" lon="1.408">
        <ele>140.539993</ele>
        <time>2013-06-15T14:21:23Z</time>
      </trkpt>
      <trkpt lat="43.49898" lon="1.40812">
        <ele>141.459991</ele>
        <time>2013-06-15T14:21:29Z</time>
      </trkpt>
      <trkpt lat="43.49893" lon="1.40817">
        <ele>144.270004</ele>
        <time>2013-06-15T14:21:33Z</time>
      </trkpt>
      <trkpt lat="43.49891" lon="1.40821">
        <ele>143.87999</ele>
        <time>2013-06-15T14:21:35Z</time>
      </trkpt>
      <trkpt lat="43.49887" lon="1.40826">
        <ele>146.389999</ele>
        <time>2013-06-15T14:21:39Z</time>
      </trkpt>
      <trkpt lat="43.4988" lon="1.4083">
        <ele>147.209991</ele>
        <time>2013-06-15T14:21:43Z</time>
      </trkpt>
      <trkpt lat="43.49878" lon="1.40832">
        <ele>149.259995</ele>
        <time>2013-06-15T14:21:45Z</time>
      </trkpt>
      <trkpt lat="43.4987" lon="1.40835">
        <ele>148.610001</ele>
        <time>2013-06-15T14:21:51Z</time>
      </trkpt>
      <trkpt lat="43.49867" lon="1.40838">
        <ele>146.830002</ele>
        <time>2013-06-15T14:21:55Z</time>
      </trkpt>
      <trkpt lat="43.49863" lon="1.40838">
        <ele>144.190002</ele>
        <time>2013-06-15T14:21:57Z</time>
      </trkpt>
      <trkpt lat="43.49861" lon="1.4084">
        <ele>142.959991</ele>
        <time>2013-06-15T14:21:59Z</time>
      </trkpt>
      <trkpt lat="43.49854" lon="1.40844">
        <ele>139.059998</ele>
        <time>2013-06-15T14:22:03Z</time>
      </trkpt>
      <trkpt lat="43.49852" lon="1.40847">
        <ele>138.050003</ele>
        <time>2013-06-15T14:22:05Z</time>
      </trkpt>
      <trkpt lat="43.49848" lon="1.40849">
        <ele>134.160004</ele>
        <time>2013-06-15T14:22:07Z</time>
      </trkpt>
      <trkpt lat="43.49844" lon="1.40848">
        <ele>128.309998</ele>
        <time>2013-06-15T14:22:09Z</time>
      </trkpt>
      <trkpt lat="43.4984" lon="1.40852">
        <ele>128.839996</ele>
        <time>2013-06-15T14:22:11Z</time>
      </trkpt>
      <trkpt lat="43.49834" lon="1.40862">
        <ele>141.37999</ele>
        <time>2013-06-15T14:22:13Z</time>
      </trkpt>
      <trkpt lat="43.49826" lon="1.40867">
        <ele>145.179993</ele>
        <time>2013-06-15T14:22:15Z</time>
      </trkpt>
      <trkpt lat="43.49817" lon="1.40876">
        <ele>143.050003</ele>
        <time>2013-06-15T14:22:21Z</time>
      </trkpt>
      <trkpt lat="43.49807" lon="1.40885">
        <ele>139.5</ele>
        <time>2013-06-15T14:22:27Z</time>
      </trkpt>
      <trkpt lat="43.49806" lon="1.40889">
        <ele>138.580002</ele>
        <time>2013-06-15T14:22:29Z</time>
      </trkpt>
      <trkpt lat="43.49804" lon="1.40898">
        <ele>135.270004</ele>
        <time>2013-06-15T14:22:33Z</time>
      </trkpt>
      <trkpt lat="43.498" lon="1.40906">
        <ele>132.62999</ele>
        <time>2013-06-15T14:22:37Z</time>
      </trkpt>
      <trkpt lat="43.49796" lon="1.40921">
        <ele>128.039993</ele>
        <time>2013-06-15T14:22:45Z</time>
      </trkpt>
      <trkpt lat="43.49793" lon="1.40926">
        <ele>125.549995</ele>
        <time>2013-06-15T14:22:48Z</time>
      </trkpt>
      <trkpt lat="43.49791" lon="1.40927">
        <ele>124.849998</ele>
        <time>2013-06-15T14:22:50Z</time>
      </trkpt>
      <trkpt lat="43.49789" lon="1.40936">
        <ele>131.789993</ele>
        <time>2013-06-15T14:22:52Z</time>
      </trkpt>
      <trkpt lat="43.49788" lon="1.4094">
        <ele>142.169998</ele>
        <time>2013-06-15T14:22:54Z</time>
      </trkpt>
      <trkpt lat="43.49789" lon="1.40945">
        <ele>146.729996</ele>
        <time>2013-06-15T14:22:56Z</time>
      </trkpt>
      <trkpt lat="43.49796" lon="1.40956">
        <ele>149.619995</ele>
        <time>2013-06-15T14:23:02Z</time>
      </trkpt>
      <trkpt lat="43.49801" lon="1.40964">
        <ele>150.559998</ele>
        <time>2013-06-15T14:23:06Z</time>
      </trkpt>
      <trkpt lat="43.49803" lon="1.40972">
        <ele>152.839996</ele>
        <time>2013-06-15T14:23:10Z</time>
      </trkpt>
      <trkpt lat="43.49804" lon="1.40976">
        <ele>154.509995</ele>
        <time>2013-06-15T14:23:12Z</time>
      </trkpt>
      <trkpt lat="43.49802" lon="1.40979">
        <ele>154.029999</ele>
        <time>2013-06-15T14:23:14Z</time>
      </trkpt>
      <trkpt lat="43.49796" lon="1.4098">
        <ele>154.039993</ele>
        <time>2013-06-15T14:23:18Z</time>
      </trkpt>
      <trkpt lat="43.49793" lon="1.40982">
        <ele>154.519989</ele>
        <time>2013-06-15T14:23:20Z</time>
      </trkpt>
      <trkpt lat="43.49789" lon="1.40983">
        <ele>155.229996</ele>
        <time>2013-06-15T14:23:22Z</time>
      </trkpt>
      <trkpt lat="43.4978" lon="1.40974">
        <ele>158.910004</ele>
        <time>2013-06-15T14:23:26Z</time>
      </trkpt>
      <trkpt lat="43.49773" lon="1.4097">
        <ele>159.369995</ele>
        <time>2013-06-15T14:23:30Z</time>
      </trkpt>
      <trkpt lat="43.49765" lon="1.4097">
        <ele>159.839996</ele>
        <time>2013-06-15T14:23:36Z</time>
      </trkpt>
      <trkpt lat="43.49761" lon="1.40972">
        <ele>160.830002</ele>
        <time>2013-06-15T14:23:38Z</time>
      </trkpt>
      <trkpt lat="43.49754" lon="1.40978">
        <ele>163.019989</ele>
        <time>2013-06-15T14:23:42Z</time>
      </trkpt>
      <trkpt lat="43.4975" lon="1.40979">
        <ele>163.289993</ele>
        <time>2013-06-15T14:23:44Z</time>
      </trkpt>
      <trkpt lat="43.49746" lon="1.40978">
        <ele>160.199997</ele>
        <time>2013-06-15T14:23:46Z</time>
      </trkpt>
      <trkpt lat="43.4974" lon="1.40979">
        <ele>156.389999</ele>
        <time>2013-06-15T14:23:50Z</time>
      </trkpt>
      <trkpt lat="43.4973" lon="1.40983">
        <ele>154.059998</ele>
        <time>2013-06-15T14:23:56Z</time>
      </trkpt>
      <trkpt lat="43.4972" lon="1.40989">
        <ele>152.419998</ele>
        <time>2013-06-15T14:24:02Z</time>
      </trkpt>
      <trkpt lat="43.49705" lon="1.40998">
        <ele>141.5</ele>
        <time>2013-06-15T14:24:12Z</time>
      </trkpt>
      <trkpt lat="43.49704" lon="1.41001">
        <ele>138.949997</ele>
        <time>2013-06-15T14:24:14Z</time>
      </trkpt>
      <trkpt lat="43.49697" lon="1.41006">
        <ele>135.419998</ele>
        <time>2013-06-15T14:24:18Z</time>
      </trkpt>
      <trkpt lat="43.49685" lon="1.41009">
        <ele>128.179993</ele>
        <time>2013-06-15T14:24:24Z</time>
      </trkpt>
      <trkpt lat="43.49683" lon="1.41011">
        <ele>125.739998</ele>
        <time>2013-06-15T14:24:26Z</time>
      </trkpt>
      <trkpt lat="43.49675" lon="1.4101">
        <ele>131.5</ele>
        <time>2013-06-15T14:24:28Z</time>
      </trkpt>
      <trkpt lat="43.49665" lon="1.4101">
        <ele>140.73999</ele>
        <time>2013-06-15T14:24:32Z</time>
      </trkpt>
      <trkpt lat="43.49661" lon="1.41008">
        <ele>150.300003</ele>
        <time>2013-06-15T14:24:34Z</time>
      </trkpt>
      <trkpt lat="43.49641" lon="1.41017">
        <ele>154.539993</ele>
        <time>2013-06-15T14:24:46Z</time>
      </trkpt>
      <trkpt lat="43.49639" lon="1.4102">
        <ele>155.419998</ele>
        <time>2013-06-15T14:24:48Z</time>
      </trkpt>
      <trkpt lat="43.49635" lon="1.41021">
        <ele>154.569992</ele>
        <time>2013-06-15T14:24:50Z</time>
      </trkpt>
      <trkpt lat="43.49629" lon="1.41026">
        <ele>153.550003</ele>
        <time>2013-06-15T14:24:54Z</time>
      </trkpt>
      <trkpt lat="43.49625" lon="1.41026">
        <ele>154.550003</ele>
        <time>2013-06-15T14:24:56Z</time>
      </trkpt>
      <trkpt lat="43.49617" lon="1.41025">
        <ele>159.519989</ele>
        <time>2013-06-15T14:25:00Z</time>
      </trkpt>
      <trkpt lat="43.49611" lon="1.41029">
        <ele>161.330002</ele>
        <time>2013-06-15T14:25:04Z</time>
      </trkpt>
      <trkpt lat="43.49603" lon="1.41032">
        <ele>163.139999</ele>
        <time>2013-06-15T14:25:08Z</time>
      </trkpt>
      <trkpt lat="43.496" lon="1.41031">
        <ele>168.039993</ele>
        <time>2013-06-15T14:25:10Z</time>
      </trkpt>
      <trkpt lat="43.49594" lon="1.41035">
        <ele>168.729996</ele>
        <time>2013-06-15T14:25:14Z</time>
      </trkpt>
      <trkpt lat="43.4959" lon="1.41035">
        <ele>169.389999</ele>
        <time>2013-06-15T14:25:16Z</time>
      </trkpt>
      <trkpt lat="43.49585" lon="1.41036">
        <ele>168.580002</ele>
        <time>2013-06-15T14:25:18Z</time>
      </trkpt>
      <trkpt lat="43.49566" lon="1.41059">
        <ele>147.690002</ele>
        <time>2013-06-15T14:25:30Z</time>
      </trkpt>
      <trkpt lat="43.49559" lon="1.41063">
        <ele>145.529999</ele>
        <time>2013-06-15T14:25:34Z</time>
      </trkpt>
      <trkpt lat="43.49557" lon="1.41066">
        <ele>146.389999</ele>
        <time>2013-06-15T14:25:36Z</time>
      </trkpt>
      <trkpt lat="43.49556" lon="1.41069">
        <ele>144.520004</ele>
        <time>2013-06-15T14:25:38Z</time>
      </trkpt>
      <trkpt lat="43.49553" lon="1.41071">
        <ele>145.779999</ele>
        <time>2013-06-15T14:25:40Z</time>
      </trkpt>
      <trkpt lat="43.4955" lon="1.41074">
        <ele>146.539993</ele>
        <time>2013-06-15T14:25:42Z</time>
      </trkpt>
      <trkpt lat="43.49545" lon="1.41076">
        <ele>150</ele>
        <time>2013-06-15T14:25:46Z</time>
      </trkpt>
      <trkpt lat="43.49532" lon="1.41087">
        <ele>141.259995</ele>
        <time>2013-06-15T14:25:54Z</time>
      </trkpt>
      <trkpt lat="43.4953" lon="1.4109">
        <ele>141.330002</ele>
        <time>2013-06-15T14:25:56Z</time>
      </trkpt>
      <trkpt lat="43.49528" lon="1.41091">
        <ele>141.039993</ele>
        <time>2013-06-15T14:25:58Z</time>
      </trkpt>
      <trkpt lat="43.49525" lon="1.41095">
        <ele>140.149994</ele>
        <time>2013-06-15T14:26:00Z</time>
      </trkpt>
      <trkpt lat="43.49522" lon="1.41096">
        <ele>137.569992</ele>
        <time>2013-06-15T14:26:02Z</time>
      </trkpt>
      <trkpt lat="43.49512" lon="1.41098">
        <ele>139.270004</ele>
        <time>2013-06-15T14:26:06Z</time>
      </trkpt>
      <trkpt lat="43.49509" lon="1.41102">
        <ele>139.899994</ele>
        <time>2013-06-15T14:26:08Z</time>
      </trkpt>
      <trkpt lat="43.495" lon="1.41105">
        <ele>138.139999</ele>
        <time>2013-06-15T14:26:12Z</time>
      </trkpt>
      <trkpt lat="43.49497" lon="1.41106">
        <ele>140.300003</ele>
        <time>2013-06-15T14:26:14Z</time>
      </trkpt>
      <trkpt lat="43.49483" lon="1.41117">
        <ele>148.869995</ele>
        <time>2013-06-15T14:26:22Z</time>
      </trkpt>
      <trkpt lat="43.4948" lon="1.41117">
        <ele>147.979996</ele>
        <time>2013-06-15T14:26:24Z</time>
      </trkpt>
      <trkpt lat="43.49474" lon="1.41117">
        <ele>151.839996</ele>
        <time>2013-06-15T14:26:28Z</time>
      </trkpt>
      <trkpt lat="43.49471" lon="1.41118">
        <ele>152.080002</ele>
        <time>2013-06-15T14:26:30Z</time>
      </trkpt>
      <trkpt lat="43.49467" lon="1.41122">
        <ele>151.080002</ele>
        <time>2013-06-15T14:26:32Z</time>
      </trkpt>
      <trkpt lat="43.49452" lon="1.41131">
        <ele>142.619995</ele>
        <time>2013-06-15T14:26:42Z</time>
      </trkpt>
      <trkpt lat="43.49444" lon="1.41136">
        <ele>140.699997</ele>
        <time>2013-06-15T14:26:48Z</time>
      </trkpt>
      <trkpt lat="43.49442" lon="1.41137">
        <ele>139.830002</ele>
        <time>2013-06-15T14:26:49Z</time>
      </trkpt>
      <trkpt lat="43.49431" lon="1.41136">
        <ele>140.919998</ele>
        <time>2013-06-15T14:26:53Z</time>
      </trkpt>
      <trkpt lat="43.49426" lon="1.41141">
        <ele>140.849991</ele>
        <time>2013-06-15T14:26:55Z</time>
      </trkpt>
      <trkpt lat="43.49416" lon="1.4115">
        <ele>148.529999</ele>
        <time>2013-06-15T14:27:01Z</time>
      </trkpt>
      <trkpt lat="43.49409" lon="1.41153">
        <ele>148.220001</ele>
        <time>2013-06-15T14:27:05Z</time>
      </trkpt>
      <trkpt lat="43.49403" lon="1.41159">
        <ele>151.369995</ele>
        <time>2013-06-15T14:27:09Z</time>
      </trkpt>
      <trkpt lat="43.49401" lon="1.4116">
        <ele>152.429993</ele>
        <time>2013-06-15T14:27:11Z</time>
      </trkpt>
      <trkpt lat="43.49395" lon="1.41162">
        <ele>153.679993</ele>
        <time>2013-06-15T14:27:14Z</time>
      </trkpt>
      <trkpt lat="43.4939" lon="1.41162">
        <ele>155.440002</ele>
        <time>2013-06-15T14:27:16Z</time>
      </trkpt>
      <trkpt lat="43.49387" lon="1.41164">
        <ele>155.869995</ele>
        <time>2013-06-15T14:27:18Z</time>
      </trkpt>
      <trkpt lat="43.4938" lon="1.41166">
        <ele>158.229996</ele>
        <time>2013-06-15T14:27:22Z</time>
      </trkpt>
      <trkpt lat="43.49376" lon="1.41169">
        <ele>154</ele>
        <time>2013-06-15T14:27:24Z</time>
      </trkpt>
      <trkpt lat="43.49369" lon="1.41172">
        <ele>152.139999</ele>
        <time>2013-06-15T14:27:28Z</time>
      </trkpt>
      <trkpt lat="43.49366" lon="1.41175">
        <ele>150.949997</ele>
        <time>2013-06-15T14:27:30Z</time>
      </trkpt>
      <trkpt lat="43.4936" lon="1.41178">
        <ele>144.910004</ele>
        <time>2013-06-15T14:27:34Z</time>
      </trkpt>
      <trkpt lat="43.4935" lon="1.4118">
        <ele>148.199997</ele>
        <time>2013-06-15T14:27:40Z</time>
      </trkpt>
      <trkpt lat="43.49348" lon="1.41182">
        <ele>145.209991</ele>
        <time>2013-06-15T14:27:42Z</time>
      </trkpt>
      <trkpt lat="43.49337" lon="1.41187">
        <ele>137.669998</ele>
        <time>2013-06-15T14:27:50Z</time>
      </trkpt>
      <trkpt lat="43.4933" lon="1.41189">
        <ele>135.080002</ele>
        <time>2013-06-15T14:27:54Z</time>
      </trkpt>
      <trkpt lat="43.49326" lon="1.41189">
        <ele>133.679993</ele>
        <time>2013-06-15T14:27:56Z</time>
      </trkpt>
      <trkpt lat="43.49314" lon="1.41192">
        <ele>137.229996</ele>
        <time>2013-06-15T14:28:02Z</time>
      </trkpt>
      <trkpt lat="43.4931" lon="1.41194">
        <ele>140.149994</ele>
        <time>2013-06-15T14:28:04Z</time>
      </trkpt>
      <trkpt lat="43.49306" lon="1.41196">
        <ele>139.819992</ele>
        <time>2013-06-15T14:28:08Z</time>
      </trkpt>
      <trkpt lat="43.49304" lon="1.41196">
        <ele>140.369995</ele>
        <time>2013-06-15T14:28:09Z</time>
      </trkpt>
      <trkpt lat="43.49298" lon="1.41196">
        <ele>145.660004</ele>
        <time>2013-06-15T14:28:12Z</time>
      </trkpt>
      <trkpt lat="43.49294" lon="1.41197">
        <ele>145.800003</ele>
        <time>2013-06-15T14:28:14Z</time>
      </trkpt>
      <trkpt lat="43.49289" lon="1.41199">
        <ele>148.270004</ele>
        <time>2013-06-15T14:28:16Z</time>
      </trkpt>
      <trkpt lat="43.49278" lon="1.412">
        <ele>158.069992</ele>
        <time>2013-06-15T14:28:24Z</time>
      </trkpt>
      <trkpt lat="43.49262" lon="1.41198">
        <ele>150.169998</ele>
        <time>2013-06-15T14:28:30Z</time>
      </trkpt>
      <trkpt lat="43.49255" lon="1.41202">
        <ele>144.529999</ele>
        <time>2013-06-15T14:28:34Z</time>
      </trkpt>
      <trkpt lat="43.49237" lon="1.41212">
        <ele>137.509995</ele>
        <time>2013-06-15T14:28:46Z</time>
      </trkpt>
      <trkpt lat="43.49234" lon="1.41219">
        <ele>136.819992</ele>
        <time>2013-06-15T14:28:49Z</time>
      </trkpt>
      <trkpt lat="43.49223" lon="1.41228">
        <ele>141.860001</ele>
        <time>2013-06-15T14:28:55Z</time>
      </trkpt>
      <trkpt lat="43.49217" lon="1.41231">
        <ele>141.720001</ele>
        <time>2013-06-15T14:28:59Z</time>
      </trkpt>
      <trkpt lat="43.4921" lon="1.41237">
        <ele>143.410004</ele>
        <time>2013-06-15T14:29:03Z</time>
      </trkpt>
      <trkpt lat="43.49208" lon="1.4124">
        <ele>144.830002</ele>
        <time>2013-06-15T14:29:05Z</time>
      </trkpt>
      <trkpt lat="43.49205" lon="1.41243">
        <ele>145.399994</ele>
        <time>2013-06-15T14:29:07Z</time>
      </trkpt>
      <trkpt lat="43.49198" lon="1.41246">
        <ele>146.300003</ele>
        <time>2013-06-15T14:29:11Z</time>
      </trkpt>
      <trkpt lat="43.49196" lon="1.41248">
        <ele>146.360001</ele>
        <time>2013-06-15T14:29:13Z</time>
      </trkpt>
      <trkpt lat="43.49192" lon="1.41253">
        <ele>146.389999</ele>
        <time>2013-06-15T14:29:17Z</time>
      </trkpt>
      <trkpt lat="43.49183" lon="1.41258">
        <ele>145.5</ele>
        <time>2013-06-15T14:29:21Z</time>
      </trkpt>
      <trkpt lat="43.49177" lon="1.41264">
        <ele>143.23999</ele>
        <time>2013-06-15T14:29:25Z</time>
      </trkpt>
      <trkpt lat="43.49173" lon="1.41278">
        <ele>145.229996</ele>
        <time>2013-06-15T14:29:31Z</time>
      </trkpt>
      <trkpt lat="43.49169" lon="1.41282">
        <ele>146.12999</ele>
        <time>2013-06-15T14:29:33Z</time>
      </trkpt>
      <trkpt lat="43.49165" lon="1.41291">
        <ele>145.520004</ele>
        <time>2013-06-15T14:29:39Z</time>
      </trkpt>
      <trkpt lat="43.49163" lon="1.41294">
        <ele>145.729996</ele>
        <time>2013-06-15T14:29:41Z</time>
      </trkpt>
      <trkpt lat="43.49162" lon="1.413">
        <ele>145.229996</ele>
        <time>2013-06-15T14:29:45Z</time>
      </trkpt>
      <trkpt lat="43.49155" lon="1.41304">
        <ele>143.800003</ele>
        <time>2013-06-15T14:29:47Z</time>
      </trkpt>
      <trkpt lat="43.49144" lon="1.41304">
        <ele>140</ele>
        <time>2013-06-15T14:29:49Z</time>
      </trkpt>
      <trkpt lat="43.49139" lon="1.41303">
        <ele>138.599991</ele>
        <time>2013-06-15T14:29:51Z</time>
      </trkpt>
      <trkpt lat="43.49136" lon="1.41303">
        <ele>136.270004</ele>
        <time>2013-06-15T14:29:53Z</time>
      </trkpt>
      <trkpt lat="43.49131" lon="1.41308">
        <ele>134.87999</ele>
        <time>2013-06-15T14:29:57Z</time>
      </trkpt>
      <trkpt lat="43.49122" lon="1.41314">
        <ele>138.020004</ele>
        <time>2013-06-15T14:30:03Z</time>
      </trkpt>
      <trkpt lat="43.49118" lon="1.41318">
        <ele>133.300003</ele>
        <time>2013-06-15T14:30:07Z</time>
      </trkpt>
      <trkpt lat="43.49112" lon="1.41319">
        <ele>133.270004</ele>
        <time>2013-06-15T14:30:11Z</time>
      </trkpt>
      <trkpt lat="43.49101" lon="1.41323">
        <ele>139.369995</ele>
        <time>2013-06-15T14:30:17Z</time>
      </trkpt>
      <trkpt lat="43.49098" lon="1.41325">
        <ele>139.599991</ele>
        <time>2013-06-15T14:30:19Z</time>
      </trkpt>
      <trkpt lat="43.49096" lon="1.4133">
        <ele>141.229996</ele>
        <time>2013-06-15T14:30:22Z</time>
      </trkpt>
      <trkpt lat="43.49093" lon="1.41332">
        <ele>141.839996</ele>
        <time>2013-06-15T14:30:24Z</time>
      </trkpt>
      <trkpt lat="43.49087" lon="1.41342">
        <ele>144.75</ele>
        <time>2013-06-15T14:30:33Z</time>
      </trkpt>
      <trkpt lat="43.49087" lon="1.41343">
        <ele>144.279999</ele>
        <time>2013-06-15T14:30:34Z</time>
      </trkpt>
      <trkpt lat="43.49086" lon="1.41343">
        <ele>148.119995</ele>
        <time>2013-06-15T14:30:37Z</time>
      </trkpt>
      <trkpt lat="43.49056" lon="1.41335">
        <ele>152.209991</ele>
        <time>2013-06-15T14:30:49Z</time>
      </trkpt>
      <trkpt lat="43.49033" lon="1.41334">
        <ele>151.509995</ele>
        <time>2013-06-15T14:31:03Z</time>
      </trkpt>
      <trkpt lat="43.49029" lon="1.41335">
        <ele>151.899994</ele>
        <time>2013-06-15T14:31:05Z</time>
      </trkpt>
      <trkpt lat="43.49027" lon="1.41336">
        <ele>150.970001</ele>
        <time>2013-06-15T14:31:07Z</time>
      </trkpt>
      <trkpt lat="43.48998" lon="1.41337">
        <ele>137.73999</ele>
        <time>2013-06-15T14:31:27Z</time>
      </trkpt>
      <trkpt lat="43.48993" lon="1.41336">
        <ele>136.12999</ele>
        <time>2013-06-15T14:31:29Z</time>
      </trkpt>
      <trkpt lat="43.48989" lon="1.41336">
        <ele>140.039993</ele>
        <time>2013-06-15T14:31:31Z</time>
      </trkpt>
      <trkpt lat="43.48961" lon="1.41329">
        <ele>141.770004</ele>
        <time>2013-06-15T14:31:47Z</time>
      </trkpt>
      <trkpt lat="43.48952" lon="1.41329">
        <ele>140.069992</ele>
        <time>2013-06-15T14:31:51Z</time>
      </trkpt>
      <trkpt lat="43.48912" lon="1.41285">
        <ele>139.039993</ele>
        <time>2013-06-15T14:32:27Z</time>
      </trkpt>
      <trkpt lat="43.48909" lon="1.41279">
        <ele>141.309998</ele>
        <time>2013-06-15T14:32:31Z</time>
      </trkpt>
      <trkpt lat="43.48903" lon="1.4127">
        <ele>144.199997</ele>
        <time>2013-06-15T14:32:35Z</time>
      </trkpt>
      <trkpt lat="43.489" lon="1.4126">
        <ele>147.589996</ele>
        <time>2013-06-15T14:32:39Z</time>
      </trkpt>
      <trkpt lat="43.48896" lon="1.41256">
        <ele>148.569992</ele>
        <time>2013-06-15T14:32:41Z</time>
      </trkpt>
      <trkpt lat="43.48891" lon="1.41255">
        <ele>148.899994</ele>
        <time>2013-06-15T14:32:45Z</time>
      </trkpt>
      <trkpt lat="43.48887" lon="1.41252">
        <ele>148.839996</ele>
        <time>2013-06-15T14:32:49Z</time>
      </trkpt>
      <trkpt lat="43.48883" lon="1.41243">
        <ele>148.610001</ele>
        <time>2013-06-15T14:32:53Z</time>
      </trkpt>
      <trkpt lat="43.48881" lon="1.41242">
        <ele>148.940002</ele>
        <time>2013-06-15T14:32:55Z</time>
      </trkpt>
      <trkpt lat="43.48881" lon="1.41241">
        <ele>148.559998</ele>
        <time>2013-06-15T14:32:57Z</time>
      </trkpt>
      <trkpt lat="43.48879" lon="1.41241">
        <ele>149.119995</ele>
        <time>2013-06-15T14:32:58Z</time>
      </trkpt>
      <trkpt lat="43.48875" lon="1.41242">
        <ele>152.75</ele>
        <time>2013-06-15T14:33:00Z</time>
      </trkpt>
      <trkpt lat="43.48858" lon="1.41181">
        <ele>143.309998</ele>
        <time>2013-06-15T14:33:26Z</time>
      </trkpt>
      <trkpt lat="43.48856" lon="1.41172">
        <ele>141.529999</ele>
        <time>2013-06-15T14:33:30Z</time>
      </trkpt>
      <trkpt lat="43.48845" lon="1.41146">
        <ele>138.429993</ele>
        <time>2013-06-15T14:33:42Z</time>
      </trkpt>
      <trkpt lat="43.48829" lon="1.41115">
        <ele>131.190002</ele>
        <time>2013-06-15T14:33:58Z</time>
      </trkpt>
      <trkpt lat="43.48827" lon="1.41113">
        <ele>132.110001</ele>
        <time>2013-06-15T14:34:00Z</time>
      </trkpt>
      <trkpt lat="43.48827" lon="1.4111">
        <ele>125.989998</ele>
        <time>2013-06-15T14:34:02Z</time>
      </trkpt>
      <trkpt lat="43.48821" lon="1.411">
        <ele>124.509995</ele>
        <time>2013-06-15T14:34:04Z</time>
      </trkpt>
      <trkpt lat="43.488" lon="1.41032">
        <ele>139.589996</ele>
        <time>2013-06-15T14:34:38Z</time>
      </trkpt>
      <trkpt lat="43.48799" lon="1.41027">
        <ele>138.110001</ele>
        <time>2013-06-15T14:34:40Z</time>
      </trkpt>
      <trkpt lat="43.48797" lon="1.41023">
        <ele>137.429993</ele>
        <time>2013-06-15T14:34:42Z</time>
      </trkpt>
      <trkpt lat="43.48793" lon="1.41017">
        <ele>135.899994</ele>
        <time>2013-06-15T14:34:46Z</time>
      </trkpt>
      <trkpt lat="43.4879" lon="1.41015">
        <ele>136.75</ele>
        <time>2013-06-15T14:34:50Z</time>
      </trkpt>
      <trkpt lat="43.48791" lon="1.41011">
        <ele>139.149994</ele>
        <time>2013-06-15T14:34:51Z</time>
      </trkpt>
      <trkpt lat="43.48788" lon="1.40999">
        <ele>140.419998</ele>
        <time>2013-06-15T14:34:53Z</time>
      </trkpt>
      <trkpt lat="43.48785" lon="1.40993">
        <ele>139.279999</ele>
        <time>2013-06-15T14:34:55Z</time>
      </trkpt>
      <trkpt lat="43.48777" lon="1.40987">
        <ele>136.770004</ele>
        <time>2013-06-15T14:34:57Z</time>
      </trkpt>
      <trkpt lat="43.48775" lon="1.40984">
        <ele>135.720001</ele>
        <time>2013-06-15T14:34:59Z</time>
      </trkpt>
      <trkpt lat="43.48775" lon="1.4098">
        <ele>139.339996</ele>
        <time>2013-06-15T14:35:01Z</time>
      </trkpt>
      <trkpt lat="43.48773" lon="1.40977">
        <ele>142.160004</ele>
        <time>2013-06-15T14:35:03Z</time>
      </trkpt>
      <trkpt lat="43.48765" lon="1.40959">
        <ele>147.5</ele>
        <time>2013-06-15T14:35:13Z</time>
      </trkpt>
      <trkpt lat="43.48761" lon="1.40953">
        <ele>148.830002</ele>
        <time>2013-06-15T14:35:17Z</time>
      </trkpt>
      <trkpt lat="43.4876" lon="1.40948">
        <ele>148.529999</ele>
        <time>2013-06-15T14:35:19Z</time>
      </trkpt>
      <trkpt lat="43.48756" lon="1.40944">
        <ele>148.020004</ele>
        <time>2013-06-15T14:35:21Z</time>
      </trkpt>
      <trkpt lat="43.48755" lon="1.40939">
        <ele>146.62999</ele>
        <time>2013-06-15T14:35:23Z</time>
      </trkpt>
      <trkpt lat="43.48753" lon="1.40937">
        <ele>148.5</ele>
        <time>2013-06-15T14:35:25Z</time>
      </trkpt>
      <trkpt lat="43.48752" lon="1.40921">
        <ele>150.429993</ele>
        <time>2013-06-15T14:35:31Z</time>
      </trkpt>
      <trkpt lat="43.48749" lon="1.40918">
        <ele>151.550003</ele>
        <time>2013-06-15T14:35:33Z</time>
      </trkpt>
      <trkpt lat="43.48741" lon="1.40897">
        <ele>142.970001</ele>
        <time>2013-06-15T14:35:45Z</time>
      </trkpt>
      <trkpt lat="43.48742" lon="1.40885">
        <ele>141.819992</ele>
        <time>2013-06-15T14:35:49Z</time>
      </trkpt>
      <trkpt lat="43.48741" lon="1.40881">
        <ele>142.729996</ele>
        <time>2013-06-15T14:35:59Z</time>
      </trkpt>
      <trkpt lat="43.48731" lon="1.40857">
        <ele>144.259995</ele>
        <time>2013-06-15T14:36:05Z</time>
      </trkpt>
      <trkpt lat="43.48726" lon="1.40851">
        <ele>142.479996</ele>
        <time>2013-06-15T14:36:13Z</time>
      </trkpt>
      <trkpt lat="43.48726" lon="1.40847">
        <ele>140.809998</ele>
        <time>2013-06-15T14:36:15Z</time>
      </trkpt>
      <trkpt lat="43.48721" lon="1.40843">
        <ele>139.830002</ele>
        <time>2013-06-15T14:36:17Z</time>
      </trkpt>
      <trkpt lat="43.48719" lon="1.40833">
        <ele>136.279999</ele>
        <time>2013-06-15T14:36:19Z</time>
      </trkpt>
      <trkpt lat="43.48715" lon="1.40828">
        <ele>134.759995</ele>
        <time>2013-06-15T14:36:21Z</time>
      </trkpt>
      <trkpt lat="43.48716" lon="1.40817">
        <ele>139.919998</ele>
        <time>2013-06-15T14:36:25Z</time>
      </trkpt>
      <trkpt lat="43.48713" lon="1.40811">
        <ele>141.020004</ele>
        <time>2013-06-15T14:36:29Z</time>
      </trkpt>
      <trkpt lat="43.4871" lon="1.40802">
        <ele>138.539993</ele>
        <time>2013-06-15T14:36:33Z</time>
      </trkpt>
      <trkpt lat="43.4871" lon="1.40788">
        <ele>137.639999</ele>
        <time>2013-06-15T14:36:39Z</time>
      </trkpt>
      <trkpt lat="43.48708" lon="1.40783">
        <ele>138.37999</ele>
        <time>2013-06-15T14:36:41Z</time>
      </trkpt>
      <trkpt lat="43.48705" lon="1.40781">
        <ele>138.25</ele>
        <time>2013-06-15T14:36:43Z</time>
      </trkpt>
      <trkpt lat="43.48697" lon="1.4077">
        <ele>143.62999</ele>
        <time>2013-06-15T14:36:51Z</time>
      </trkpt>
      <trkpt lat="43.48695" lon="1.40765">
        <ele>144.050003</ele>
        <time>2013-06-15T14:36:53Z</time>
      </trkpt>
      <trkpt lat="43.48693" lon="1.4076">
        <ele>144.910004</ele>
        <time>2013-06-15T14:36:55Z</time>
      </trkpt>
      <trkpt lat="43.4869" lon="1.40748">
        <ele>147.87999</ele>
        <time>2013-06-15T14:37:01Z</time>
      </trkpt>
      <trkpt lat="43.48689" lon="1.40744">
        <ele>148.619995</ele>
        <time>2013-06-15T14:37:19Z</time>
      </trkpt>
      <trkpt lat="43.48669" lon="1.40719">
        <ele>141.360001</ele>
        <time>2013-06-15T14:37:21Z</time>
      </trkpt>
      <trkpt lat="43.48668" lon="1.40714">
        <ele>142.610001</ele>
        <time>2013-06-15T14:37:23Z</time>
      </trkpt>
      <trkpt lat="43.48667" lon="1.40712">
        <ele>141.770004</ele>
        <time>2013-06-15T14:37:43Z</time>
      </trkpt>
      <trkpt lat="43.48651" lon="1.40677">
        <ele>129.149994</ele>
        <time>2013-06-15T14:37:45Z</time>
      </trkpt>
      <trkpt lat="43.4865" lon="1.40673">
        <ele>124.639999</ele>
        <time>2013-06-15T14:37:47Z</time>
      </trkpt>
      <trkpt lat="43.48635" lon="1.40664">
        <ele>132.679993</ele>
        <time>2013-06-15T14:38:05Z</time>
      </trkpt>
      <trkpt lat="43.48633" lon="1.40667">
        <ele>132.289993</ele>
        <time>2013-06-15T14:38:09Z</time>
      </trkpt>
      <trkpt lat="43.486" lon="1.4067">
        <ele>144.889999</ele>
        <time>2013-06-15T14:40:02Z</time>
      </trkpt>
      <trkpt lat="43.48611" lon="1.40662">
        <ele>143.669998</ele>
        <time>2013-06-15T14:40:09Z</time>
      </trkpt>
      <trkpt lat="43.48615" lon="1.40661">
        <ele>142.770004</ele>
        <time>2013-06-15T14:40:11Z</time>
      </trkpt>
      <trkpt lat="43.4862" lon="1.40659">
        <ele>143.330002</ele>
        <time>2013-06-15T14:40:13Z</time>
      </trkpt>
      <trkpt lat="43.48613" lon="1.40661">
        <ele>142.349991</ele>
        <time>2013-06-15T14:40:15Z</time>
      </trkpt>
      <trkpt lat="43.48612" lon="1.40661">
        <ele>142.279999</ele>
        <time>2013-06-15T14:40:31Z</time>
      </trkpt>
      <trkpt lat="43.48613" lon="1.40638">
        <ele>142.330002</ele>
        <time>2013-06-15T14:40:33Z</time>
      </trkpt>
      <trkpt lat="43.4861" lon="1.40635">
        <ele>139.020004</ele>
        <time>2013-06-15T14:40:35Z</time>
      </trkpt>
      <trkpt lat="43.48609" lon="1.40632">
        <ele>140.259995</ele>
        <time>2013-06-15T14:40:37Z</time>
      </trkpt>
      <trkpt lat="43.48594" lon="1.40605">
        <ele>147.690002</ele>
        <time>2013-06-15T14:40:52Z</time>
      </trkpt>
      <trkpt lat="43.48591" lon="1.40605">
        <ele>146.779999</ele>
        <time>2013-06-15T14:40:54Z</time>
      </trkpt>
      <trkpt lat="43.48588" lon="1.40606">
        <ele>144.48999</ele>
        <time>2013-06-15T14:40:56Z</time>
      </trkpt>
      <trkpt lat="43.48584" lon="1.40605">
        <ele>142.440002</ele>
        <time>2013-06-15T14:41:00Z</time>
      </trkpt>
      <trkpt lat="43.48562" lon="1.40577">
        <ele>143.099991</ele>
        <time>2013-06-15T14:41:18Z</time>
      </trkpt>
      <trkpt lat="43.48558" lon="1.40576">
        <ele>140.699997</ele>
        <time>2013-06-15T14:41:20Z</time>
      </trkpt>
      <trkpt lat="43.48543" lon="1.40579">
        <ele>142.639999</ele>
        <time>2013-06-15T14:41:28Z</time>
      </trkpt>
      <trkpt lat="43.4854" lon="1.40578">
        <ele>142.080002</ele>
        <time>2013-06-15T14:41:30Z</time>
      </trkpt>
      <trkpt lat="43.48538" lon="1.40579">
        <ele>142.229996</ele>
        <time>2013-06-15T14:41:32Z</time>
      </trkpt>
      <trkpt lat="43.48522" lon="1.40577">
        <ele>143.959991</ele>
        <time>2013-06-15T14:41:34Z</time>
      </trkpt>
      <trkpt lat="43.48517" lon="1.40575">
        <ele>145.800003</ele>
        <time>2013-06-15T14:41:36Z</time>
      </trkpt>
      <trkpt lat="43.48513" lon="1.40578">
        <ele>146.699997</ele>
        <time>2013-06-15T14:41:40Z</time>
      </trkpt>
      <trkpt lat="43.48509" lon="1.40582">
        <ele>147.020004</ele>
        <time>2013-06-15T14:41:44Z</time>
      </trkpt>
      <trkpt lat="43.48506" lon="1.40582">
        <ele>147.169998</ele>
        <time>2013-06-15T14:41:45Z</time>
      </trkpt>
      <trkpt lat="43.48504" lon="1.40581">
        <ele>146.970001</ele>
        <time>2013-06-15T14:41:47Z</time>
      </trkpt>
      <trkpt lat="43.485" lon="1.40585">
        <ele>145.410004</ele>
        <time>2013-06-15T14:41:51Z</time>
      </trkpt>
      <trkpt lat="43.48498" lon="1.40588">
        <ele>145.470001</ele>
        <time>2013-06-15T14:41:54Z</time>
      </trkpt>
      <trkpt lat="43.48497" lon="1.40592">
        <ele>146.089996</ele>
        <time>2013-06-15T14:41:55Z</time>
      </trkpt>
      <trkpt lat="43.48492" lon="1.40596">
        <ele>145.080002</ele>
        <time>2013-06-15T14:42:00Z</time>
      </trkpt>
      <trkpt lat="43.48489" lon="1.40601">
        <ele>144.979996</ele>
        <time>2013-06-15T14:42:02Z</time>
      </trkpt>
      <trkpt lat="43.48478" lon="1.40613">
        <ele>145.259995</ele>
        <time>2013-06-15T14:42:10Z</time>
      </trkpt>
      <trkpt lat="43.48469" lon="1.40615">
        <ele>147.259995</ele>
        <time>2013-06-15T14:42:14Z</time>
      </trkpt>
      <trkpt lat="43.48466" lon="1.40618">
        <ele>147.289993</ele>
        <time>2013-06-15T14:42:16Z</time>
      </trkpt>
      <trkpt lat="43.48464" lon="1.40623">
        <ele>147.660004</ele>
        <time>2013-06-15T14:42:18Z</time>
      </trkpt>
      <trkpt lat="43.48462" lon="1.40626">
        <ele>149.300003</ele>
        <time>2013-06-15T14:42:20Z</time>
      </trkpt>
      <trkpt lat="43.48458" lon="1.40626">
        <ele>148.160004</ele>
        <time>2013-06-15T14:42:22Z</time>
      </trkpt>
      <trkpt lat="43.48456" lon="1.40627">
        <ele>147.699997</ele>
        <time>2013-06-15T14:42:24Z</time>
      </trkpt>
      <trkpt lat="43.48453" lon="1.40634">
        <ele>147.610001</ele>
        <time>2013-06-15T14:42:28Z</time>
      </trkpt>
      <trkpt lat="43.48445" lon="1.40645">
        <ele>149.139999</ele>
        <time>2013-06-15T14:42:34Z</time>
      </trkpt>
      <trkpt lat="43.48443" lon="1.40645">
        <ele>148.869995</ele>
        <time>2013-06-15T14:42:36Z</time>
      </trkpt>
      <trkpt lat="43.48441" lon="1.40645">
        <ele>148.910004</ele>
        <time>2013-06-15T14:42:37Z</time>
      </trkpt>
      <trkpt lat="43.48439" lon="1.40644">
        <ele>148.319992</ele>
        <time>2013-06-15T14:42:40Z</time>
      </trkpt>
      <trkpt lat="43.48436" lon="1.40647">
        <ele>148.349991</ele>
        <time>2013-06-15T14:42:42Z</time>
      </trkpt>
      <trkpt lat="43.48431" lon="1.40652">
        <ele>148.919998</ele>
        <time>2013-06-15T14:42:46Z</time>
      </trkpt>
      <trkpt lat="43.48427" lon="1.40658">
        <ele>149.069992</ele>
        <time>2013-06-15T14:42:50Z</time>
      </trkpt>
      <trkpt lat="43.48421" lon="1.40664">
        <ele>148.73999</ele>
        <time>2013-06-15T14:42:54Z</time>
      </trkpt>
      <trkpt lat="43.48418" lon="1.40668">
        <ele>149.62999</ele>
        <time>2013-06-15T14:42:56Z</time>
      </trkpt>
      <trkpt lat="43.48412" lon="1.40673">
        <ele>149.649994</ele>
        <time>2013-06-15T14:42:59Z</time>
      </trkpt>
      <trkpt lat="43.48408" lon="1.40676">
        <ele>145.009995</ele>
        <time>2013-06-15T14:43:02Z</time>
      </trkpt>
      <trkpt lat="43.48406" lon="1.40679">
        <ele>146.259995</ele>
        <time>2013-06-15T14:43:04Z</time>
      </trkpt>
      <trkpt lat="43.48404" lon="1.4068">
        <ele>146.470001</ele>
        <time>2013-06-15T14:43:06Z</time>
      </trkpt>
      <trkpt lat="43.48403" lon="1.40682">
        <ele>146.589996</ele>
        <time>2013-06-15T14:43:08Z</time>
      </trkpt>
      <trkpt lat="43.48402" lon="1.40686">
        <ele>148.12999</ele>
        <time>2013-06-15T14:43:10Z</time>
      </trkpt>
      <trkpt lat="43.48397" lon="1.40694">
        <ele>147.789993</ele>
        <time>2013-06-15T14:43:14Z</time>
      </trkpt>
      <trkpt lat="43.48395" lon="1.40696">
        <ele>147.809998</ele>
        <time>2013-06-15T14:43:16Z</time>
      </trkpt>
      <trkpt lat="43.48392" lon="1.40698">
        <ele>146.709991</ele>
        <time>2013-06-15T14:43:18Z</time>
      </trkpt>
      <trkpt lat="43.48389" lon="1.407">
        <ele>147.160004</ele>
        <time>2013-06-15T14:43:20Z</time>
      </trkpt>
      <trkpt lat="43.48387" lon="1.40703">
        <ele>146.599991</ele>
        <time>2013-06-15T14:43:22Z</time>
      </trkpt>
      <trkpt lat="43.48386" lon="1.40706">
        <ele>147.520004</ele>
        <time>2013-06-15T14:43:24Z</time>
      </trkpt>
      <trkpt lat="43.48386" lon="1.40707">
        <ele>147.720001</ele>
        <time>2013-06-15T14:43:26Z</time>
      </trkpt>
      <trkpt lat="43.48371" lon="1.40727">
        <ele>149.259995</ele>
        <time>2013-06-15T14:43:40Z</time>
      </trkpt>
      <trkpt lat="43.48369" lon="1.40731">
        <ele>151.729996</ele>
        <time>2013-06-15T14:43:42Z</time>
      </trkpt>
      <trkpt lat="43.48367" lon="1.40734">
        <ele>151.849991</ele>
        <time>2013-06-15T14:43:44Z</time>
      </trkpt>
      <trkpt lat="43.48366" lon="1.40738">
        <ele>152.229996</ele>
        <time>2013-06-15T14:43:46Z</time>
      </trkpt>
      <trkpt lat="43.48363" lon="1.40743">
        <ele>152.87999</ele>
        <time>2013-06-15T14:43:50Z</time>
      </trkpt>
      <trkpt lat="43.48362" lon="1.40748">
        <ele>154.779999</ele>
        <time>2013-06-15T14:43:52Z</time>
      </trkpt>
      <trkpt lat="43.48361" lon="1.40753">
        <ele>154.699997</ele>
        <time>2013-06-15T14:43:54Z</time>
      </trkpt>
      <trkpt lat="43.48359" lon="1.40756">
        <ele>154.830002</ele>
        <time>2013-06-15T14:43:56Z</time>
      </trkpt>
      <trkpt lat="43.48351" lon="1.4076">
        <ele>153.62999</ele>
        <time>2013-06-15T14:44:00Z</time>
      </trkpt>
      <trkpt lat="43.48348" lon="1.40764">
        <ele>153.599991</ele>
        <time>2013-06-15T14:44:02Z</time>
      </trkpt>
      <trkpt lat="43.48346" lon="1.40773">
        <ele>153.599991</ele>
        <time>2013-06-15T14:44:06Z</time>
      </trkpt>
      <trkpt lat="43.48344" lon="1.40777">
        <ele>153.830002</ele>
        <time>2013-06-15T14:44:08Z</time>
      </trkpt>
      <trkpt lat="43.48337" lon="1.40796">
        <ele>152.979996</ele>
        <time>2013-06-15T14:44:14Z</time>
      </trkpt>
      <trkpt lat="43.48333" lon="1.4081">
        <ele>155.970001</ele>
        <time>2013-06-15T14:44:19Z</time>
      </trkpt>
      <trkpt lat="43.48333" lon="1.40811">
        <ele>152.87999</ele>
        <time>2013-06-15T14:44:21Z</time>
      </trkpt>
      <trkpt lat="43.48333" lon="1.40815">
        <ele>154.429993</ele>
        <time>2013-06-15T14:44:23Z</time>
      </trkpt>
      <trkpt lat="43.48332" lon="1.40815">
        <ele>151.75</ele>
        <time>2013-06-15T14:44:25Z</time>
      </trkpt>
      <trkpt lat="43.48328" lon="1.40817">
        <ele>150.919998</ele>
        <time>2013-06-15T14:44:29Z</time>
      </trkpt>
      <trkpt lat="43.48325" lon="1.40816">
        <ele>150.039993</ele>
        <time>2013-06-15T14:44:33Z</time>
      </trkpt>
      <trkpt lat="43.48318" lon="1.40818">
        <ele>152.869995</ele>
        <time>2013-06-15T14:44:37Z</time>
      </trkpt>
      <trkpt lat="43.48315" lon="1.4082">
        <ele>152.399994</ele>
        <time>2013-06-15T14:44:39Z</time>
      </trkpt>
      <trkpt lat="43.48313" lon="1.40829">
        <ele>150.139999</ele>
        <time>2013-06-15T14:44:43Z</time>
      </trkpt>
      <trkpt lat="43.48312" lon="1.40841">
        <ele>147.149994</ele>
        <time>2013-06-15T14:44:47Z</time>
      </trkpt>
      <trkpt lat="43.48308" lon="1.40842">
        <ele>148.429993</ele>
        <time>2013-06-15T14:44:49Z</time>
      </trkpt>
      <trkpt lat="43.48302" lon="1.40849">
        <ele>148.699997</ele>
        <time>2013-06-15T14:44:53Z</time>
      </trkpt>
      <trkpt lat="43.48299" lon="1.40853">
        <ele>149.959991</ele>
        <time>2013-06-15T14:44:55Z</time>
      </trkpt>
      <trkpt lat="43.48298" lon="1.40857">
        <ele>150.779999</ele>
        <time>2013-06-15T14:44:57Z</time>
      </trkpt>
      <trkpt lat="43.48294" lon="1.40866">
        <ele>150.479996</ele>
        <time>2013-06-15T14:45:01Z</time>
      </trkpt>
      <trkpt lat="43.48293" lon="1.4087">
        <ele>150.940002</ele>
        <time>2013-06-15T14:45:03Z</time>
      </trkpt>
      <trkpt lat="43.4829" lon="1.40873">
        <ele>151.399994</ele>
        <time>2013-06-15T14:45:05Z</time>
      </trkpt>
      <trkpt lat="43.48282" lon="1.40877">
        <ele>149.699997</ele>
        <time>2013-06-15T14:45:09Z</time>
      </trkpt>
      <trkpt lat="43.48279" lon="1.40882">
        <ele>146.679993</ele>
        <time>2013-06-15T14:45:13Z</time>
      </trkpt>
      <trkpt lat="43.48277" lon="1.40894">
        <ele>151.259995</ele>
        <time>2013-06-15T14:45:17Z</time>
      </trkpt>
      <trkpt lat="43.48274" lon="1.409">
        <ele>152.649994</ele>
        <time>2013-06-15T14:45:21Z</time>
      </trkpt>
      <trkpt lat="43.48274" lon="1.4091">
        <ele>154.289993</ele>
        <time>2013-06-15T14:45:25Z</time>
      </trkpt>
      <trkpt lat="43.48273" lon="1.40915">
        <ele>154.519989</ele>
        <time>2013-06-15T14:45:27Z</time>
      </trkpt>
      <trkpt lat="43.48269" lon="1.40922">
        <ele>154.339996</ele>
        <time>2013-06-15T14:45:31Z</time>
      </trkpt>
      <trkpt lat="43.48266" lon="1.40925">
        <ele>155.599991</ele>
        <time>2013-06-15T14:45:33Z</time>
      </trkpt>
      <trkpt lat="43.48265" lon="1.40928">
        <ele>154.819992</ele>
        <time>2013-06-15T14:45:35Z</time>
      </trkpt>
      <trkpt lat="43.48266" lon="1.40931">
        <ele>151.660004</ele>
        <time>2013-06-15T14:45:37Z</time>
      </trkpt>
      <trkpt lat="43.48266" lon="1.40935">
        <ele>152.369995</ele>
        <time>2013-06-15T14:45:39Z</time>
      </trkpt>
      <trkpt lat="43.48264" lon="1.40937">
        <ele>151.559998</ele>
        <time>2013-06-15T14:45:41Z</time>
      </trkpt>
      <trkpt lat="43.48263" lon="1.40943">
        <ele>149.229996</ele>
        <time>2013-06-15T14:45:45Z</time>
      </trkpt>
      <trkpt lat="43.48264" lon="1.40947">
        <ele>148.319992</ele>
        <time>2013-06-15T14:45:47Z</time>
      </trkpt>
      <trkpt lat="43.48263" lon="1.4095">
        <ele>148.419998</ele>
        <time>2013-06-15T14:45:49Z</time>
      </trkpt>
      <trkpt lat="43.48259" lon="1.40957">
        <ele>148.98999</ele>
        <time>2013-06-15T14:45:53Z</time>
      </trkpt>
      <trkpt lat="43.48256" lon="1.4096">
        <ele>148.419998</ele>
        <time>2013-06-15T14:45:55Z</time>
      </trkpt>
      <trkpt lat="43.48252" lon="1.40962">
        <ele>150.819992</ele>
        <time>2013-06-15T14:45:57Z</time>
      </trkpt>
      <trkpt lat="43.4825" lon="1.40965">
        <ele>150.910004</ele>
        <time>2013-06-15T14:45:59Z</time>
      </trkpt>
      <trkpt lat="43.48247" lon="1.40969">
        <ele>152.050003</ele>
        <time>2013-06-15T14:46:13Z</time>
      </trkpt>
      <trkpt lat="43.48235" lon="1.40995">
        <ele>153.869995</ele>
        <time>2013-06-15T14:46:15Z</time>
      </trkpt>
      <trkpt lat="43.48226" lon="1.41006">
        <ele>151.929993</ele>
        <time>2013-06-15T14:46:21Z</time>
      </trkpt>
      <trkpt lat="43.48224" lon="1.41011">
        <ele>150.869995</ele>
        <time>2013-06-15T14:46:23Z</time>
      </trkpt>
      <trkpt lat="43.48223" lon="1.41016">
        <ele>150.940002</ele>
        <time>2013-06-15T14:46:25Z</time>
      </trkpt>
      <trkpt lat="43.48212" lon="1.41036">
        <ele>148.569992</ele>
        <time>2013-06-15T14:46:35Z</time>
      </trkpt>
      <trkpt lat="43.4821" lon="1.41038">
        <ele>149.039993</ele>
        <time>2013-06-15T14:46:37Z</time>
      </trkpt>
      <trkpt lat="43.48208" lon="1.41043">
        <ele>149.679993</ele>
        <time>2013-06-15T14:46:39Z</time>
      </trkpt>
      <trkpt lat="43.48206" lon="1.4105">
        <ele>149.720001</ele>
        <time>2013-06-15T14:46:41Z</time>
      </trkpt>
      <trkpt lat="43.48207" lon="1.41055">
        <ele>150.959991</ele>
        <time>2013-06-15T14:46:43Z</time>
      </trkpt>
      <trkpt lat="43.48209" lon="1.41059">
        <ele>151.929993</ele>
        <time>2013-06-15T14:46:45Z</time>
      </trkpt>
      <trkpt lat="43.48208" lon="1.41069">
        <ele>152.220001</ele>
        <time>2013-06-15T14:46:49Z</time>
      </trkpt>
      <trkpt lat="43.48207" lon="1.41073">
        <ele>152.559998</ele>
        <time>2013-06-15T14:46:51Z</time>
      </trkpt>
      <trkpt lat="43.48206" lon="1.41075">
        <ele>153.300003</ele>
        <time>2013-06-15T14:46:52Z</time>
      </trkpt>
      <trkpt lat="43.48201" lon="1.41077">
        <ele>151.37999</ele>
        <time>2013-06-15T14:46:54Z</time>
      </trkpt>
      <trkpt lat="43.48201" lon="1.41092">
        <ele>155.580002</ele>
        <time>2013-06-15T14:46:58Z</time>
      </trkpt>
      <trkpt lat="43.48192" lon="1.41101">
        <ele>157.62999</ele>
        <time>2013-06-15T14:47:08Z</time>
      </trkpt>
      <trkpt lat="43.48191" lon="1.41107">
        <ele>159.809998</ele>
        <time>2013-06-15T14:47:10Z</time>
      </trkpt>
      <trkpt lat="43.48188" lon="1.41112">
        <ele>159.48999</ele>
        <time>2013-06-15T14:47:12Z</time>
      </trkpt>
      <trkpt lat="43.48185" lon="1.41119">
        <ele>159.759995</ele>
        <time>2013-06-15T14:47:14Z</time>
      </trkpt>
      <trkpt lat="43.48182" lon="1.41122">
        <ele>161.389999</ele>
        <time>2013-06-15T14:47:16Z</time>
      </trkpt>
      <trkpt lat="43.48179" lon="1.41122">
        <ele>161.37999</ele>
        <time>2013-06-15T14:47:18Z</time>
      </trkpt>
      <trkpt lat="43.48177" lon="1.41125">
        <ele>162.37999</ele>
        <time>2013-06-15T14:47:20Z</time>
      </trkpt>
      <trkpt lat="43.48177" lon="1.41127">
        <ele>162.429993</ele>
        <time>2013-06-15T14:47:22Z</time>
      </trkpt>
      <trkpt lat="43.48169" lon="1.41141">
        <ele>161.860001</ele>
        <time>2013-06-15T14:47:27Z</time>
      </trkpt>
      <trkpt lat="43.48162" lon="1.41143">
        <ele>159.559998</ele>
        <time>2013-06-15T14:47:29Z</time>
      </trkpt>
      <trkpt lat="43.48161" lon="1.41151">
        <ele>158.830002</ele>
        <time>2013-06-15T14:47:33Z</time>
      </trkpt>
      <trkpt lat="43.48156" lon="1.41164">
        <ele>159</ele>
        <time>2013-06-15T14:47:41Z</time>
      </trkpt>
      <trkpt lat="43.48147" lon="1.41175">
        <ele>155.229996</ele>
        <time>2013-06-15T14:47:47Z</time>
      </trkpt>
      <trkpt lat="43.48143" lon="1.4118">
        <ele>153.440002</ele>
        <time>2013-06-15T14:47:51Z</time>
      </trkpt>
      <trkpt lat="43.4814" lon="1.41183">
        <ele>151.009995</ele>
        <time>2013-06-15T14:47:53Z</time>
      </trkpt>
      <trkpt lat="43.48136" lon="1.41188">
        <ele>147.860001</ele>
        <time>2013-06-15T14:47:57Z</time>
      </trkpt>
      <trkpt lat="43.48135" lon="1.41191">
        <ele>146.539993</ele>
        <time>2013-06-15T14:47:59Z</time>
      </trkpt>
      <trkpt lat="43.48134" lon="1.41198">
        <ele>145.139999</ele>
        <time>2013-06-15T14:48:03Z</time>
      </trkpt>
      <trkpt lat="43.48133" lon="1.41202">
        <ele>144.839996</ele>
        <time>2013-06-15T14:48:05Z</time>
      </trkpt>
      <trkpt lat="43.48123" lon="1.41217">
        <ele>151.050003</ele>
        <time>2013-06-15T14:48:11Z</time>
      </trkpt>
      <trkpt lat="43.48119" lon="1.41221">
        <ele>153.589996</ele>
        <time>2013-06-15T14:48:13Z</time>
      </trkpt>
      <trkpt lat="43.48114" lon="1.41227">
        <ele>155.209991</ele>
        <time>2013-06-15T14:48:17Z</time>
      </trkpt>
      <trkpt lat="43.48105" lon="1.41238">
        <ele>154.819992</ele>
        <time>2013-06-15T14:48:25Z</time>
      </trkpt>
      <trkpt lat="43.48097" lon="1.41245">
        <ele>155.800003</ele>
        <time>2013-06-15T14:48:30Z</time>
      </trkpt>
      <trkpt lat="43.48095" lon="1.4125">
        <ele>155.970001</ele>
        <time>2013-06-15T14:48:32Z</time>
      </trkpt>
      <trkpt lat="43.48092" lon="1.41258">
        <ele>157.459991</ele>
        <time>2013-06-15T14:48:36Z</time>
      </trkpt>
      <trkpt lat="43.48089" lon="1.4126">
        <ele>156.160004</ele>
        <time>2013-06-15T14:48:38Z</time>
      </trkpt>
      <trkpt lat="43.48084" lon="1.41267">
        <ele>155.550003</ele>
        <time>2013-06-15T14:48:42Z</time>
      </trkpt>
      <trkpt lat="43.48081" lon="1.41269">
        <ele>155.399994</ele>
        <time>2013-06-15T14:48:44Z</time>
      </trkpt>
      <trkpt lat="43.48077" lon="1.41276">
        <ele>155.019989</ele>
        <time>2013-06-15T14:48:48Z</time>
      </trkpt>
      <trkpt lat="43.48076" lon="1.4128">
        <ele>154.139999</ele>
        <time>2013-06-15T14:48:49Z</time>
      </trkpt>
      <trkpt lat="43.48073" lon="1.41285">
        <ele>154.190002</ele>
        <time>2013-06-15T14:48:51Z</time>
      </trkpt>
      <trkpt lat="43.48054" lon="1.41316">
        <ele>152.660004</ele>
        <time>2013-06-15T14:49:06Z</time>
      </trkpt>
      <trkpt lat="43.4805" lon="1.41324">
        <ele>152.660004</ele>
        <time>2013-06-15T14:49:10Z</time>
      </trkpt>
      <trkpt lat="43.48047" lon="1.41324">
        <ele>148.179993</ele>
        <time>2013-06-15T14:49:12Z</time>
      </trkpt>
      <trkpt lat="43.48043" lon="1.4133">
        <ele>146.87999</ele>
        <time>2013-06-15T14:49:16Z</time>
      </trkpt>
      <trkpt lat="43.48038" lon="1.41335">
        <ele>149.690002</ele>
        <time>2013-06-15T14:49:20Z</time>
      </trkpt>
      <trkpt lat="43.48034" lon="1.4134">
        <ele>151.759995</ele>
        <time>2013-06-15T14:49:24Z</time>
      </trkpt>
      <trkpt lat="43.48023" lon="1.4135">
        <ele>154.479996</ele>
        <time>2013-06-15T14:49:30Z</time>
      </trkpt>
      <trkpt lat="43.48019" lon="1.41355">
        <ele>151.889999</ele>
        <time>2013-06-15T14:49:36Z</time>
      </trkpt>
      <trkpt lat="43.48013" lon="1.41367">
        <ele>154.410004</ele>
        <time>2013-06-15T14:49:38Z</time>
      </trkpt>
      <trkpt lat="43.48013" lon="1.41369">
        <ele>154.679993</ele>
        <time>2013-06-15T14:49:44Z</time>
      </trkpt>
      <trkpt lat="43.48008" lon="1.41372">
        <ele>154.019989</ele>
        <time>2013-06-15T14:49:46Z</time>
      </trkpt>
      <trkpt lat="43.48002" lon="1.41378">
        <ele>153.899994</ele>
        <time>2013-06-15T14:49:50Z</time>
      </trkpt>
      <trkpt lat="43.48" lon="1.41382">
        <ele>149.589996</ele>
        <time>2013-06-15T14:49:53Z</time>
      </trkpt>
      <trkpt lat="43.47997" lon="1.41384">
        <ele>148.619995</ele>
        <time>2013-06-15T14:49:56Z</time>
      </trkpt>
      <trkpt lat="43.47965" lon="1.41421">
        <ele>152.889999</ele>
        <time>2013-06-15T14:50:16Z</time>
      </trkpt>
      <trkpt lat="43.47961" lon="1.41424">
        <ele>153.889999</ele>
        <time>2013-06-15T14:50:18Z</time>
      </trkpt>
      <trkpt lat="43.4796" lon="1.41427">
        <ele>150.830002</ele>
        <time>2013-06-15T14:50:20Z</time>
      </trkpt>
      <trkpt lat="43.47959" lon="1.41428">
        <ele>148.809998</ele>
        <time>2013-06-15T14:50:22Z</time>
      </trkpt>
      <trkpt lat="43.47959" lon="1.41433">
        <ele>146.479996</ele>
        <time>2013-06-15T14:50:26Z</time>
      </trkpt>
      <trkpt lat="43.47958" lon="1.41439">
        <ele>146.209991</ele>
        <time>2013-06-15T14:50:30Z</time>
      </trkpt>
      <trkpt lat="43.47953" lon="1.41453">
        <ele>145.029999</ele>
        <time>2013-06-15T14:50:36Z</time>
      </trkpt>
      <trkpt lat="43.47948" lon="1.41459">
        <ele>145.660004</ele>
        <time>2013-06-15T14:50:40Z</time>
      </trkpt>
      <trkpt lat="43.47945" lon="1.41468">
        <ele>147.110001</ele>
        <time>2013-06-15T14:50:43Z</time>
      </trkpt>
      <trkpt lat="43.47939" lon="1.41475">
        <ele>148.349991</ele>
        <time>2013-06-15T14:50:48Z</time>
      </trkpt>
      <trkpt lat="43.47935" lon="1.41479">
        <ele>150.12999</ele>
        <time>2013-06-15T14:50:50Z</time>
      </trkpt>
      <trkpt lat="43.4793" lon="1.41488">
        <ele>149.389999</ele>
        <time>2013-06-15T14:50:54Z</time>
      </trkpt>
      <trkpt lat="43.47925" lon="1.41493">
        <ele>153.479996</ele>
        <time>2013-06-15T14:50:55Z</time>
      </trkpt>
      <trkpt lat="43.47917" lon="1.41496">
        <ele>152.169998</ele>
        <time>2013-06-15T14:50:58Z</time>
      </trkpt>
      <trkpt lat="43.47908" lon="1.41503">
        <ele>153.75</ele>
        <time>2013-06-15T14:51:00Z</time>
      </trkpt>
      <trkpt lat="43.47902" lon="1.41511">
        <ele>156.610001</ele>
        <time>2013-06-15T14:51:04Z</time>
      </trkpt>
      <trkpt lat="43.47899" lon="1.41513">
        <ele>155.869995</ele>
        <time>2013-06-15T14:51:06Z</time>
      </trkpt>
      <trkpt lat="43.4789" lon="1.41524">
        <ele>155.25</ele>
        <time>2013-06-15T14:51:14Z</time>
      </trkpt>
      <trkpt lat="43.47886" lon="1.41528">
        <ele>156.220001</ele>
        <time>2013-06-15T14:51:16Z</time>
      </trkpt>
      <trkpt lat="43.47881" lon="1.41534">
        <ele>154.199997</ele>
        <time>2013-06-15T14:51:20Z</time>
      </trkpt>
      <trkpt lat="43.47879" lon="1.41539">
        <ele>154.649994</ele>
        <time>2013-06-15T14:51:22Z</time>
      </trkpt>
      <trkpt lat="43.47875" lon="1.41542">
        <ele>155.059998</ele>
        <time>2013-06-15T14:51:24Z</time>
      </trkpt>
      <trkpt lat="43.4787" lon="1.41543">
        <ele>157.919998</ele>
        <time>2013-06-15T14:51:26Z</time>
      </trkpt>
      <trkpt lat="43.47868" lon="1.41547">
        <ele>155.809998</ele>
        <time>2013-06-15T14:51:28Z</time>
      </trkpt>
      <trkpt lat="43.47858" lon="1.41562">
        <ele>157.179993</ele>
        <time>2013-06-15T14:51:38Z</time>
      </trkpt>
      <trkpt lat="43.47856" lon="1.41565">
        <ele>157.139999</ele>
        <time>2013-06-15T14:51:40Z</time>
      </trkpt>
      <trkpt lat="43.47852" lon="1.4157">
        <ele>156.479996</ele>
        <time>2013-06-15T14:51:42Z</time>
      </trkpt>
      <trkpt lat="43.4785" lon="1.41577">
        <ele>155.12999</ele>
        <time>2013-06-15T14:51:46Z</time>
      </trkpt>
      <trkpt lat="43.47847" lon="1.41582">
        <ele>156.910004</ele>
        <time>2013-06-15T14:51:48Z</time>
      </trkpt>
      <trkpt lat="43.47842" lon="1.4159">
        <ele>157.119995</ele>
        <time>2013-06-15T14:51:52Z</time>
      </trkpt>
      <trkpt lat="43.47841" lon="1.41593">
        <ele>156.919998</ele>
        <time>2013-06-15T14:51:54Z</time>
      </trkpt>
      <trkpt lat="43.4784" lon="1.41596">
        <ele>157.009995</ele>
        <time>2013-06-15T14:51:56Z</time>
      </trkpt>
      <trkpt lat="43.47837" lon="1.41599">
        <ele>157.309998</ele>
        <time>2013-06-15T14:51:57Z</time>
      </trkpt>
      <trkpt lat="43.47837" lon="1.41602">
        <ele>157.449997</ele>
        <time>2013-06-15T14:51:59Z</time>
      </trkpt>
      <trkpt lat="43.47833" lon="1.41608">
        <ele>157.619995</ele>
        <time>2013-06-15T14:52:01Z</time>
      </trkpt>
      <trkpt lat="43.47829" lon="1.41612">
        <ele>156.550003</ele>
        <time>2013-06-15T14:52:03Z</time>
      </trkpt>
      <trkpt lat="43.47829" lon="1.41614">
        <ele>155.729996</ele>
        <time>2013-06-15T14:52:05Z</time>
      </trkpt>
      <trkpt lat="43.47823" lon="1.41626">
        <ele>154.149994</ele>
        <time>2013-06-15T14:52:11Z</time>
      </trkpt>
      <trkpt lat="43.4782" lon="1.41631">
        <ele>154.37999</ele>
        <time>2013-06-15T14:52:15Z</time>
      </trkpt>
      <trkpt lat="43.47818" lon="1.41636">
        <ele>154.360001</ele>
        <time>2013-06-15T14:52:18Z</time>
      </trkpt>
      <trkpt lat="43.47814" lon="1.41641">
        <ele>153.12999</ele>
        <time>2013-06-15T14:52:20Z</time>
      </trkpt>
      <trkpt lat="43.4781" lon="1.41648">
        <ele>154.050003</ele>
        <time>2013-06-15T14:52:22Z</time>
      </trkpt>
      <trkpt lat="43.47803" lon="1.41655">
        <ele>154.389999</ele>
        <time>2013-06-15T14:52:26Z</time>
      </trkpt>
      <trkpt lat="43.47793" lon="1.41669">
        <ele>154.23999</ele>
        <time>2013-06-15T14:52:33Z</time>
      </trkpt>
      <trkpt lat="43.47789" lon="1.41672">
        <ele>154.910004</ele>
        <time>2013-06-15T14:52:35Z</time>
      </trkpt>
      <trkpt lat="43.47784" lon="1.4168">
        <ele>154.910004</ele>
        <time>2013-06-15T14:52:39Z</time>
      </trkpt>
      <trkpt lat="43.47782" lon="1.41683">
        <ele>154.619995</ele>
        <time>2013-06-15T14:52:41Z</time>
      </trkpt>
      <trkpt lat="43.47775" lon="1.41694">
        <ele>154.519989</ele>
        <time>2013-06-15T14:52:47Z</time>
      </trkpt>
      <trkpt lat="43.47768" lon="1.417">
        <ele>155.019989</ele>
        <time>2013-06-15T14:52:51Z</time>
      </trkpt>
      <trkpt lat="43.47765" lon="1.41704">
        <ele>155.660004</ele>
        <time>2013-06-15T14:52:53Z</time>
      </trkpt>
      <trkpt lat="43.4776" lon="1.41707">
        <ele>156.839996</ele>
        <time>2013-06-15T14:52:55Z</time>
      </trkpt>
      <trkpt lat="43.47757" lon="1.41711">
        <ele>156.98999</ele>
        <time>2013-06-15T14:52:57Z</time>
      </trkpt>
      <trkpt lat="43.47754" lon="1.41716">
        <ele>157.069992</ele>
        <time>2013-06-15T14:52:59Z</time>
      </trkpt>
      <trkpt lat="43.47753" lon="1.41719">
        <ele>157.779999</ele>
        <time>2013-06-15T14:53:00Z</time>
      </trkpt>
      <trkpt lat="43.4775" lon="1.41725">
        <ele>162</ele>
        <time>2013-06-15T14:53:03Z</time>
      </trkpt>
      <trkpt lat="43.47746" lon="1.41731">
        <ele>160.949997</ele>
        <time>2013-06-15T14:53:07Z</time>
      </trkpt>
      <trkpt lat="43.47738" lon="1.41744">
        <ele>157.179993</ele>
        <time>2013-06-15T14:53:14Z</time>
      </trkpt>
      <trkpt lat="43.47731" lon="1.41754">
        <ele>155.690002</ele>
        <time>2013-06-15T14:53:20Z</time>
      </trkpt>
      <trkpt lat="43.47725" lon="1.41766">
        <ele>157.410004</ele>
        <time>2013-06-15T14:53:26Z</time>
      </trkpt>
      <trkpt lat="43.47723" lon="1.41771">
        <ele>158.319992</ele>
        <time>2013-06-15T14:53:28Z</time>
      </trkpt>
      <trkpt lat="43.47722" lon="1.41775">
        <ele>158.919998</ele>
        <time>2013-06-15T14:53:30Z</time>
      </trkpt>
      <trkpt lat="43.47718" lon="1.41784">
        <ele>160.029999</ele>
        <time>2013-06-15T14:53:34Z</time>
      </trkpt>
      <trkpt lat="43.47714" lon="1.4179">
        <ele>161.709991</ele>
        <time>2013-06-15T14:53:36Z</time>
      </trkpt>
      <trkpt lat="43.47712" lon="1.41794">
        <ele>161.479996</ele>
        <time>2013-06-15T14:53:38Z</time>
      </trkpt>
      <trkpt lat="43.47703" lon="1.41808">
        <ele>167.709991</ele>
        <time>2013-06-15T14:53:42Z</time>
      </trkpt>
      <trkpt lat="43.47701" lon="1.41807">
        <ele>163.269989</ele>
        <time>2013-06-15T14:53:44Z</time>
      </trkpt>
      <trkpt lat="43.47699" lon="1.41808">
        <ele>160.369995</ele>
        <time>2013-06-15T14:53:46Z</time>
      </trkpt>
      <trkpt lat="43.47693" lon="1.41816">
        <ele>155.98999</ele>
        <time>2013-06-15T14:53:52Z</time>
      </trkpt>
      <trkpt lat="43.47691" lon="1.4182">
        <ele>153.979996</ele>
        <time>2013-06-15T14:53:55Z</time>
      </trkpt>
      <trkpt lat="43.47681" lon="1.41831">
        <ele>154.869995</ele>
        <time>2013-06-15T14:54:01Z</time>
      </trkpt>
      <trkpt lat="43.47677" lon="1.41838">
        <ele>155.059998</ele>
        <time>2013-06-15T14:54:05Z</time>
      </trkpt>
      <trkpt lat="43.47673" lon="1.41846">
        <ele>154.729996</ele>
        <time>2013-06-15T14:54:09Z</time>
      </trkpt>
      <trkpt lat="43.47657" lon="1.41864">
        <ele>156.639999</ele>
        <time>2013-06-15T14:54:21Z</time>
      </trkpt>
      <trkpt lat="43.47649" lon="1.41867">
        <ele>158.819992</ele>
        <time>2013-06-15T14:54:27Z</time>
      </trkpt>
      <trkpt lat="43.47647" lon="1.41871">
        <ele>159.110001</ele>
        <time>2013-06-15T14:54:29Z</time>
      </trkpt>
      <trkpt lat="43.47644" lon="1.41871">
        <ele>159.059998</ele>
        <time>2013-06-15T14:54:30Z</time>
      </trkpt>
      <trkpt lat="43.47642" lon="1.41873">
        <ele>156.580002</ele>
        <time>2013-06-15T14:54:32Z</time>
      </trkpt>
      <trkpt lat="43.47637" lon="1.41881">
        <ele>161.419998</ele>
        <time>2013-06-15T14:54:34Z</time>
      </trkpt>
      <trkpt lat="43.47633" lon="1.41885">
        <ele>162.449997</ele>
        <time>2013-06-15T14:54:36Z</time>
      </trkpt>
      <trkpt lat="43.47629" lon="1.41886">
        <ele>161.330002</ele>
        <time>2013-06-15T14:54:38Z</time>
      </trkpt>
      <trkpt lat="43.47625" lon="1.41888">
        <ele>161.839996</ele>
        <time>2013-06-15T14:54:40Z</time>
      </trkpt>
      <trkpt lat="43.47621" lon="1.41892">
        <ele>162.259995</ele>
        <time>2013-06-15T14:54:42Z</time>
      </trkpt>
      <trkpt lat="43.47618" lon="1.41896">
        <ele>162.660004</ele>
        <time>2013-06-15T14:54:44Z</time>
      </trkpt>
      <trkpt lat="43.47611" lon="1.419">
        <ele>162.429993</ele>
        <time>2013-06-15T14:54:48Z</time>
      </trkpt>
      <trkpt lat="43.47604" lon="1.41901">
        <ele>161.080002</ele>
        <time>2013-06-15T14:54:52Z</time>
      </trkpt>
      <trkpt lat="43.47596" lon="1.41906">
        <ele>162.039993</ele>
        <time>2013-06-15T14:54:56Z</time>
      </trkpt>
      <trkpt lat="43.47593" lon="1.41907">
        <ele>161.190002</ele>
        <time>2013-06-15T14:54:58Z</time>
      </trkpt>
      <trkpt lat="43.47587" lon="1.41911">
        <ele>161.459991</ele>
        <time>2013-06-15T14:55:02Z</time>
      </trkpt>
      <trkpt lat="43.47578" lon="1.41921">
        <ele>163.98999</ele>
        <time>2013-06-15T14:55:07Z</time>
      </trkpt>
      <trkpt lat="43.47574" lon="1.41924">
        <ele>164.410004</ele>
        <time>2013-06-15T14:55:09Z</time>
      </trkpt>
      <trkpt lat="43.4757" lon="1.41926">
        <ele>163.449997</ele>
        <time>2013-06-15T14:55:11Z</time>
      </trkpt>
      <trkpt lat="43.47567" lon="1.41929">
        <ele>163.470001</ele>
        <time>2013-06-15T14:55:13Z</time>
      </trkpt>
      <trkpt lat="43.47559" lon="1.41933">
        <ele>162.059998</ele>
        <time>2013-06-15T14:55:17Z</time>
      </trkpt>
      <trkpt lat="43.47559" lon="1.41938">
        <ele>159.849991</ele>
        <time>2013-06-15T14:55:19Z</time>
      </trkpt>
      <trkpt lat="43.47556" lon="1.41942">
        <ele>160.559998</ele>
        <time>2013-06-15T14:55:21Z</time>
      </trkpt>
      <trkpt lat="43.47549" lon="1.41951">
        <ele>159.529999</ele>
        <time>2013-06-15T14:55:27Z</time>
      </trkpt>
      <trkpt lat="43.4755" lon="1.41963">
        <ele>163.099991</ele>
        <time>2013-06-15T14:55:37Z</time>
      </trkpt>
      <trkpt lat="43.47554" lon="1.41978">
        <ele>170.139999</ele>
        <time>2013-06-15T14:55:41Z</time>
      </trkpt>
      <trkpt lat="43.47557" lon="1.41982">
        <ele>170.319992</ele>
        <time>2013-06-15T14:55:43Z</time>
      </trkpt>
      <trkpt lat="43.47561" lon="1.41985">
        <ele>168.849991</ele>
        <time>2013-06-15T14:55:45Z</time>
      </trkpt>
      <trkpt lat="43.47566" lon="1.41985">
        <ele>165</ele>
        <time>2013-06-15T14:55:47Z</time>
      </trkpt>
      <trkpt lat="43.47569" lon="1.4199">
        <ele>164.319992</ele>
        <time>2013-06-15T14:55:49Z</time>
      </trkpt>
      <trkpt lat="43.4757" lon="1.41994">
        <ele>165.169998</ele>
        <time>2013-06-15T14:55:51Z</time>
      </trkpt>
      <trkpt lat="43.47574" lon="1.41999">
        <ele>164.149994</ele>
        <time>2013-06-15T14:55:55Z</time>
      </trkpt>
      <trkpt lat="43.47577" lon="1.42002">
        <ele>164</ele>
        <time>2013-06-15T14:55:57Z</time>
      </trkpt>
      <trkpt lat="43.47577" lon="1.42007">
        <ele>163.759995</ele>
        <time>2013-06-15T14:55:59Z</time>
      </trkpt>
      <trkpt lat="43.47577" lon="1.42011">
        <ele>163.720001</ele>
        <time>2013-06-15T14:56:01Z</time>
      </trkpt>
      <trkpt lat="43.47579" lon="1.42014">
        <ele>163.099991</ele>
        <time>2013-06-15T14:56:03Z</time>
      </trkpt>
      <trkpt lat="43.47582" lon="1.42022">
        <ele>162.289993</ele>
        <time>2013-06-15T14:56:07Z</time>
      </trkpt>
      <trkpt lat="43.47582" lon="1.42027">
        <ele>162.819992</ele>
        <time>2013-06-15T14:56:09Z</time>
      </trkpt>
      <trkpt lat="43.47584" lon="1.42036">
        <ele>163.479996</ele>
        <time>2013-06-15T14:56:12Z</time>
      </trkpt>
      <trkpt lat="43.47587" lon="1.42052">
        <ele>163.649994</ele>
        <time>2013-06-15T14:56:21Z</time>
      </trkpt>
      <trkpt lat="43.47587" lon="1.42059">
        <ele>164.360001</ele>
        <time>2013-06-15T14:56:25Z</time>
      </trkpt>
      <trkpt lat="43.47583" lon="1.42058">
        <ele>161.330002</ele>
        <time>2013-06-15T14:56:27Z</time>
      </trkpt>
      <trkpt lat="43.4758" lon="1.42059">
        <ele>156.099991</ele>
        <time>2013-06-15T14:56:29Z</time>
      </trkpt>
      <trkpt lat="43.47579" lon="1.42061">
        <ele>156.25</ele>
        <time>2013-06-15T14:56:31Z</time>
      </trkpt>
      <trkpt lat="43.47575" lon="1.42065">
        <ele>162.649994</ele>
        <time>2013-06-15T14:56:35Z</time>
      </trkpt>
      <trkpt lat="43.47574" lon="1.42068">
        <ele>166.470001</ele>
        <time>2013-06-15T14:56:37Z</time>
      </trkpt>
      <trkpt lat="43.47574" lon="1.42073">
        <ele>168.429993</ele>
        <time>2013-06-15T14:56:41Z</time>
      </trkpt>
      <trkpt lat="43.47572" lon="1.42076">
        <ele>169.970001</ele>
        <time>2013-06-15T14:56:51Z</time>
      </trkpt>
      <trkpt lat="43.47572" lon="1.42088">
        <ele>173.360001</ele>
        <time>2013-06-15T14:56:52Z</time>
      </trkpt>
      <trkpt lat="43.47568" lon="1.42092">
        <ele>172.339996</ele>
        <time>2013-06-15T14:56:54Z</time>
      </trkpt>
      <trkpt lat="43.47565" lon="1.42099">
        <ele>169.929993</ele>
        <time>2013-06-15T14:56:58Z</time>
      </trkpt>
      <trkpt lat="43.47558" lon="1.42107">
        <ele>169.610001</ele>
        <time>2013-06-15T14:57:02Z</time>
      </trkpt>
      <trkpt lat="43.47552" lon="1.42119">
        <ele>172.119995</ele>
        <time>2013-06-15T14:57:10Z</time>
      </trkpt>
      <trkpt lat="43.47548" lon="1.42121">
        <ele>172.519989</ele>
        <time>2013-06-15T14:57:12Z</time>
      </trkpt>
      <trkpt lat="43.47546" lon="1.42127">
        <ele>171.199997</ele>
        <time>2013-06-15T14:57:14Z</time>
      </trkpt>
      <trkpt lat="43.47544" lon="1.42129">
        <ele>170.669998</ele>
        <time>2013-06-15T14:57:16Z</time>
      </trkpt>
      <trkpt lat="43.47538" lon="1.42136">
        <ele>169.98999</ele>
        <time>2013-06-15T14:57:20Z</time>
      </trkpt>
      <trkpt lat="43.47535" lon="1.42145">
        <ele>171.559998</ele>
        <time>2013-06-15T14:57:25Z</time>
      </trkpt>
      <trkpt lat="43.47532" lon="1.42146">
        <ele>170.419998</ele>
        <time>2013-06-15T14:57:27Z</time>
      </trkpt>
      <trkpt lat="43.47529" lon="1.42151">
        <ele>171.25</ele>
        <time>2013-06-15T14:57:29Z</time>
      </trkpt>
      <trkpt lat="43.47527" lon="1.42154">
        <ele>171.5</ele>
        <time>2013-06-15T14:57:31Z</time>
      </trkpt>
      <trkpt lat="43.47524" lon="1.42168">
        <ele>175.809998</ele>
        <time>2013-06-15T14:57:39Z</time>
      </trkpt>
      <trkpt lat="43.47523" lon="1.42175">
        <ele>176.550003</ele>
        <time>2013-06-15T14:57:43Z</time>
      </trkpt>
      <trkpt lat="43.47521" lon="1.42182">
        <ele>176.809998</ele>
        <time>2013-06-15T14:57:47Z</time>
      </trkpt>
      <trkpt lat="43.47521" lon="1.42185">
        <ele>175.37999</ele>
        <time>2013-06-15T14:57:49Z</time>
      </trkpt>
      <trkpt lat="43.4752" lon="1.42192">
        <ele>174.940002</ele>
        <time>2013-06-15T14:57:53Z</time>
      </trkpt>
      <trkpt lat="43.47519" lon="1.42196">
        <ele>175.139999</ele>
        <time>2013-06-15T14:57:55Z</time>
      </trkpt>
      <trkpt lat="43.47519" lon="1.42204">
        <ele>176.25</ele>
        <time>2013-06-15T14:57:59Z</time>
      </trkpt>
      <trkpt lat="43.47517" lon="1.42212">
        <ele>177.769989</ele>
        <time>2013-06-15T14:58:03Z</time>
      </trkpt>
      <trkpt lat="43.47516" lon="1.42217">
        <ele>178.589996</ele>
        <time>2013-06-15T14:58:05Z</time>
      </trkpt>
      <trkpt lat="43.47515" lon="1.42226">
        <ele>179.319992</ele>
        <time>2013-06-15T14:58:09Z</time>
      </trkpt>
      <trkpt lat="43.47514" lon="1.42237">
        <ele>181.979996</ele>
        <time>2013-06-15T14:58:15Z</time>
      </trkpt>
      <trkpt lat="43.47512" lon="1.42241">
        <ele>182.699997</ele>
        <time>2013-06-15T14:58:17Z</time>
      </trkpt>
      <trkpt lat="43.47511" lon="1.42249">
        <ele>184.199997</ele>
        <time>2013-06-15T14:58:21Z</time>
      </trkpt>
      <trkpt lat="43.47511" lon="1.42252">
        <ele>185.019989</ele>
        <time>2013-06-15T14:58:23Z</time>
      </trkpt>
      <trkpt lat="43.47511" lon="1.42256">
        <ele>185.589996</ele>
        <time>2013-06-15T14:58:25Z</time>
      </trkpt>
      <trkpt lat="43.47506" lon="1.42269">
        <ele>185.659988</ele>
        <time>2013-06-15T14:58:31Z</time>
      </trkpt>
      <trkpt lat="43.47504" lon="1.42276">
        <ele>185.619995</ele>
        <time>2013-06-15T14:58:35Z</time>
      </trkpt>
      <trkpt lat="43.47504" lon="1.42279">
        <ele>185.909988</ele>
        <time>2013-06-15T14:58:37Z</time>
      </trkpt>
      <trkpt lat="43.47504" lon="1.42286">
        <ele>187.789993</ele>
        <time>2013-06-15T14:58:41Z</time>
      </trkpt>
      <trkpt lat="43.47501" lon="1.42297">
        <ele>189.470001</ele>
        <time>2013-06-15T14:58:47Z</time>
      </trkpt>
      <trkpt lat="43.475" lon="1.42304">
        <ele>189.819992</ele>
        <time>2013-06-15T14:58:51Z</time>
      </trkpt>
      <trkpt lat="43.47499" lon="1.42309">
        <ele>191.220001</ele>
        <time>2013-06-15T14:58:53Z</time>
      </trkpt>
      <trkpt lat="43.47497" lon="1.4232">
        <ele>193.019989</ele>
        <time>2013-06-15T14:58:59Z</time>
      </trkpt>
      <trkpt lat="43.47496" lon="1.42331">
        <ele>194.159988</ele>
        <time>2013-06-15T14:59:05Z</time>
      </trkpt>
      <trkpt lat="43.47495" lon="1.42339">
        <ele>195.729996</ele>
        <time>2013-06-15T14:59:09Z</time>
      </trkpt>
      <trkpt lat="43.47495" lon="1.42346">
        <ele>198.429993</ele>
        <time>2013-06-15T14:59:13Z</time>
      </trkpt>
      <trkpt lat="43.47492" lon="1.42353">
        <ele>200.679993</ele>
        <time>2013-06-15T14:59:17Z</time>
      </trkpt>
      <trkpt lat="43.47491" lon="1.4236">
        <ele>202.979996</ele>
        <time>2013-06-15T14:59:21Z</time>
      </trkpt>
      <trkpt lat="43.47488" lon="1.42368">
        <ele>204.639999</ele>
        <time>2013-06-15T14:59:25Z</time>
      </trkpt>
      <trkpt lat="43.47487" lon="1.42372">
        <ele>205.23999</ele>
        <time>2013-06-15T14:59:27Z</time>
      </trkpt>
      <trkpt lat="43.47485" lon="1.42376">
        <ele>206.349991</ele>
        <time>2013-06-15T14:59:29Z</time>
      </trkpt>
      <trkpt lat="43.47484" lon="1.42379">
        <ele>207.209991</ele>
        <time>2013-06-15T14:59:31Z</time>
      </trkpt>
      <trkpt lat="43.47483" lon="1.42385">
        <ele>207.110001</ele>
        <time>2013-06-15T14:59:37Z</time>
      </trkpt>
      <trkpt lat="43.47484" lon="1.42388">
        <ele>206.809998</ele>
        <time>2013-06-15T14:59:39Z</time>
      </trkpt>
      <trkpt lat="43.47483" lon="1.42391">
        <ele>206.809998</ele>
        <time>2013-06-15T14:59:41Z</time>
      </trkpt>
      <trkpt lat="43.47479" lon="1.42396">
        <ele>205.839996</ele>
        <time>2013-06-15T14:59:45Z</time>
      </trkpt>
      <trkpt lat="43.47479" lon="1.42402">
        <ele>205.509995</ele>
        <time>2013-06-15T14:59:49Z</time>
      </trkpt>
      <trkpt lat="43.47477" lon="1.42405">
        <ele>205.549988</ele>
        <time>2013-06-15T14:59:51Z</time>
      </trkpt>
      <trkpt lat="43.47477" lon="1.42408">
        <ele>204.599991</ele>
        <time>2013-06-15T14:59:53Z</time>
      </trkpt>
      <trkpt lat="43.47474" lon="1.42415">
        <ele>206.360001</ele>
        <time>2013-06-15T14:59:57Z</time>
      </trkpt>
      <trkpt lat="43.47472" lon="1.42422">
        <ele>207.029999</ele>
        <time>2013-06-15T15:00:01Z</time>
      </trkpt>
      <trkpt lat="43.47472" lon="1.42424">
        <ele>205.679993</ele>
        <time>2013-06-15T15:00:03Z</time>
      </trkpt>
      <trkpt lat="43.47469" lon="1.42433">
        <ele>206.009995</ele>
        <time>2013-06-15T15:00:09Z</time>
      </trkpt>
      <trkpt lat="43.47469" lon="1.42435">
        <ele>204.929993</ele>
        <time>2013-06-15T15:00:11Z</time>
      </trkpt>
      <trkpt lat="43.47469" lon="1.42444">
        <ele>206.209991</ele>
        <time>2013-06-15T15:00:15Z</time>
      </trkpt>
      <trkpt lat="43.47467" lon="1.42448">
        <ele>205.979996</ele>
        <time>2013-06-15T15:00:17Z</time>
      </trkpt>
      <trkpt lat="43.47463" lon="1.4246">
        <ele>208.839996</ele>
        <time>2013-06-15T15:00:21Z</time>
      </trkpt>
      <trkpt lat="43.47461" lon="1.42473">
        <ele>207.089996</ele>
        <time>2013-06-15T15:00:27Z</time>
      </trkpt>
      <trkpt lat="43.47459" lon="1.42478">
        <ele>207.289993</ele>
        <time>2013-06-15T15:00:29Z</time>
      </trkpt>
      <trkpt lat="43.47457" lon="1.4249">
        <ele>204.979996</ele>
        <time>2013-06-15T15:00:35Z</time>
      </trkpt>
      <trkpt lat="43.47458" lon="1.42495">
        <ele>205.580002</ele>
        <time>2013-06-15T15:00:37Z</time>
      </trkpt>
      <trkpt lat="43.47457" lon="1.42499">
        <ele>205.649994</ele>
        <time>2013-06-15T15:00:39Z</time>
      </trkpt>
      <trkpt lat="43.47456" lon="1.4251">
        <ele>206.509995</ele>
        <time>2013-06-15T15:00:45Z</time>
      </trkpt>
      <trkpt lat="43.47456" lon="1.42523">
        <ele>208.399994</ele>
        <time>2013-06-15T15:00:51Z</time>
      </trkpt>
      <trkpt lat="43.47455" lon="1.42536">
        <ele>208.809998</ele>
        <time>2013-06-15T15:00:57Z</time>
      </trkpt>
      <trkpt lat="43.4745" lon="1.4255">
        <ele>208.589996</ele>
        <time>2013-06-15T15:01:03Z</time>
      </trkpt>
      <trkpt lat="43.47451" lon="1.42561">
        <ele>210.62999</ele>
        <time>2013-06-15T15:01:07Z</time>
      </trkpt>
      <trkpt lat="43.47446" lon="1.42578">
        <ele>213.139999</ele>
        <time>2013-06-15T15:01:13Z</time>
      </trkpt>
      <trkpt lat="43.47446" lon="1.42582">
        <ele>214.159988</ele>
        <time>2013-06-15T15:01:15Z</time>
      </trkpt>
      <trkpt lat="43.47445" lon="1.42592">
        <ele>215.830002</ele>
        <time>2013-06-15T15:01:19Z</time>
      </trkpt>
      <trkpt lat="43.47447" lon="1.42596">
        <ele>217.289993</ele>
        <time>2013-06-15T15:01:21Z</time>
      </trkpt>
      <trkpt lat="43.47447" lon="1.42599">
        <ele>217.940002</ele>
        <time>2013-06-15T15:01:23Z</time>
      </trkpt>
      <trkpt lat="43.47446" lon="1.42604">
        <ele>218.899994</ele>
        <time>2013-06-15T15:01:25Z</time>
      </trkpt>
      <trkpt lat="43.47447" lon="1.42608">
        <ele>219.389999</ele>
        <time>2013-06-15T15:01:27Z</time>
      </trkpt>
      <trkpt lat="43.47452" lon="1.4262">
        <ele>221.12999</ele>
        <time>2013-06-15T15:01:33Z</time>
      </trkpt>
      <trkpt lat="43.47453" lon="1.42624">
        <ele>221.459991</ele>
        <time>2013-06-15T15:01:35Z</time>
      </trkpt>
      <trkpt lat="43.47453" lon="1.42627">
        <ele>222.029999</ele>
        <time>2013-06-15T15:01:37Z</time>
      </trkpt>
      <trkpt lat="43.47451" lon="1.42631">
        <ele>222.889999</ele>
        <time>2013-06-15T15:01:39Z</time>
      </trkpt>
      <trkpt lat="43.47448" lon="1.42633">
        <ele>223.229996</ele>
        <time>2013-06-15T15:01:41Z</time>
      </trkpt>
      <trkpt lat="43.47446" lon="1.42634">
        <ele>224.5</ele>
        <time>2013-06-15T15:01:45Z</time>
      </trkpt>
      <trkpt lat="43.47432" lon="1.42618">
        <ele>223.190002</ele>
        <time>2013-06-15T15:01:55Z</time>
      </trkpt>
      <trkpt lat="43.47426" lon="1.42613">
        <ele>221.440002</ele>
        <time>2013-06-15T15:01:59Z</time>
      </trkpt>
      <trkpt lat="43.47418" lon="1.42603">
        <ele>216.729996</ele>
        <time>2013-06-15T15:02:07Z</time>
      </trkpt>
      <trkpt lat="43.47417" lon="1.426">
        <ele>215.080002</ele>
        <time>2013-06-15T15:02:09Z</time>
      </trkpt>
      <trkpt lat="43.47415" lon="1.42599">
        <ele>213.699997</ele>
        <time>2013-06-15T15:02:15Z</time>
      </trkpt>
      <trkpt lat="43.47407" lon="1.42598">
        <ele>213.339996</ele>
        <time>2013-06-15T15:02:17Z</time>
      </trkpt>
      <trkpt lat="43.47403" lon="1.426">
        <ele>213.909988</ele>
        <time>2013-06-15T15:02:19Z</time>
      </trkpt>
      <trkpt lat="43.47398" lon="1.42606">
        <ele>215.470001</ele>
        <time>2013-06-15T15:02:23Z</time>
      </trkpt>
      <trkpt lat="43.47393" lon="1.42615">
        <ele>214.569992</ele>
        <time>2013-06-15T15:02:29Z</time>
      </trkpt>
      <trkpt lat="43.4739" lon="1.4262">
        <ele>214.069992</ele>
        <time>2013-06-15T15:02:31Z</time>
      </trkpt>
      <trkpt lat="43.47386" lon="1.42625">
        <ele>213.679993</ele>
        <time>2013-06-15T15:02:33Z</time>
      </trkpt>
      <trkpt lat="43.47384" lon="1.4263">
        <ele>214.059998</ele>
        <time>2013-06-15T15:02:35Z</time>
      </trkpt>
      <trkpt lat="43.47382" lon="1.42634">
        <ele>214.830002</ele>
        <time>2013-06-15T15:02:37Z</time>
      </trkpt>
      <trkpt lat="43.47379" lon="1.4264">
        <ele>218.73999</ele>
        <time>2013-06-15T15:02:39Z</time>
      </trkpt>
      <trkpt lat="43.47377" lon="1.42644">
        <ele>220.309998</ele>
        <time>2013-06-15T15:02:41Z</time>
      </trkpt>
      <trkpt lat="43.47372" lon="1.42654">
        <ele>222.679993</ele>
        <time>2013-06-15T15:02:47Z</time>
      </trkpt>
      <trkpt lat="43.47369" lon="1.42666">
        <ele>223.970001</ele>
        <time>2013-06-15T15:02:53Z</time>
      </trkpt>
      <trkpt lat="43.47364" lon="1.42678">
        <ele>225.940002</ele>
        <time>2013-06-15T15:02:59Z</time>
      </trkpt>
      <trkpt lat="43.47357" lon="1.42689">
        <ele>228.119995</ele>
        <time>2013-06-15T15:03:05Z</time>
      </trkpt>
      <trkpt lat="43.4735" lon="1.42706">
        <ele>230.669998</ele>
        <time>2013-06-15T15:03:13Z</time>
      </trkpt>
      <trkpt lat="43.47345" lon="1.42728">
        <ele>232.789993</ele>
        <time>2013-06-15T15:03:25Z</time>
      </trkpt>
      <trkpt lat="43.47342" lon="1.42735">
        <ele>232.860001</ele>
        <time>2013-06-15T15:03:29Z</time>
      </trkpt>
      <trkpt lat="43.47341" lon="1.42738">
        <ele>232.639999</ele>
        <time>2013-06-15T15:03:31Z</time>
      </trkpt>
      <trkpt lat="43.47339" lon="1.42741">
        <ele>232.869995</ele>
        <time>2013-06-15T15:03:33Z</time>
      </trkpt>
      <trkpt lat="43.47337" lon="1.42749">
        <ele>233.779999</ele>
        <time>2013-06-15T15:03:37Z</time>
      </trkpt>
      <trkpt lat="43.47336" lon="1.42751">
        <ele>232.98999</ele>
        <time>2013-06-15T15:03:39Z</time>
      </trkpt>
      <trkpt lat="43.47332" lon="1.42759">
        <ele>234.789993</ele>
        <time>2013-06-15T15:03:43Z</time>
      </trkpt>
      <trkpt lat="43.4733" lon="1.42767">
        <ele>236.199997</ele>
        <time>2013-06-15T15:03:47Z</time>
      </trkpt>
      <trkpt lat="43.47327" lon="1.42771">
        <ele>236.699997</ele>
        <time>2013-06-15T15:03:49Z</time>
      </trkpt>
      <trkpt lat="43.47322" lon="1.42785">
        <ele>238.220001</ele>
        <time>2013-06-15T15:03:57Z</time>
      </trkpt>
      <trkpt lat="43.47321" lon="1.42791">
        <ele>238.069992</ele>
        <time>2013-06-15T15:04:01Z</time>
      </trkpt>
      <trkpt lat="43.47319" lon="1.42795">
        <ele>237.589996</ele>
        <time>2013-06-15T15:04:03Z</time>
      </trkpt>
      <trkpt lat="43.47318" lon="1.42802">
        <ele>237.619995</ele>
        <time>2013-06-15T15:04:07Z</time>
      </trkpt>
      <trkpt lat="43.47315" lon="1.42809">
        <ele>237.669998</ele>
        <time>2013-06-15T15:04:11Z</time>
      </trkpt>
      <trkpt lat="43.47314" lon="1.42813">
        <ele>236.75</ele>
        <time>2013-06-15T15:04:13Z</time>
      </trkpt>
      <trkpt lat="43.4731" lon="1.4282">
        <ele>237.669998</ele>
        <time>2013-06-15T15:04:17Z</time>
      </trkpt>
      <trkpt lat="43.47297" lon="1.42853">
        <ele>238.259995</ele>
        <time>2013-06-15T15:04:37Z</time>
      </trkpt>
      <trkpt lat="43.47297" lon="1.42857">
        <ele>238.759995</ele>
        <time>2013-06-15T15:04:39Z</time>
      </trkpt>
      <trkpt lat="43.47295" lon="1.42864">
        <ele>239.639999</ele>
        <time>2013-06-15T15:04:43Z</time>
      </trkpt>
      <trkpt lat="43.47294" lon="1.42868">
        <ele>239.459991</ele>
        <time>2013-06-15T15:04:45Z</time>
      </trkpt>
      <trkpt lat="43.47292" lon="1.42877">
        <ele>236.830002</ele>
        <time>2013-06-15T15:04:51Z</time>
      </trkpt>
      <trkpt lat="43.47287" lon="1.4289">
        <ele>238.169998</ele>
        <time>2013-06-15T15:04:59Z</time>
      </trkpt>
      <trkpt lat="43.47283" lon="1.42906">
        <ele>235.419998</ele>
        <time>2013-06-15T15:05:09Z</time>
      </trkpt>
      <trkpt lat="43.47281" lon="1.42909">
        <ele>236.029999</ele>
        <time>2013-06-15T15:05:11Z</time>
      </trkpt>
      <trkpt lat="43.47274" lon="1.42928">
        <ele>235.639999</ele>
        <time>2013-06-15T15:05:21Z</time>
      </trkpt>
      <trkpt lat="43.47274" lon="1.42933">
        <ele>235.369995</ele>
        <time>2013-06-15T15:05:23Z</time>
      </trkpt>
      <trkpt lat="43.47263" lon="1.42963">
        <ele>238.759995</ele>
        <time>2013-06-15T15:05:39Z</time>
      </trkpt>
      <trkpt lat="43.47263" lon="1.42967">
        <ele>238.669998</ele>
        <time>2013-06-15T15:05:41Z</time>
      </trkpt>
      <trkpt lat="43.47255" lon="1.42991">
        <ele>239.299988</ele>
        <time>2013-06-15T15:05:55Z</time>
      </trkpt>
      <trkpt lat="43.47249" lon="1.43005">
        <ele>239.73999</ele>
        <time>2013-06-15T15:06:03Z</time>
      </trkpt>
      <trkpt lat="43.4724" lon="1.43021">
        <ele>242.779999</ele>
        <time>2013-06-15T15:06:11Z</time>
      </trkpt>
      <trkpt lat="43.47236" lon="1.43033">
        <ele>246.37999</ele>
        <time>2013-06-15T15:06:17Z</time>
      </trkpt>
      <trkpt lat="43.47233" lon="1.4304">
        <ele>247.360001</ele>
        <time>2013-06-15T15:06:21Z</time>
      </trkpt>
      <trkpt lat="43.4723" lon="1.43044">
        <ele>249.179993</ele>
        <time>2013-06-15T15:06:23Z</time>
      </trkpt>
      <trkpt lat="43.47224" lon="1.43063">
        <ele>252.199997</ele>
        <time>2013-06-15T15:06:33Z</time>
      </trkpt>
      <trkpt lat="43.47223" lon="1.43066">
        <ele>251.799988</ele>
        <time>2013-06-15T15:06:35Z</time>
      </trkpt>
      <trkpt lat="43.47219" lon="1.43078">
        <ele>255.709991</ele>
        <time>2013-06-15T15:06:41Z</time>
      </trkpt>
      <trkpt lat="43.47217" lon="1.4309">
        <ele>256.259979</ele>
        <time>2013-06-15T15:06:47Z</time>
      </trkpt>
      <trkpt lat="43.47209" lon="1.43106">
        <ele>258.630005</ele>
        <time>2013-06-15T15:06:55Z</time>
      </trkpt>
      <trkpt lat="43.47208" lon="1.43112">
        <ele>258.529999</ele>
        <time>2013-06-15T15:06:59Z</time>
      </trkpt>
      <trkpt lat="43.47203" lon="1.43124">
        <ele>258.949982</ele>
        <time>2013-06-15T15:07:05Z</time>
      </trkpt>
      <trkpt lat="43.47199" lon="1.4313">
        <ele>258.389984</ele>
        <time>2013-06-15T15:07:09Z</time>
      </trkpt>
      <trkpt lat="43.47197" lon="1.4315">
        <ele>255.269989</ele>
        <time>2013-06-15T15:07:17Z</time>
      </trkpt>
      <trkpt lat="43.47197" lon="1.43164">
        <ele>254.209991</ele>
        <time>2013-06-15T15:07:23Z</time>
      </trkpt>
      <trkpt lat="43.47196" lon="1.43173">
        <ele>253.98999</ele>
        <time>2013-06-15T15:07:27Z</time>
      </trkpt>
      <trkpt lat="43.47199" lon="1.43185">
        <ele>253.169998</ele>
        <time>2013-06-15T15:07:33Z</time>
      </trkpt>
      <trkpt lat="43.47194" lon="1.43202">
        <ele>249.979996</ele>
        <time>2013-06-15T15:07:41Z</time>
      </trkpt>
      <trkpt lat="43.47192" lon="1.43208">
        <ele>251.349991</ele>
        <time>2013-06-15T15:07:43Z</time>
      </trkpt>
      <trkpt lat="43.47188" lon="1.43224">
        <ele>250.62999</ele>
        <time>2013-06-15T15:07:49Z</time>
      </trkpt>
      <trkpt lat="43.47185" lon="1.43242">
        <ele>248.769989</ele>
        <time>2013-06-15T15:07:57Z</time>
      </trkpt>
      <trkpt lat="43.47183" lon="1.43265">
        <ele>247.349991</ele>
        <time>2013-06-15T15:08:07Z</time>
      </trkpt>
      <trkpt lat="43.47181" lon="1.43277">
        <ele>250.610001</ele>
        <time>2013-06-15T15:08:11Z</time>
      </trkpt>
      <trkpt lat="43.47181" lon="1.43282">
        <ele>250.849991</ele>
        <time>2013-06-15T15:08:13Z</time>
      </trkpt>
      <trkpt lat="43.4718" lon="1.43286">
        <ele>250.149994</ele>
        <time>2013-06-15T15:08:15Z</time>
      </trkpt>
      <trkpt lat="43.47179" lon="1.43295">
        <ele>249.87999</ele>
        <time>2013-06-15T15:08:19Z</time>
      </trkpt>
      <trkpt lat="43.47179" lon="1.43299">
        <ele>249.080002</ele>
        <time>2013-06-15T15:08:21Z</time>
      </trkpt>
      <trkpt lat="43.47179" lon="1.43304">
        <ele>248.519989</ele>
        <time>2013-06-15T15:08:23Z</time>
      </trkpt>
      <trkpt lat="43.4718" lon="1.43312">
        <ele>248.019989</ele>
        <time>2013-06-15T15:08:27Z</time>
      </trkpt>
      <trkpt lat="43.47181" lon="1.43316">
        <ele>248.789993</ele>
        <time>2013-06-15T15:08:29Z</time>
      </trkpt>
      <trkpt lat="43.47183" lon="1.43345">
        <ele>247.939987</ele>
        <time>2013-06-15T15:08:41Z</time>
      </trkpt>
      <trkpt lat="43.47185" lon="1.43356">
        <ele>244.970001</ele>
        <time>2013-06-15T15:08:49Z</time>
      </trkpt>
      <trkpt lat="43.47185" lon="1.4336">
        <ele>244.649994</ele>
        <time>2013-06-15T15:08:51Z</time>
      </trkpt>
      <trkpt lat="43.47187" lon="1.4337">
        <ele>244.279999</ele>
        <time>2013-06-15T15:08:55Z</time>
      </trkpt>
      <trkpt lat="43.47189" lon="1.43375">
        <ele>244</ele>
        <time>2013-06-15T15:08:57Z</time>
      </trkpt>
      <trkpt lat="43.4719" lon="1.43381">
        <ele>243.830002</ele>
        <time>2013-06-15T15:08:59Z</time>
      </trkpt>
      <trkpt lat="43.47191" lon="1.43398">
        <ele>245.589996</ele>
        <time>2013-06-15T15:09:05Z</time>
      </trkpt>
      <trkpt lat="43.47194" lon="1.43401">
        <ele>244.819992</ele>
        <time>2013-06-15T15:09:07Z</time>
      </trkpt>
      <trkpt lat="43.47203" lon="1.4341">
        <ele>245.149994</ele>
        <time>2013-06-15T15:09:13Z</time>
      </trkpt>
      <trkpt lat="43.47209" lon="1.43411">
        <ele>245.330002</ele>
        <time>2013-06-15T15:09:15Z</time>
      </trkpt>
      <trkpt lat="43.47214" lon="1.43426">
        <ele>252.769989</ele>
        <time>2013-06-15T15:09:17Z</time>
      </trkpt>
      <trkpt lat="43.47215" lon="1.43429">
        <ele>255.529999</ele>
        <time>2013-06-15T15:09:19Z</time>
      </trkpt>
      <trkpt lat="43.47218" lon="1.43427">
        <ele>255.429993</ele>
        <time>2013-06-15T15:09:21Z</time>
      </trkpt>
      <trkpt lat="43.47223" lon="1.43431">
        <ele>261.299988</ele>
        <time>2013-06-15T15:09:25Z</time>
      </trkpt>
      <trkpt lat="43.47226" lon="1.4343">
        <ele>261.049988</ele>
        <time>2013-06-15T15:09:27Z</time>
      </trkpt>
      <trkpt lat="43.47227" lon="1.43431">
        <ele>261.130005</ele>
        <time>2013-06-15T15:09:29Z</time>
      </trkpt>
      <trkpt lat="43.47234" lon="1.43428">
        <ele>261.809998</ele>
        <time>2013-06-15T15:09:33Z</time>
      </trkpt>
      <trkpt lat="43.4724" lon="1.43433">
        <ele>261.759979</ele>
        <time>2013-06-15T15:09:37Z</time>
      </trkpt>
      <trkpt lat="43.47245" lon="1.43435">
        <ele>261.100006</ele>
        <time>2013-06-15T15:09:41Z</time>
      </trkpt>
      <trkpt lat="43.47255" lon="1.43427">
        <ele>257.619995</ele>
        <time>2013-06-15T15:09:45Z</time>
      </trkpt>
      <trkpt lat="43.47268" lon="1.43421">
        <ele>252.559998</ele>
        <time>2013-06-15T15:09:49Z</time>
      </trkpt>
      <trkpt lat="43.47271" lon="1.43422">
        <ele>253.279999</ele>
        <time>2013-06-15T15:09:51Z</time>
      </trkpt>
      <trkpt lat="43.47273" lon="1.43425">
        <ele>257.759979</ele>
        <time>2013-06-15T15:09:53Z</time>
      </trkpt>
      <trkpt lat="43.47277" lon="1.43427">
        <ele>259.470001</ele>
        <time>2013-06-15T15:09:57Z</time>
      </trkpt>
      <trkpt lat="43.47281" lon="1.43423">
        <ele>256.139984</ele>
        <time>2013-06-15T15:09:59Z</time>
      </trkpt>
      <trkpt lat="43.47286" lon="1.43421">
        <ele>254.729996</ele>
        <time>2013-06-15T15:10:01Z</time>
      </trkpt>
      <trkpt lat="43.4729" lon="1.43417">
        <ele>252.149994</ele>
        <time>2013-06-15T15:10:03Z</time>
      </trkpt>
      <trkpt lat="43.47297" lon="1.43414">
        <ele>249.399994</ele>
        <time>2013-06-15T15:10:07Z</time>
      </trkpt>
      <trkpt lat="43.47302" lon="1.43414">
        <ele>247.789993</ele>
        <time>2013-06-15T15:10:11Z</time>
      </trkpt>
      <trkpt lat="43.47314" lon="1.4341">
        <ele>248.099991</ele>
        <time>2013-06-15T15:10:21Z</time>
      </trkpt>
      <trkpt lat="43.47321" lon="1.43409">
        <ele>251.339996</ele>
        <time>2013-06-15T15:10:23Z</time>
      </trkpt>
      <trkpt lat="43.47326" lon="1.4341">
        <ele>252.189987</ele>
        <time>2013-06-15T15:10:25Z</time>
      </trkpt>
      <trkpt lat="43.47332" lon="1.43407">
        <ele>250.169998</ele>
        <time>2013-06-15T15:10:27Z</time>
      </trkpt>
      <trkpt lat="43.47335" lon="1.43408">
        <ele>250.019989</ele>
        <time>2013-06-15T15:10:29Z</time>
      </trkpt>
      <trkpt lat="43.47334" lon="1.43409">
        <ele>251.929993</ele>
        <time>2013-06-15T15:10:33Z</time>
      </trkpt>
      <trkpt lat="43.4734" lon="1.43409">
        <ele>253.319992</ele>
        <time>2013-06-15T15:10:37Z</time>
      </trkpt>
      <trkpt lat="43.47351" lon="1.43404">
        <ele>256.290009</ele>
        <time>2013-06-15T15:10:41Z</time>
      </trkpt>
      <trkpt lat="43.4737" lon="1.43388">
        <ele>256.040009</ele>
        <time>2013-06-15T15:10:45Z</time>
      </trkpt>
      <trkpt lat="43.47379" lon="1.43384">
        <ele>256.669983</ele>
        <time>2013-06-15T15:10:49Z</time>
      </trkpt>
      <trkpt lat="43.47379" lon="1.43389">
        <ele>256.029999</ele>
        <time>2013-06-15T15:10:51Z</time>
      </trkpt>
      <trkpt lat="43.4738" lon="1.43391">
        <ele>256.679993</ele>
        <time>2013-06-15T15:10:53Z</time>
      </trkpt>
      <trkpt lat="43.47382" lon="1.43392">
        <ele>256.839996</ele>
        <time>2013-06-15T15:10:55Z</time>
      </trkpt>
      <trkpt lat="43.47386" lon="1.43394">
        <ele>258.160004</ele>
        <time>2013-06-15T15:10:59Z</time>
      </trkpt>
      <trkpt lat="43.47388" lon="1.4339">
        <ele>259.809998</ele>
        <time>2013-06-15T15:11:03Z</time>
      </trkpt>
      <trkpt lat="43.47395" lon="1.43388">
        <ele>260.720001</ele>
        <time>2013-06-15T15:11:05Z</time>
      </trkpt>
      <trkpt lat="43.47395" lon="1.43391">
        <ele>260.630005</ele>
        <time>2013-06-15T15:11:07Z</time>
      </trkpt>
      <trkpt lat="43.47399" lon="1.43389">
        <ele>260.399994</ele>
        <time>2013-06-15T15:11:09Z</time>
      </trkpt>
      <trkpt lat="43.47405" lon="1.43386">
        <ele>260.209991</ele>
        <time>2013-06-15T15:11:11Z</time>
      </trkpt>
      <trkpt lat="43.47408" lon="1.43385">
        <ele>259.720001</ele>
        <time>2013-06-15T15:11:13Z</time>
      </trkpt>
      <trkpt lat="43.47411" lon="1.43385">
        <ele>260.029999</ele>
        <time>2013-06-15T15:11:15Z</time>
      </trkpt>
      <trkpt lat="43.47413" lon="1.43386">
        <ele>260.220001</ele>
        <time>2013-06-15T15:11:17Z</time>
      </trkpt>
      <trkpt lat="43.47418" lon="1.43382">
        <ele>260.350006</ele>
        <time>2013-06-15T15:11:19Z</time>
      </trkpt>
      <trkpt lat="43.47427" lon="1.43378">
        <ele>260.589996</ele>
        <time>2013-06-15T15:11:23Z</time>
      </trkpt>
      <trkpt lat="43.4743" lon="1.43376">
        <ele>260.609985</ele>
        <time>2013-06-15T15:11:25Z</time>
      </trkpt>
      <trkpt lat="43.47432" lon="1.43378">
        <ele>260.859985</ele>
        <time>2013-06-15T15:11:27Z</time>
      </trkpt>
      <trkpt lat="43.47435" lon="1.43383">
        <ele>261.679993</ele>
        <time>2013-06-15T15:11:29Z</time>
      </trkpt>
      <trkpt lat="43.47451" lon="1.43377">
        <ele>253.569992</ele>
        <time>2013-06-15T15:11:37Z</time>
      </trkpt>
      <trkpt lat="43.47459" lon="1.43371">
        <ele>251.220001</ele>
        <time>2013-06-15T15:11:43Z</time>
      </trkpt>
      <trkpt lat="43.47463" lon="1.4337">
        <ele>252.809998</ele>
        <time>2013-06-15T15:11:45Z</time>
      </trkpt>
      <trkpt lat="43.47469" lon="1.4337">
        <ele>253.429993</ele>
        <time>2013-06-15T15:11:49Z</time>
      </trkpt>
      <trkpt lat="43.47472" lon="1.43371">
        <ele>254.179993</ele>
        <time>2013-06-15T15:11:51Z</time>
      </trkpt>
      <trkpt lat="43.47475" lon="1.43368">
        <ele>254.009995</ele>
        <time>2013-06-15T15:11:55Z</time>
      </trkpt>
      <trkpt lat="43.47478" lon="1.43366">
        <ele>253.949997</ele>
        <time>2013-06-15T15:11:56Z</time>
      </trkpt>
      <trkpt lat="43.47479" lon="1.43367">
        <ele>254.439987</ele>
        <time>2013-06-15T15:11:58Z</time>
      </trkpt>
      <trkpt lat="43.47482" lon="1.43373">
        <ele>259.079987</ele>
        <time>2013-06-15T15:12:00Z</time>
      </trkpt>
      <trkpt lat="43.47488" lon="1.43373">
        <ele>259.269989</ele>
        <time>2013-06-15T15:12:02Z</time>
      </trkpt>
      <trkpt lat="43.47494" lon="1.43372">
        <ele>259.339996</ele>
        <time>2013-06-15T15:12:04Z</time>
      </trkpt>
      <trkpt lat="43.47503" lon="1.43373">
        <ele>259.019989</ele>
        <time>2013-06-15T15:12:08Z</time>
      </trkpt>
      <trkpt lat="43.47508" lon="1.43372">
        <ele>258.149994</ele>
        <time>2013-06-15T15:12:12Z</time>
      </trkpt>
      <trkpt lat="43.47508" lon="1.43372">
        <ele>256.269989</ele>
        <time>2013-06-15T15:12:16Z</time>
      </trkpt>
      <trkpt lat="43.47516" lon="1.43374">
        <ele>254.23999</ele>
        <time>2013-06-15T15:12:18Z</time>
      </trkpt>
      <trkpt lat="43.47522" lon="1.43373">
        <ele>251.610001</ele>
        <time>2013-06-15T15:12:20Z</time>
      </trkpt>
      <trkpt lat="43.47525" lon="1.43374">
        <ele>250.229996</ele>
        <time>2013-06-15T15:12:22Z</time>
      </trkpt>
      <trkpt lat="43.47534" lon="1.4337">
        <ele>245.639999</ele>
        <time>2013-06-15T15:12:28Z</time>
      </trkpt>
      <trkpt lat="43.47538" lon="1.43371">
        <ele>244.360001</ele>
        <time>2013-06-15T15:12:30Z</time>
      </trkpt>
      <trkpt lat="43.47544" lon="1.43372">
        <ele>246.819992</ele>
        <time>2013-06-15T15:12:32Z</time>
      </trkpt>
      <trkpt lat="43.47548" lon="1.43371">
        <ele>244.819992</ele>
        <time>2013-06-15T15:12:34Z</time>
      </trkpt>
      <trkpt lat="43.47556" lon="1.43372">
        <ele>243.769989</ele>
        <time>2013-06-15T15:12:38Z</time>
      </trkpt>
      <trkpt lat="43.47559" lon="1.43373">
        <ele>243.23999</ele>
        <time>2013-06-15T15:12:42Z</time>
      </trkpt>
      <trkpt lat="43.4757" lon="1.43379">
        <ele>249.319992</ele>
        <time>2013-06-15T15:12:46Z</time>
      </trkpt>
      <trkpt lat="43.47575" lon="1.43381">
        <ele>250.830002</ele>
        <time>2013-06-15T15:12:48Z</time>
      </trkpt>
      <trkpt lat="43.47582" lon="1.43385">
        <ele>255.73999</ele>
        <time>2013-06-15T15:12:50Z</time>
      </trkpt>
      <trkpt lat="43.47584" lon="1.43382">
        <ele>254.339996</ele>
        <time>2013-06-15T15:12:52Z</time>
      </trkpt>
      <trkpt lat="43.47587" lon="1.43365">
        <ele>246.479996</ele>
        <time>2013-06-15T15:12:56Z</time>
      </trkpt>
      <trkpt lat="43.47586" lon="1.43358">
        <ele>242.019989</ele>
        <time>2013-06-15T15:12:58Z</time>
      </trkpt>
      <trkpt lat="43.47587" lon="1.43353">
        <ele>240.149994</ele>
        <time>2013-06-15T15:13:00Z</time>
      </trkpt>
      <trkpt lat="43.47591" lon="1.43342">
        <ele>234.580002</ele>
        <time>2013-06-15T15:13:04Z</time>
      </trkpt>
      <trkpt lat="43.47595" lon="1.43339">
        <ele>232.929993</ele>
        <time>2013-06-15T15:13:08Z</time>
      </trkpt>
      <trkpt lat="43.47599" lon="1.43335">
        <ele>229</ele>
        <time>2013-06-15T15:13:12Z</time>
      </trkpt>
      <trkpt lat="43.47601" lon="1.43335">
        <ele>227.789993</ele>
        <time>2013-06-15T15:13:14Z</time>
      </trkpt>
      <trkpt lat="43.47604" lon="1.43333">
        <ele>226.529999</ele>
        <time>2013-06-15T15:13:17Z</time>
      </trkpt>
      <trkpt lat="43.47611" lon="1.43338">
        <ele>230</ele>
        <time>2013-06-15T15:13:19Z</time>
      </trkpt>
      <trkpt lat="43.47615" lon="1.43339">
        <ele>230.919998</ele>
        <time>2013-06-15T15:13:21Z</time>
      </trkpt>
      <trkpt lat="43.47628" lon="1.43333">
        <ele>231.389999</ele>
        <time>2013-06-15T15:13:25Z</time>
      </trkpt>
      <trkpt lat="43.47638" lon="1.43333">
        <ele>234.729996</ele>
        <time>2013-06-15T15:13:29Z</time>
      </trkpt>
      <trkpt lat="43.47641" lon="1.43331">
        <ele>235.189987</ele>
        <time>2013-06-15T15:13:31Z</time>
      </trkpt>
      <trkpt lat="43.47645" lon="1.43327">
        <ele>235.519989</ele>
        <time>2013-06-15T15:13:37Z</time>
      </trkpt>
      <trkpt lat="43.47647" lon="1.43326">
        <ele>235.289993</ele>
        <time>2013-06-15T15:13:38Z</time>
      </trkpt>
      <trkpt lat="43.47657" lon="1.43319">
        <ele>229.669998</ele>
        <time>2013-06-15T15:13:42Z</time>
      </trkpt>
      <trkpt lat="43.47663" lon="1.43314">
        <ele>225.330002</ele>
        <time>2013-06-15T15:13:46Z</time>
      </trkpt>
      <trkpt lat="43.47663" lon="1.43313">
        <ele>225.639999</ele>
        <time>2013-06-15T15:13:48Z</time>
      </trkpt>
      <trkpt lat="43.47664" lon="1.43313">
        <ele>225.649994</ele>
        <time>2013-06-15T15:13:50Z</time>
      </trkpt>
      <trkpt lat="43.47671" lon="1.43303">
        <ele>225.419998</ele>
        <time>2013-06-15T15:13:56Z</time>
      </trkpt>
      <trkpt lat="43.47674" lon="1.43302">
        <ele>227</ele>
        <time>2013-06-15T15:13:58Z</time>
      </trkpt>
      <trkpt lat="43.47675" lon="1.43303">
        <ele>229.449997</ele>
        <time>2013-06-15T15:14:06Z</time>
      </trkpt>
      <trkpt lat="43.47693" lon="1.43303">
        <ele>234.299988</ele>
        <time>2013-06-15T15:14:08Z</time>
      </trkpt>
      <trkpt lat="43.47699" lon="1.43304">
        <ele>231.209991</ele>
        <time>2013-06-15T15:14:12Z</time>
      </trkpt>
      <trkpt lat="43.47699" lon="1.43306">
        <ele>231.199997</ele>
        <time>2013-06-15T15:14:14Z</time>
      </trkpt>
      <trkpt lat="43.477" lon="1.43304">
        <ele>231.019989</ele>
        <time>2013-06-15T15:14:16Z</time>
      </trkpt>
      <trkpt lat="43.47704" lon="1.43303">
        <ele>230.259995</ele>
        <time>2013-06-15T15:14:18Z</time>
      </trkpt>
      <trkpt lat="43.47719" lon="1.43296">
        <ele>229.149994</ele>
        <time>2013-06-15T15:14:20Z</time>
      </trkpt>
      <trkpt lat="43.47728" lon="1.43295">
        <ele>226.449997</ele>
        <time>2013-06-15T15:14:24Z</time>
      </trkpt>
      <trkpt lat="43.47732" lon="1.43291">
        <ele>219.659988</ele>
        <time>2013-06-15T15:14:34Z</time>
      </trkpt>
      <trkpt lat="43.47737" lon="1.4329">
        <ele>212.819992</ele>
        <time>2013-06-15T15:14:36Z</time>
      </trkpt>
      <trkpt lat="43.47739" lon="1.43291">
        <ele>211.62999</ele>
        <time>2013-06-15T15:14:38Z</time>
      </trkpt>
      <trkpt lat="43.47744" lon="1.43285">
        <ele>207.059998</ele>
        <time>2013-06-15T15:14:44Z</time>
      </trkpt>
      <trkpt lat="43.47755" lon="1.43286">
        <ele>202.699997</ele>
        <time>2013-06-15T15:14:56Z</time>
      </trkpt>
      <trkpt lat="43.47759" lon="1.43285">
        <ele>202.679993</ele>
        <time>2013-06-15T15:14:57Z</time>
      </trkpt>
      <trkpt lat="43.47765" lon="1.43288">
        <ele>203.389999</ele>
        <time>2013-06-15T15:14:59Z</time>
      </trkpt>
      <trkpt lat="43.47777" lon="1.43297">
        <ele>213.610001</ele>
        <time>2013-06-15T15:15:01Z</time>
      </trkpt>
      <trkpt lat="43.47787" lon="1.43301">
        <ele>210.73999</ele>
        <time>2013-06-15T15:15:07Z</time>
      </trkpt>
      <trkpt lat="43.47793" lon="1.43304">
        <ele>210.399994</ele>
        <time>2013-06-15T15:15:13Z</time>
      </trkpt>
      <trkpt lat="43.47833" lon="1.43323">
        <ele>222.369995</ele>
        <time>2013-06-15T15:16:26Z</time>
      </trkpt>
      <trkpt lat="43.47845" lon="1.43326">
        <ele>223.5</ele>
        <time>2013-06-15T15:16:40Z</time>
      </trkpt>
      <trkpt lat="43.47848" lon="1.43329">
        <ele>224.899994</ele>
        <time>2013-06-15T15:16:50Z</time>
      </trkpt>
      <trkpt lat="43.47852" lon="1.43328">
        <ele>226.779999</ele>
        <time>2013-06-15T15:16:52Z</time>
      </trkpt>
      <trkpt lat="43.47854" lon="1.43329">
        <ele>227.619995</ele>
        <time>2013-06-15T15:16:54Z</time>
      </trkpt>
      <trkpt lat="43.47861" lon="1.43329">
        <ele>225.549988</ele>
        <time>2013-06-15T15:17:02Z</time>
      </trkpt>
      <trkpt lat="43.47862" lon="1.4333">
        <ele>226.23999</ele>
        <time>2013-06-15T15:17:04Z</time>
      </trkpt>
      <trkpt lat="43.47872" lon="1.4333">
        <ele>229.119995</ele>
        <time>2013-06-15T15:17:20Z</time>
      </trkpt>
      <trkpt lat="43.47883" lon="1.43334">
        <ele>230.470001</ele>
        <time>2013-06-15T15:17:28Z</time>
      </trkpt>
      <trkpt lat="43.47887" lon="1.43334">
        <ele>230.669998</ele>
        <time>2013-06-15T15:17:32Z</time>
      </trkpt>
      <trkpt lat="43.47889" lon="1.43332">
        <ele>230.269989</ele>
        <time>2013-06-15T15:17:34Z</time>
      </trkpt>
      <trkpt lat="43.47894" lon="1.43337">
        <ele>234.439987</ele>
        <time>2013-06-15T15:17:37Z</time>
      </trkpt>
      <trkpt lat="43.47894" lon="1.43339">
        <ele>236.330002</ele>
        <time>2013-06-15T15:17:39Z</time>
      </trkpt>
      <trkpt lat="43.47899" lon="1.43344">
        <ele>235</ele>
        <time>2013-06-15T15:17:45Z</time>
      </trkpt>
      <trkpt lat="43.47907" lon="1.43345">
        <ele>233.949997</ele>
        <time>2013-06-15T15:17:51Z</time>
      </trkpt>
      <trkpt lat="43.4791" lon="1.43345">
        <ele>232.860001</ele>
        <time>2013-06-15T15:17:56Z</time>
      </trkpt>
      <trkpt lat="43.47918" lon="1.43348">
        <ele>231.819992</ele>
        <time>2013-06-15T15:18:02Z</time>
      </trkpt>
      <trkpt lat="43.4792" lon="1.43349">
        <ele>232.949997</ele>
        <time>2013-06-15T15:18:04Z</time>
      </trkpt>
      <trkpt lat="43.47928" lon="1.43351">
        <ele>233.330002</ele>
        <time>2013-06-15T15:18:10Z</time>
      </trkpt>
      <trkpt lat="43.4793" lon="1.43351">
        <ele>233.589996</ele>
        <time>2013-06-15T15:18:12Z</time>
      </trkpt>
      <trkpt lat="43.47935" lon="1.43355">
        <ele>234.389999</ele>
        <time>2013-06-15T15:18:16Z</time>
      </trkpt>
      <trkpt lat="43.47937" lon="1.43356">
        <ele>235.019989</ele>
        <time>2013-06-15T15:18:18Z</time>
      </trkpt>
      <trkpt lat="43.4794" lon="1.43355">
        <ele>235.62999</ele>
        <time>2013-06-15T15:18:20Z</time>
      </trkpt>
      <trkpt lat="43.47945" lon="1.43359">
        <ele>237.019989</ele>
        <time>2013-06-15T15:18:24Z</time>
      </trkpt>
      <trkpt lat="43.47947" lon="1.43359">
        <ele>236.639999</ele>
        <time>2013-06-15T15:18:26Z</time>
      </trkpt>
      <trkpt lat="43.47949" lon="1.43361">
        <ele>236.839996</ele>
        <time>2013-06-15T15:18:28Z</time>
      </trkpt>
      <trkpt lat="43.47953" lon="1.43362">
        <ele>236.830002</ele>
        <time>2013-06-15T15:18:30Z</time>
      </trkpt>
      <trkpt lat="43.47955" lon="1.43364">
        <ele>236.819992</ele>
        <time>2013-06-15T15:18:32Z</time>
      </trkpt>
      <trkpt lat="43.4796" lon="1.43363">
        <ele>236.069992</ele>
        <time>2013-06-15T15:18:36Z</time>
      </trkpt>
      <trkpt lat="43.47966" lon="1.43366">
        <ele>234.509995</ele>
        <time>2013-06-15T15:18:44Z</time>
      </trkpt>
      <trkpt lat="43.47968" lon="1.43371">
        <ele>233.939987</ele>
        <time>2013-06-15T15:18:48Z</time>
      </trkpt>
      <trkpt lat="43.4797" lon="1.43372">
        <ele>233.720001</ele>
        <time>2013-06-15T15:18:50Z</time>
      </trkpt>
      <trkpt lat="43.47974" lon="1.43371">
        <ele>234.389999</ele>
        <time>2013-06-15T15:18:54Z</time>
      </trkpt>
      <trkpt lat="43.47979" lon="1.43368">
        <ele>233.429993</ele>
        <time>2013-06-15T15:19:00Z</time>
      </trkpt>
      <trkpt lat="43.47983" lon="1.4337">
        <ele>235.159988</ele>
        <time>2013-06-15T15:19:02Z</time>
      </trkpt>
      <trkpt lat="43.47992" lon="1.4337">
        <ele>236.569992</ele>
        <time>2013-06-15T15:19:10Z</time>
      </trkpt>
      <trkpt lat="43.48004" lon="1.43374">
        <ele>240.339996</ele>
        <time>2013-06-15T15:19:18Z</time>
      </trkpt>
      <trkpt lat="43.48007" lon="1.43378">
        <ele>244.25</ele>
        <time>2013-06-15T15:19:24Z</time>
      </trkpt>
      <trkpt lat="43.48014" lon="1.43378">
        <ele>242.419998</ele>
        <time>2013-06-15T15:19:30Z</time>
      </trkpt>
      <trkpt lat="43.48016" lon="1.4338">
        <ele>241.899994</ele>
        <time>2013-06-15T15:19:36Z</time>
      </trkpt>
      <trkpt lat="43.48019" lon="1.43381">
        <ele>240.899994</ele>
        <time>2013-06-15T15:19:38Z</time>
      </trkpt>
      <trkpt lat="43.48021" lon="1.4338">
        <ele>241.139999</ele>
        <time>2013-06-15T15:19:40Z</time>
      </trkpt>
      <trkpt lat="43.48024" lon="1.43379">
        <ele>240.860001</ele>
        <time>2013-06-15T15:19:42Z</time>
      </trkpt>
      <trkpt lat="43.48026" lon="1.43382">
        <ele>241.149994</ele>
        <time>2013-06-15T15:19:44Z</time>
      </trkpt>
      <trkpt lat="43.48029" lon="1.43384">
        <ele>240.98999</ele>
        <time>2013-06-15T15:19:46Z</time>
      </trkpt>
      <trkpt lat="43.4803" lon="1.43388">
        <ele>241.080002</ele>
        <time>2013-06-15T15:19:48Z</time>
      </trkpt>
      <trkpt lat="43.48036" lon="1.43388">
        <ele>245.789993</ele>
        <time>2013-06-15T15:19:54Z</time>
      </trkpt>
      <trkpt lat="43.48043" lon="1.43397">
        <ele>254.48999</ele>
        <time>2013-06-15T15:20:00Z</time>
      </trkpt>
      <trkpt lat="43.48045" lon="1.43399">
        <ele>254.779999</ele>
        <time>2013-06-15T15:20:02Z</time>
      </trkpt>
      <trkpt lat="43.48047" lon="1.43403">
        <ele>255.23999</ele>
        <time>2013-06-15T15:20:06Z</time>
      </trkpt>
      <trkpt lat="43.48047" lon="1.43404">
        <ele>255.470001</ele>
        <time>2013-06-15T15:20:10Z</time>
      </trkpt>
      <trkpt lat="43.4806" lon="1.4342">
        <ele>267.859985</ele>
        <time>2013-06-15T15:20:26Z</time>
      </trkpt>
      <trkpt lat="43.48076" lon="1.43433">
        <ele>269.290009</ele>
        <time>2013-06-15T15:20:44Z</time>
      </trkpt>
      <trkpt lat="43.4808" lon="1.43435">
        <ele>270.269989</ele>
        <time>2013-06-15T15:20:48Z</time>
      </trkpt>
      <trkpt lat="43.48082" lon="1.43434">
        <ele>270.540009</ele>
        <time>2013-06-15T15:20:50Z</time>
      </trkpt>
      <trkpt lat="43.4809" lon="1.4342">
        <ele>271.790009</ele>
        <time>2013-06-15T15:21:00Z</time>
      </trkpt>
      <trkpt lat="43.48093" lon="1.4341">
        <ele>272.579987</ele>
        <time>2013-06-15T15:21:06Z</time>
      </trkpt>
      <trkpt lat="43.48095" lon="1.43407">
        <ele>271.519989</ele>
        <time>2013-06-15T15:21:08Z</time>
      </trkpt>
      <trkpt lat="43.48096" lon="1.43402">
        <ele>271.059998</ele>
        <time>2013-06-15T15:21:10Z</time>
      </trkpt>
      <trkpt lat="43.48099" lon="1.43393">
        <ele>270.759979</ele>
        <time>2013-06-15T15:21:16Z</time>
      </trkpt>
      <trkpt lat="43.481" lon="1.43389">
        <ele>271.559998</ele>
        <time>2013-06-15T15:21:18Z</time>
      </trkpt>
      <trkpt lat="43.48099" lon="1.43385">
        <ele>270.720001</ele>
        <time>2013-06-15T15:21:20Z</time>
      </trkpt>
      <trkpt lat="43.48098" lon="1.4338">
        <ele>268.220001</ele>
        <time>2013-06-15T15:21:22Z</time>
      </trkpt>
      <trkpt lat="43.48096" lon="1.4337">
        <ele>267.059998</ele>
        <time>2013-06-15T15:21:26Z</time>
      </trkpt>
      <trkpt lat="43.48092" lon="1.43363">
        <ele>267.410004</ele>
        <time>2013-06-15T15:21:30Z</time>
      </trkpt>
      <trkpt lat="43.48089" lon="1.43354">
        <ele>267.119995</ele>
        <time>2013-06-15T15:21:36Z</time>
      </trkpt>
      <trkpt lat="43.48087" lon="1.4335">
        <ele>266.639984</ele>
        <time>2013-06-15T15:21:38Z</time>
      </trkpt>
      <trkpt lat="43.48085" lon="1.43346">
        <ele>266.139984</ele>
        <time>2013-06-15T15:21:40Z</time>
      </trkpt>
      <trkpt lat="43.48081" lon="1.43341">
        <ele>266.549988</ele>
        <time>2013-06-15T15:21:44Z</time>
      </trkpt>
      <trkpt lat="43.48075" lon="1.43336">
        <ele>265.940002</ele>
        <time>2013-06-15T15:21:48Z</time>
      </trkpt>
      <trkpt lat="43.48071" lon="1.43328">
        <ele>266.299988</ele>
        <time>2013-06-15T15:21:52Z</time>
      </trkpt>
      <trkpt lat="43.48069" lon="1.43325">
        <ele>266.399994</ele>
        <time>2013-06-15T15:21:54Z</time>
      </trkpt>
      <trkpt lat="43.48068" lon="1.43324">
        <ele>266.179993</ele>
        <time>2013-06-15T15:21:56Z</time>
      </trkpt>
      <trkpt lat="43.48064" lon="1.43318">
        <ele>264.47998</ele>
        <time>2013-06-15T15:22:00Z</time>
      </trkpt>
      <trkpt lat="43.4806" lon="1.43315">
        <ele>264.389984</ele>
        <time>2013-06-15T15:22:02Z</time>
      </trkpt>
      <trkpt lat="43.48061" lon="1.43297">
        <ele>264.279999</ele>
        <time>2013-06-15T15:22:10Z</time>
      </trkpt>
      <trkpt lat="43.4806" lon="1.43292">
        <ele>264.459991</ele>
        <time>2013-06-15T15:22:12Z</time>
      </trkpt>
      <trkpt lat="43.48061" lon="1.43287">
        <ele>264.259979</ele>
        <time>2013-06-15T15:22:14Z</time>
      </trkpt>
      <trkpt lat="43.48063" lon="1.43278">
        <ele>265.169983</ele>
        <time>2013-06-15T15:22:18Z</time>
      </trkpt>
      <trkpt lat="43.48066" lon="1.43267">
        <ele>264.97998</ele>
        <time>2013-06-15T15:22:24Z</time>
      </trkpt>
      <trkpt lat="43.48066" lon="1.43263">
        <ele>265.279999</ele>
        <time>2013-06-15T15:22:26Z</time>
      </trkpt>
      <trkpt lat="43.48066" lon="1.4326">
        <ele>265.959991</ele>
        <time>2013-06-15T15:22:28Z</time>
      </trkpt>
      <trkpt lat="43.48068" lon="1.43256">
        <ele>266.209991</ele>
        <time>2013-06-15T15:22:30Z</time>
      </trkpt>
      <trkpt lat="43.48068" lon="1.43251">
        <ele>266.23999</ele>
        <time>2013-06-15T15:22:32Z</time>
      </trkpt>
      <trkpt lat="43.48071" lon="1.43247">
        <ele>272.179993</ele>
        <time>2013-06-15T15:22:36Z</time>
      </trkpt>
      <trkpt lat="43.48073" lon="1.43233">
        <ele>272.839996</ele>
        <time>2013-06-15T15:22:44Z</time>
      </trkpt>
      <trkpt lat="43.48075" lon="1.4323">
        <ele>273.040009</ele>
        <time>2013-06-15T15:22:48Z</time>
      </trkpt>
      <trkpt lat="43.48082" lon="1.43234">
        <ele>272.709991</ele>
        <time>2013-06-15T15:22:52Z</time>
      </trkpt>
      <trkpt lat="43.4809" lon="1.4324">
        <ele>273.220001</ele>
        <time>2013-06-15T15:22:58Z</time>
      </trkpt>
      <trkpt lat="43.48097" lon="1.43238">
        <ele>272.529999</ele>
        <time>2013-06-15T15:23:02Z</time>
      </trkpt>
      <trkpt lat="43.48101" lon="1.43236">
        <ele>272.23999</ele>
        <time>2013-06-15T15:23:04Z</time>
      </trkpt>
      <trkpt lat="43.48104" lon="1.43231">
        <ele>272.149994</ele>
        <time>2013-06-15T15:23:06Z</time>
      </trkpt>
      <trkpt lat="43.48104" lon="1.43228">
        <ele>273.070007</ele>
        <time>2013-06-15T15:23:08Z</time>
      </trkpt>
      <trkpt lat="43.48108" lon="1.4322">
        <ele>276.130005</ele>
        <time>2013-06-15T15:23:12Z</time>
      </trkpt>
      <trkpt lat="43.48109" lon="1.43216">
        <ele>277.320007</ele>
        <time>2013-06-15T15:23:14Z</time>
      </trkpt>
      <trkpt lat="43.48113" lon="1.43208">
        <ele>275.769989</ele>
        <time>2013-06-15T15:23:18Z</time>
      </trkpt>
      <trkpt lat="43.48113" lon="1.43204">
        <ele>276.880005</ele>
        <time>2013-06-15T15:23:20Z</time>
      </trkpt>
      <trkpt lat="43.48113" lon="1.43195">
        <ele>276.910004</ele>
        <time>2013-06-15T15:23:23Z</time>
      </trkpt>
      <trkpt lat="43.48111" lon="1.43191">
        <ele>279.040009</ele>
        <time>2013-06-15T15:23:25Z</time>
      </trkpt>
      <trkpt lat="43.48112" lon="1.43187">
        <ele>278.509979</ele>
        <time>2013-06-15T15:23:27Z</time>
      </trkpt>
      <trkpt lat="43.48117" lon="1.43184">
        <ele>278.529999</ele>
        <time>2013-06-15T15:23:29Z</time>
      </trkpt>
      <trkpt lat="43.48122" lon="1.43182">
        <ele>278.049988</ele>
        <time>2013-06-15T15:23:31Z</time>
      </trkpt>
      <trkpt lat="43.48131" lon="1.43186">
        <ele>276.22998</ele>
        <time>2013-06-15T15:23:35Z</time>
      </trkpt>
      <trkpt lat="43.48138" lon="1.4319">
        <ele>273.269989</ele>
        <time>2013-06-15T15:23:40Z</time>
      </trkpt>
      <trkpt lat="43.48142" lon="1.4319">
        <ele>272.899994</ele>
        <time>2013-06-15T15:23:43Z</time>
      </trkpt>
      <trkpt lat="43.48145" lon="1.43193">
        <ele>272.22998</ele>
        <time>2013-06-15T15:23:45Z</time>
      </trkpt>
      <trkpt lat="43.48147" lon="1.43194">
        <ele>273.839996</ele>
        <time>2013-06-15T15:23:47Z</time>
      </trkpt>
      <trkpt lat="43.48156" lon="1.43192">
        <ele>275.160004</ele>
        <time>2013-06-15T15:23:51Z</time>
      </trkpt>
      <trkpt lat="43.48158" lon="1.4319">
        <ele>274.299988</ele>
        <time>2013-06-15T15:23:53Z</time>
      </trkpt>
      <trkpt lat="43.48163" lon="1.43178">
        <ele>272.089996</ele>
        <time>2013-06-15T15:23:59Z</time>
      </trkpt>
      <trkpt lat="43.48163" lon="1.43174">
        <ele>271.609985</ele>
        <time>2013-06-15T15:24:01Z</time>
      </trkpt>
      <trkpt lat="43.48165" lon="1.4317">
        <ele>271.380005</ele>
        <time>2013-06-15T15:24:03Z</time>
      </trkpt>
      <trkpt lat="43.48166" lon="1.43166">
        <ele>271.009979</ele>
        <time>2013-06-15T15:24:05Z</time>
      </trkpt>
      <trkpt lat="43.48169" lon="1.43158">
        <ele>271.350006</ele>
        <time>2013-06-15T15:24:11Z</time>
      </trkpt>
      <trkpt lat="43.4817" lon="1.43151">
        <ele>271.419983</ele>
        <time>2013-06-15T15:24:14Z</time>
      </trkpt>
      <trkpt lat="43.48172" lon="1.43147">
        <ele>271.779999</ele>
        <time>2013-06-15T15:24:16Z</time>
      </trkpt>
      <trkpt lat="43.48176" lon="1.43143">
        <ele>270.889984</ele>
        <time>2013-06-15T15:24:18Z</time>
      </trkpt>
      <trkpt lat="43.48179" lon="1.43139">
        <ele>269.72998</ele>
        <time>2013-06-15T15:24:20Z</time>
      </trkpt>
      <trkpt lat="43.48185" lon="1.43121">
        <ele>267.079987</ele>
        <time>2013-06-15T15:24:28Z</time>
      </trkpt>
      <trkpt lat="43.48187" lon="1.43118">
        <ele>266.859985</ele>
        <time>2013-06-15T15:24:30Z</time>
      </trkpt>
      <trkpt lat="43.4819" lon="1.43107">
        <ele>267.949982</ele>
        <time>2013-06-15T15:24:34Z</time>
      </trkpt>
      <trkpt lat="43.48204" lon="1.4308">
        <ele>264.660004</ele>
        <time>2013-06-15T15:24:47Z</time>
      </trkpt>
      <trkpt lat="43.48208" lon="1.4307">
        <ele>262.649994</ele>
        <time>2013-06-15T15:24:51Z</time>
      </trkpt>
      <trkpt lat="43.48212" lon="1.43063">
        <ele>261.709991</ele>
        <time>2013-06-15T15:24:55Z</time>
      </trkpt>
      <trkpt lat="43.48218" lon="1.43057">
        <ele>260</ele>
        <time>2013-06-15T15:24:59Z</time>
      </trkpt>
      <trkpt lat="43.48222" lon="1.43048">
        <ele>258.339996</ele>
        <time>2013-06-15T15:25:03Z</time>
      </trkpt>
      <trkpt lat="43.48224" lon="1.43043">
        <ele>257.829987</ele>
        <time>2013-06-15T15:25:05Z</time>
      </trkpt>
      <trkpt lat="43.48226" lon="1.43038">
        <ele>256.679993</ele>
        <time>2013-06-15T15:25:07Z</time>
      </trkpt>
      <trkpt lat="43.48227" lon="1.43034">
        <ele>255.599991</ele>
        <time>2013-06-15T15:25:09Z</time>
      </trkpt>
      <trkpt lat="43.48226" lon="1.43031">
        <ele>255.799988</ele>
        <time>2013-06-15T15:25:10Z</time>
      </trkpt>
      <trkpt lat="43.48228" lon="1.43022">
        <ele>250.98999</ele>
        <time>2013-06-15T15:25:14Z</time>
      </trkpt>
      <trkpt lat="43.48227" lon="1.43019">
        <ele>251.509995</ele>
        <time>2013-06-15T15:25:16Z</time>
      </trkpt>
      <trkpt lat="43.48228" lon="1.43015">
        <ele>253.099991</ele>
        <time>2013-06-15T15:25:18Z</time>
      </trkpt>
      <trkpt lat="43.48229" lon="1.43011">
        <ele>252.919998</ele>
        <time>2013-06-15T15:25:20Z</time>
      </trkpt>
      <trkpt lat="43.48237" lon="1.42995">
        <ele>248.729996</ele>
        <time>2013-06-15T15:25:28Z</time>
      </trkpt>
      <trkpt lat="43.4824" lon="1.42986">
        <ele>250.059998</ele>
        <time>2013-06-15T15:25:32Z</time>
      </trkpt>
      <trkpt lat="43.48244" lon="1.42979">
        <ele>249.889999</ele>
        <time>2013-06-15T15:25:36Z</time>
      </trkpt>
      <trkpt lat="43.48245" lon="1.42979">
        <ele>249.779999</ele>
        <time>2013-06-15T15:25:38Z</time>
      </trkpt>
      <trkpt lat="43.48246" lon="1.42976">
        <ele>250.23999</ele>
        <time>2013-06-15T15:25:39Z</time>
      </trkpt>
      <trkpt lat="43.48248" lon="1.42969">
        <ele>251.549988</ele>
        <time>2013-06-15T15:25:42Z</time>
      </trkpt>
      <trkpt lat="43.48251" lon="1.42965">
        <ele>252.509995</ele>
        <time>2013-06-15T15:25:44Z</time>
      </trkpt>
      <trkpt lat="43.48255" lon="1.42961">
        <ele>252.360001</ele>
        <time>2013-06-15T15:25:46Z</time>
      </trkpt>
      <trkpt lat="43.48258" lon="1.42958">
        <ele>251.73999</ele>
        <time>2013-06-15T15:25:48Z</time>
      </trkpt>
      <trkpt lat="43.4826" lon="1.42954">
        <ele>250.069992</ele>
        <time>2013-06-15T15:25:50Z</time>
      </trkpt>
      <trkpt lat="43.48265" lon="1.42949">
        <ele>249.289993</ele>
        <time>2013-06-15T15:25:53Z</time>
      </trkpt>
      <trkpt lat="43.48269" lon="1.42935">
        <ele>248.110001</ele>
        <time>2013-06-15T15:25:59Z</time>
      </trkpt>
      <trkpt lat="43.48272" lon="1.42931">
        <ele>248.419998</ele>
        <time>2013-06-15T15:26:01Z</time>
      </trkpt>
      <trkpt lat="43.48274" lon="1.42927">
        <ele>248.159988</ele>
        <time>2013-06-15T15:26:03Z</time>
      </trkpt>
      <trkpt lat="43.48277" lon="1.42918">
        <ele>247.610001</ele>
        <time>2013-06-15T15:26:07Z</time>
      </trkpt>
      <trkpt lat="43.48278" lon="1.42913">
        <ele>247.619995</ele>
        <time>2013-06-15T15:26:09Z</time>
      </trkpt>
      <trkpt lat="43.48277" lon="1.42908">
        <ele>247.729996</ele>
        <time>2013-06-15T15:26:11Z</time>
      </trkpt>
      <trkpt lat="43.48278" lon="1.42904">
        <ele>247.949997</ele>
        <time>2013-06-15T15:26:13Z</time>
      </trkpt>
      <trkpt lat="43.48279" lon="1.429">
        <ele>247.019989</ele>
        <time>2013-06-15T15:26:15Z</time>
      </trkpt>
      <trkpt lat="43.48283" lon="1.42884">
        <ele>244.610001</ele>
        <time>2013-06-15T15:26:23Z</time>
      </trkpt>
      <trkpt lat="43.48286" lon="1.42878">
        <ele>242.869995</ele>
        <time>2013-06-15T15:26:25Z</time>
      </trkpt>
      <trkpt lat="43.4829" lon="1.4287">
        <ele>240.839996</ele>
        <time>2013-06-15T15:26:29Z</time>
      </trkpt>
      <trkpt lat="43.48292" lon="1.42863">
        <ele>240.349991</ele>
        <time>2013-06-15T15:26:31Z</time>
      </trkpt>
      <trkpt lat="43.48291" lon="1.42858">
        <ele>240.019989</ele>
        <time>2013-06-15T15:26:33Z</time>
      </trkpt>
      <trkpt lat="43.48291" lon="1.42853">
        <ele>239.369995</ele>
        <time>2013-06-15T15:26:35Z</time>
      </trkpt>
      <trkpt lat="43.48293" lon="1.42847">
        <ele>238.360001</ele>
        <time>2013-06-15T15:26:37Z</time>
      </trkpt>
      <trkpt lat="43.48298" lon="1.42841">
        <ele>238.139999</ele>
        <time>2013-06-15T15:26:41Z</time>
      </trkpt>
      <trkpt lat="43.483" lon="1.42838">
        <ele>237.789993</ele>
        <time>2013-06-15T15:26:43Z</time>
      </trkpt>
      <trkpt lat="43.48305" lon="1.42835">
        <ele>242.110001</ele>
        <time>2013-06-15T15:26:45Z</time>
      </trkpt>
      <trkpt lat="43.4831" lon="1.42825">
        <ele>241.259995</ele>
        <time>2013-06-15T15:26:49Z</time>
      </trkpt>
      <trkpt lat="43.48311" lon="1.42821">
        <ele>242.029999</ele>
        <time>2013-06-15T15:26:51Z</time>
      </trkpt>
      <trkpt lat="43.48315" lon="1.42804">
        <ele>242.059998</ele>
        <time>2013-06-15T15:26:59Z</time>
      </trkpt>
      <trkpt lat="43.48316" lon="1.428">
        <ele>242.429993</ele>
        <time>2013-06-15T15:27:01Z</time>
      </trkpt>
      <trkpt lat="43.48317" lon="1.42795">
        <ele>241.809998</ele>
        <time>2013-06-15T15:27:03Z</time>
      </trkpt>
      <trkpt lat="43.48319" lon="1.42785">
        <ele>241.679993</ele>
        <time>2013-06-15T15:27:07Z</time>
      </trkpt>
      <trkpt lat="43.4832" lon="1.42776">
        <ele>242.599991</ele>
        <time>2013-06-15T15:27:11Z</time>
      </trkpt>
      <trkpt lat="43.48323" lon="1.42766">
        <ele>242.639999</ele>
        <time>2013-06-15T15:27:14Z</time>
      </trkpt>
      <trkpt lat="43.48327" lon="1.42761">
        <ele>241.979996</ele>
        <time>2013-06-15T15:27:17Z</time>
      </trkpt>
      <trkpt lat="43.48329" lon="1.42754">
        <ele>242.48999</ele>
        <time>2013-06-15T15:27:20Z</time>
      </trkpt>
      <trkpt lat="43.48329" lon="1.42752">
        <ele>238.220001</ele>
        <time>2013-06-15T15:27:22Z</time>
      </trkpt>
      <trkpt lat="43.48333" lon="1.42745">
        <ele>238.639999</ele>
        <time>2013-06-15T15:27:24Z</time>
      </trkpt>
      <trkpt lat="43.48339" lon="1.42732">
        <ele>235.009995</ele>
        <time>2013-06-15T15:27:30Z</time>
      </trkpt>
      <trkpt lat="43.48341" lon="1.42723">
        <ele>234.220001</ele>
        <time>2013-06-15T15:27:34Z</time>
      </trkpt>
      <trkpt lat="43.48344" lon="1.42719">
        <ele>233.339996</ele>
        <time>2013-06-15T15:27:36Z</time>
      </trkpt>
      <trkpt lat="43.48345" lon="1.42714">
        <ele>232.309998</ele>
        <time>2013-06-15T15:27:37Z</time>
      </trkpt>
      <trkpt lat="43.48348" lon="1.42707">
        <ele>231.569992</ele>
        <time>2013-06-15T15:27:41Z</time>
      </trkpt>
      <trkpt lat="43.48353" lon="1.42685">
        <ele>232.279999</ele>
        <time>2013-06-15T15:27:51Z</time>
      </trkpt>
      <trkpt lat="43.48356" lon="1.42681">
        <ele>232.199997</ele>
        <time>2013-06-15T15:27:53Z</time>
      </trkpt>
      <trkpt lat="43.48356" lon="1.42674">
        <ele>230.98999</ele>
        <time>2013-06-15T15:27:57Z</time>
      </trkpt>
      <trkpt lat="43.48356" lon="1.4267">
        <ele>231.419998</ele>
        <time>2013-06-15T15:27:59Z</time>
      </trkpt>
      <trkpt lat="43.48357" lon="1.42668">
        <ele>231.649994</ele>
        <time>2013-06-15T15:28:00Z</time>
      </trkpt>
      <trkpt lat="43.48361" lon="1.42654">
        <ele>232.409988</ele>
        <time>2013-06-15T15:28:07Z</time>
      </trkpt>
      <trkpt lat="43.48362" lon="1.42638">
        <ele>229.809998</ele>
        <time>2013-06-15T15:28:13Z</time>
      </trkpt>
      <trkpt lat="43.48365" lon="1.42628">
        <ele>228.289993</ele>
        <time>2013-06-15T15:28:17Z</time>
      </trkpt>
      <trkpt lat="43.48366" lon="1.42624">
        <ele>228</ele>
        <time>2013-06-15T15:28:19Z</time>
      </trkpt>
      <trkpt lat="43.48365" lon="1.42619">
        <ele>227.830002</ele>
        <time>2013-06-15T15:28:21Z</time>
      </trkpt>
      <trkpt lat="43.48366" lon="1.42613">
        <ele>228.349991</ele>
        <time>2013-06-15T15:28:23Z</time>
      </trkpt>
      <trkpt lat="43.48371" lon="1.426">
        <ele>226.959991</ele>
        <time>2013-06-15T15:28:27Z</time>
      </trkpt>
      <trkpt lat="43.48373" lon="1.42589">
        <ele>226.539993</ele>
        <time>2013-06-15T15:28:31Z</time>
      </trkpt>
      <trkpt lat="43.48375" lon="1.42583">
        <ele>224.98999</ele>
        <time>2013-06-15T15:28:33Z</time>
      </trkpt>
      <trkpt lat="43.48377" lon="1.4258">
        <ele>225.699997</ele>
        <time>2013-06-15T15:28:35Z</time>
      </trkpt>
      <trkpt lat="43.48381" lon="1.42567">
        <ele>226.789993</ele>
        <time>2013-06-15T15:28:41Z</time>
      </trkpt>
      <trkpt lat="43.48382" lon="1.42556">
        <ele>226.87999</ele>
        <time>2013-06-15T15:28:47Z</time>
      </trkpt>
      <trkpt lat="43.48383" lon="1.42549">
        <ele>227.349991</ele>
        <time>2013-06-15T15:28:51Z</time>
      </trkpt>
      <trkpt lat="43.48381" lon="1.42545">
        <ele>229.279999</ele>
        <time>2013-06-15T15:28:53Z</time>
      </trkpt>
      <trkpt lat="43.48388" lon="1.42533">
        <ele>228.009995</ele>
        <time>2013-06-15T15:28:57Z</time>
      </trkpt>
      <trkpt lat="43.48389" lon="1.42528">
        <ele>225.819992</ele>
        <time>2013-06-15T15:28:59Z</time>
      </trkpt>
      <trkpt lat="43.48394" lon="1.42491">
        <ele>220.959991</ele>
        <time>2013-06-15T15:29:14Z</time>
      </trkpt>
      <trkpt lat="43.48395" lon="1.42489">
        <ele>221.849991</ele>
        <time>2013-06-15T15:29:16Z</time>
      </trkpt>
      <trkpt lat="43.48393" lon="1.42483">
        <ele>221.75</ele>
        <time>2013-06-15T15:29:18Z</time>
      </trkpt>
      <trkpt lat="43.48393" lon="1.42477">
        <ele>220.369995</ele>
        <time>2013-06-15T15:29:20Z</time>
      </trkpt>
      <trkpt lat="43.48394" lon="1.42472">
        <ele>220</ele>
        <time>2013-06-15T15:29:22Z</time>
      </trkpt>
      <trkpt lat="43.48393" lon="1.42451">
        <ele>217.539993</ele>
        <time>2013-06-15T15:29:30Z</time>
      </trkpt>
      <trkpt lat="43.48391" lon="1.42443">
        <ele>219.25</ele>
        <time>2013-06-15T15:29:34Z</time>
      </trkpt>
      <trkpt lat="43.48399" lon="1.42414">
        <ele>219.48999</ele>
        <time>2013-06-15T15:29:48Z</time>
      </trkpt>
      <trkpt lat="43.48402" lon="1.42409">
        <ele>217.099991</ele>
        <time>2013-06-15T15:29:50Z</time>
      </trkpt>
      <trkpt lat="43.48407" lon="1.42393">
        <ele>209.769989</ele>
        <time>2013-06-15T15:29:56Z</time>
      </trkpt>
      <trkpt lat="43.4841" lon="1.42383">
        <ele>205.839996</ele>
        <time>2013-06-15T15:30:00Z</time>
      </trkpt>
      <trkpt lat="43.48412" lon="1.42378">
        <ele>203.679993</ele>
        <time>2013-06-15T15:30:02Z</time>
      </trkpt>
      <trkpt lat="43.48414" lon="1.42362">
        <ele>200.149994</ele>
        <time>2013-06-15T15:30:10Z</time>
      </trkpt>
      <trkpt lat="43.48413" lon="1.42355">
        <ele>201.619995</ele>
        <time>2013-06-15T15:30:12Z</time>
      </trkpt>
      <trkpt lat="43.48413" lon="1.42349">
        <ele>203.580002</ele>
        <time>2013-06-15T15:30:14Z</time>
      </trkpt>
      <trkpt lat="43.48416" lon="1.42336">
        <ele>206.179993</ele>
        <time>2013-06-15T15:30:18Z</time>
      </trkpt>
      <trkpt lat="43.48416" lon="1.4233">
        <ele>207.729996</ele>
        <time>2013-06-15T15:30:22Z</time>
      </trkpt>
      <trkpt lat="43.4842" lon="1.42319">
        <ele>207.049988</ele>
        <time>2013-06-15T15:30:26Z</time>
      </trkpt>
      <trkpt lat="43.48421" lon="1.42305">
        <ele>209.860001</ele>
        <time>2013-06-15T15:30:30Z</time>
      </trkpt>
      <trkpt lat="43.48423" lon="1.42291">
        <ele>213.639999</ele>
        <time>2013-06-15T15:30:34Z</time>
      </trkpt>
      <trkpt lat="43.48423" lon="1.42283">
        <ele>214.659988</ele>
        <time>2013-06-15T15:30:36Z</time>
      </trkpt>
      <trkpt lat="43.48423" lon="1.42279">
        <ele>215.899994</ele>
        <time>2013-06-15T15:30:38Z</time>
      </trkpt>
      <trkpt lat="43.48423" lon="1.42274">
        <ele>218.119995</ele>
        <time>2013-06-15T15:30:40Z</time>
      </trkpt>
      <trkpt lat="43.48423" lon="1.42268">
        <ele>219.759995</ele>
        <time>2013-06-15T15:30:42Z</time>
      </trkpt>
      <trkpt lat="43.48424" lon="1.42253">
        <ele>224.869995</ele>
        <time>2013-06-15T15:30:46Z</time>
      </trkpt>
      <trkpt lat="43.48425" lon="1.42247">
        <ele>227.799988</ele>
        <time>2013-06-15T15:30:48Z</time>
      </trkpt>
      <trkpt lat="43.48424" lon="1.42243">
        <ele>226.769989</ele>
        <time>2013-06-15T15:30:50Z</time>
      </trkpt>
      <trkpt lat="43.48426" lon="1.42238">
        <ele>218.259995</ele>
        <time>2013-06-15T15:30:54Z</time>
      </trkpt>
      <trkpt lat="43.48427" lon="1.42233">
        <ele>212.229996</ele>
        <time>2013-06-15T15:30:58Z</time>
      </trkpt>
      <trkpt lat="43.48429" lon="1.42229">
        <ele>210.759995</ele>
        <time>2013-06-15T15:31:00Z</time>
      </trkpt>
      <trkpt lat="43.4843" lon="1.42226">
        <ele>210.769989</ele>
        <time>2013-06-15T15:31:02Z</time>
      </trkpt>
      <trkpt lat="43.48428" lon="1.42223">
        <ele>210.279999</ele>
        <time>2013-06-15T15:31:04Z</time>
      </trkpt>
      <trkpt lat="43.48427" lon="1.42219">
        <ele>209.809998</ele>
        <time>2013-06-15T15:31:06Z</time>
      </trkpt>
      <trkpt lat="43.48426" lon="1.42212">
        <ele>208.389999</ele>
        <time>2013-06-15T15:31:08Z</time>
      </trkpt>
      <trkpt lat="43.48426" lon="1.42204">
        <ele>206.569992</ele>
        <time>2013-06-15T15:31:12Z</time>
      </trkpt>
      <trkpt lat="43.48424" lon="1.42201">
        <ele>206.440002</ele>
        <time>2013-06-15T15:31:14Z</time>
      </trkpt>
      <trkpt lat="43.48418" lon="1.42186">
        <ele>205.089996</ele>
        <time>2013-06-15T15:31:18Z</time>
      </trkpt>
      <trkpt lat="43.48414" lon="1.42178">
        <ele>204.889999</ele>
        <time>2013-06-15T15:31:22Z</time>
      </trkpt>
      <trkpt lat="43.48408" lon="1.4217">
        <ele>196.919998</ele>
        <time>2013-06-15T15:31:30Z</time>
      </trkpt>
      <trkpt lat="43.48398" lon="1.42165">
        <ele>189.550003</ele>
        <time>2013-06-15T15:31:36Z</time>
      </trkpt>
      <trkpt lat="43.48397" lon="1.42154">
        <ele>190.039993</ele>
        <time>2013-06-15T15:31:38Z</time>
      </trkpt>
      <trkpt lat="43.48395" lon="1.42148">
        <ele>191.050003</ele>
        <time>2013-06-15T15:31:40Z</time>
      </trkpt>
      <trkpt lat="43.48391" lon="1.42145">
        <ele>192.869995</ele>
        <time>2013-06-15T15:31:42Z</time>
      </trkpt>
      <trkpt lat="43.4839" lon="1.42143">
        <ele>193.089996</ele>
        <time>2013-06-15T15:31:44Z</time>
      </trkpt>
      <trkpt lat="43.48388" lon="1.4214">
        <ele>194.929993</ele>
        <time>2013-06-15T15:31:46Z</time>
      </trkpt>
      <trkpt lat="43.48388" lon="1.42139">
        <ele>195.48999</ele>
        <time>2013-06-15T15:31:50Z</time>
      </trkpt>
      <trkpt lat="43.48381" lon="1.42133">
        <ele>196.860001</ele>
        <time>2013-06-15T15:31:52Z</time>
      </trkpt>
      <trkpt lat="43.48375" lon="1.42129">
        <ele>194.87999</ele>
        <time>2013-06-15T15:31:56Z</time>
      </trkpt>
      <trkpt lat="43.48372" lon="1.42128">
        <ele>193.830002</ele>
        <time>2013-06-15T15:31:58Z</time>
      </trkpt>
      <trkpt lat="43.48366" lon="1.42123">
        <ele>194.48999</ele>
        <time>2013-06-15T15:32:02Z</time>
      </trkpt>
      <trkpt lat="43.48363" lon="1.42121">
        <ele>193.659988</ele>
        <time>2013-06-15T15:32:04Z</time>
      </trkpt>
      <trkpt lat="43.48356" lon="1.42121">
        <ele>192.309998</ele>
        <time>2013-06-15T15:32:08Z</time>
      </trkpt>
      <trkpt lat="43.48352" lon="1.42118">
        <ele>191.819992</ele>
        <time>2013-06-15T15:32:09Z</time>
      </trkpt>
      <trkpt lat="43.4835" lon="1.42111">
        <ele>192.440002</ele>
        <time>2013-06-15T15:32:11Z</time>
      </trkpt>
      <trkpt lat="43.48336" lon="1.42087">
        <ele>194.580002</ele>
        <time>2013-06-15T15:32:23Z</time>
      </trkpt>
      <trkpt lat="43.48332" lon="1.42077">
        <ele>194.659988</ele>
        <time>2013-06-15T15:32:27Z</time>
      </trkpt>
      <trkpt lat="43.4833" lon="1.42066">
        <ele>195.75</ele>
        <time>2013-06-15T15:32:31Z</time>
      </trkpt>
      <trkpt lat="43.48328" lon="1.42062">
        <ele>195.949997</ele>
        <time>2013-06-15T15:32:32Z</time>
      </trkpt>
      <trkpt lat="43.48327" lon="1.42056">
        <ele>195.509995</ele>
        <time>2013-06-15T15:32:34Z</time>
      </trkpt>
      <trkpt lat="43.48327" lon="1.42041">
        <ele>191.569992</ele>
        <time>2013-06-15T15:32:42Z</time>
      </trkpt>
      <trkpt lat="43.48326" lon="1.42038">
        <ele>190.539993</ele>
        <time>2013-06-15T15:32:44Z</time>
      </trkpt>
      <trkpt lat="43.48326" lon="1.42034">
        <ele>189.529999</ele>
        <time>2013-06-15T15:32:46Z</time>
      </trkpt>
      <trkpt lat="43.48326" lon="1.4203">
        <ele>188.559998</ele>
        <time>2013-06-15T15:32:48Z</time>
      </trkpt>
      <trkpt lat="43.48324" lon="1.42025">
        <ele>188.019989</ele>
        <time>2013-06-15T15:32:50Z</time>
      </trkpt>
      <trkpt lat="43.48324" lon="1.42017">
        <ele>187.389999</ele>
        <time>2013-06-15T15:32:52Z</time>
      </trkpt>
      <trkpt lat="43.48323" lon="1.4201">
        <ele>187.300003</ele>
        <time>2013-06-15T15:32:54Z</time>
      </trkpt>
      <trkpt lat="43.48319" lon="1.42005">
        <ele>187.860001</ele>
        <time>2013-06-15T15:32:58Z</time>
      </trkpt>
      <trkpt lat="43.48317" lon="1.42001">
        <ele>188.409988</ele>
        <time>2013-06-15T15:33:00Z</time>
      </trkpt>
      <trkpt lat="43.48315" lon="1.41999">
        <ele>188.409988</ele>
        <time>2013-06-15T15:33:01Z</time>
      </trkpt>
      <trkpt lat="43.48315" lon="1.41996">
        <ele>185</ele>
        <time>2013-06-15T15:33:04Z</time>
      </trkpt>
      <trkpt lat="43.48317" lon="1.41986">
        <ele>178.139999</ele>
        <time>2013-06-15T15:33:08Z</time>
      </trkpt>
      <trkpt lat="43.48316" lon="1.41982">
        <ele>177.649994</ele>
        <time>2013-06-15T15:33:10Z</time>
      </trkpt>
      <trkpt lat="43.48315" lon="1.41962">
        <ele>173.669998</ele>
        <time>2013-06-15T15:33:20Z</time>
      </trkpt>
      <trkpt lat="43.48317" lon="1.41946">
        <ele>173.62999</ele>
        <time>2013-06-15T15:33:24Z</time>
      </trkpt>
      <trkpt lat="43.48316" lon="1.41941">
        <ele>175.559998</ele>
        <time>2013-06-15T15:33:26Z</time>
      </trkpt>
      <trkpt lat="43.48315" lon="1.41935">
        <ele>177.25</ele>
        <time>2013-06-15T15:33:30Z</time>
      </trkpt>
      <trkpt lat="43.48314" lon="1.41925">
        <ele>182.300003</ele>
        <time>2013-06-15T15:33:32Z</time>
      </trkpt>
      <trkpt lat="43.48312" lon="1.4192">
        <ele>184.059998</ele>
        <time>2013-06-15T15:33:34Z</time>
      </trkpt>
      <trkpt lat="43.48311" lon="1.41917">
        <ele>184.119995</ele>
        <time>2013-06-15T15:33:36Z</time>
      </trkpt>
      <trkpt lat="43.48311" lon="1.41912">
        <ele>184.679993</ele>
        <time>2013-06-15T15:33:38Z</time>
      </trkpt>
      <trkpt lat="43.48312" lon="1.41909">
        <ele>183.970001</ele>
        <time>2013-06-15T15:33:40Z</time>
      </trkpt>
      <trkpt lat="43.48312" lon="1.41907">
        <ele>184.330002</ele>
        <time>2013-06-15T15:33:42Z</time>
      </trkpt>
      <trkpt lat="43.48316" lon="1.41899">
        <ele>182.610001</ele>
        <time>2013-06-15T15:33:45Z</time>
      </trkpt>
      <trkpt lat="43.48317" lon="1.41882">
        <ele>188.690002</ele>
        <time>2013-06-15T15:33:49Z</time>
      </trkpt>
      <trkpt lat="43.48316" lon="1.41879">
        <ele>189.389999</ele>
        <time>2013-06-15T15:33:53Z</time>
      </trkpt>
      <trkpt lat="43.48317" lon="1.41866">
        <ele>185.369995</ele>
        <time>2013-06-15T15:33:55Z</time>
      </trkpt>
      <trkpt lat="43.48316" lon="1.41861">
        <ele>183.550003</ele>
        <time>2013-06-15T15:33:57Z</time>
      </trkpt>
      <trkpt lat="43.48315" lon="1.41854">
        <ele>184.110001</ele>
        <time>2013-06-15T15:34:01Z</time>
      </trkpt>
      <trkpt lat="43.48317" lon="1.41849">
        <ele>183.409988</ele>
        <time>2013-06-15T15:34:03Z</time>
      </trkpt>
      <trkpt lat="43.48317" lon="1.41837">
        <ele>181.289993</ele>
        <time>2013-06-15T15:34:09Z</time>
      </trkpt>
      <trkpt lat="43.48318" lon="1.4183">
        <ele>178.119995</ele>
        <time>2013-06-15T15:34:11Z</time>
      </trkpt>
      <trkpt lat="43.48325" lon="1.418">
        <ele>176.279999</ele>
        <time>2013-06-15T15:34:23Z</time>
      </trkpt>
      <trkpt lat="43.48327" lon="1.41799">
        <ele>176.139999</ele>
        <time>2013-06-15T15:34:25Z</time>
      </trkpt>
      <trkpt lat="43.48323" lon="1.41778">
        <ele>183.449997</ele>
        <time>2013-06-15T15:34:31Z</time>
      </trkpt>
      <trkpt lat="43.48326" lon="1.4177">
        <ele>182.649994</ele>
        <time>2013-06-15T15:34:35Z</time>
      </trkpt>
      <trkpt lat="43.48327" lon="1.41756">
        <ele>187.979996</ele>
        <time>2013-06-15T15:34:39Z</time>
      </trkpt>
      <trkpt lat="43.48326" lon="1.41747">
        <ele>188.089996</ele>
        <time>2013-06-15T15:34:43Z</time>
      </trkpt>
      <trkpt lat="43.48328" lon="1.41744">
        <ele>185.220001</ele>
        <time>2013-06-15T15:34:45Z</time>
      </trkpt>
      <trkpt lat="43.48328" lon="1.4174">
        <ele>182.940002</ele>
        <time>2013-06-15T15:34:47Z</time>
      </trkpt>
      <trkpt lat="43.4833" lon="1.41733">
        <ele>176.839996</ele>
        <time>2013-06-15T15:34:51Z</time>
      </trkpt>
      <trkpt lat="43.4833" lon="1.41727">
        <ele>174.37999</ele>
        <time>2013-06-15T15:34:55Z</time>
      </trkpt>
      <trkpt lat="43.4833" lon="1.41721">
        <ele>171.970001</ele>
        <time>2013-06-15T15:34:59Z</time>
      </trkpt>
      <trkpt lat="43.4833" lon="1.41715">
        <ele>172.610001</ele>
        <time>2013-06-15T15:35:00Z</time>
      </trkpt>
      <trkpt lat="43.48326" lon="1.41705">
        <ele>167.599991</ele>
        <time>2013-06-15T15:35:05Z</time>
      </trkpt>
      <trkpt lat="43.48324" lon="1.417">
        <ele>166.75</ele>
        <time>2013-06-15T15:35:07Z</time>
      </trkpt>
      <trkpt lat="43.48323" lon="1.41697">
        <ele>167.389999</ele>
        <time>2013-06-15T15:35:09Z</time>
      </trkpt>
      <trkpt lat="43.48316" lon="1.41686">
        <ele>170.709991</ele>
        <time>2013-06-15T15:35:13Z</time>
      </trkpt>
      <trkpt lat="43.48314" lon="1.41675">
        <ele>171.459991</ele>
        <time>2013-06-15T15:35:17Z</time>
      </trkpt>
      <trkpt lat="43.48312" lon="1.41672">
        <ele>171.779999</ele>
        <time>2013-06-15T15:35:19Z</time>
      </trkpt>
      <trkpt lat="43.4831" lon="1.41667">
        <ele>172.099991</ele>
        <time>2013-06-15T15:35:21Z</time>
      </trkpt>
      <trkpt lat="43.48307" lon="1.41663">
        <ele>173.809998</ele>
        <time>2013-06-15T15:35:23Z</time>
      </trkpt>
      <trkpt lat="43.48303" lon="1.41654">
        <ele>173.059998</ele>
        <time>2013-06-15T15:35:27Z</time>
      </trkpt>
      <trkpt lat="43.48301" lon="1.41643">
        <ele>174.319992</ele>
        <time>2013-06-15T15:35:31Z</time>
      </trkpt>
      <trkpt lat="43.48299" lon="1.4164">
        <ele>174.300003</ele>
        <time>2013-06-15T15:35:33Z</time>
      </trkpt>
      <trkpt lat="43.48297" lon="1.41636">
        <ele>173.789993</ele>
        <time>2013-06-15T15:35:35Z</time>
      </trkpt>
      <trkpt lat="43.48291" lon="1.41631">
        <ele>173.289993</ele>
        <time>2013-06-15T15:35:39Z</time>
      </trkpt>
      <trkpt lat="43.48288" lon="1.41628">
        <ele>172.949997</ele>
        <time>2013-06-15T15:35:41Z</time>
      </trkpt>
      <trkpt lat="43.48286" lon="1.41623">
        <ele>172.149994</ele>
        <time>2013-06-15T15:35:43Z</time>
      </trkpt>
      <trkpt lat="43.48281" lon="1.41618">
        <ele>171.069992</ele>
        <time>2013-06-15T15:35:47Z</time>
      </trkpt>
      <trkpt lat="43.4828" lon="1.41614">
        <ele>171.639999</ele>
        <time>2013-06-15T15:35:49Z</time>
      </trkpt>
      <trkpt lat="43.48277" lon="1.4161">
        <ele>171.220001</ele>
        <time>2013-06-15T15:35:51Z</time>
      </trkpt>
      <trkpt lat="43.48273" lon="1.41598">
        <ele>170.37999</ele>
        <time>2013-06-15T15:35:55Z</time>
      </trkpt>
      <trkpt lat="43.48267" lon="1.41589">
        <ele>170.639999</ele>
        <time>2013-06-15T15:36:01Z</time>
      </trkpt>
      <trkpt lat="43.48263" lon="1.41585">
        <ele>171.569992</ele>
        <time>2013-06-15T15:36:03Z</time>
      </trkpt>
      <trkpt lat="43.48257" lon="1.41582">
        <ele>172.059998</ele>
        <time>2013-06-15T15:36:05Z</time>
      </trkpt>
      <trkpt lat="43.48253" lon="1.41579">
        <ele>171.139999</ele>
        <time>2013-06-15T15:36:07Z</time>
      </trkpt>
      <trkpt lat="43.48247" lon="1.4157">
        <ele>168.190002</ele>
        <time>2013-06-15T15:36:11Z</time>
      </trkpt>
      <trkpt lat="43.48242" lon="1.4156">
        <ele>164.5</ele>
        <time>2013-06-15T15:36:15Z</time>
      </trkpt>
      <trkpt lat="43.4824" lon="1.41554">
        <ele>163.119995</ele>
        <time>2013-06-15T15:36:17Z</time>
      </trkpt>
      <trkpt lat="43.48232" lon="1.41539">
        <ele>163.860001</ele>
        <time>2013-06-15T15:36:23Z</time>
      </trkpt>
      <trkpt lat="43.4823" lon="1.41531">
        <ele>162.300003</ele>
        <time>2013-06-15T15:36:28Z</time>
      </trkpt>
      <trkpt lat="43.48219" lon="1.41528">
        <ele>166.559998</ele>
        <time>2013-06-15T15:36:33Z</time>
      </trkpt>
      <trkpt lat="43.48214" lon="1.41525">
        <ele>169.209991</ele>
        <time>2013-06-15T15:36:35Z</time>
      </trkpt>
      <trkpt lat="43.48203" lon="1.41514">
        <ele>170.839996</ele>
        <time>2013-06-15T15:36:41Z</time>
      </trkpt>
      <trkpt lat="43.4819" lon="1.4151">
        <ele>169.019989</ele>
        <time>2013-06-15T15:36:47Z</time>
      </trkpt>
      <trkpt lat="43.48183" lon="1.41505">
        <ele>170.580002</ele>
        <time>2013-06-15T15:36:51Z</time>
      </trkpt>
      <trkpt lat="43.4818" lon="1.41505">
        <ele>170.300003</ele>
        <time>2013-06-15T15:36:53Z</time>
      </trkpt>
      <trkpt lat="43.48173" lon="1.41502">
        <ele>167.580002</ele>
        <time>2013-06-15T15:36:57Z</time>
      </trkpt>
      <trkpt lat="43.48169" lon="1.41501">
        <ele>167.190002</ele>
        <time>2013-06-15T15:36:59Z</time>
      </trkpt>
      <trkpt lat="43.48164" lon="1.41501">
        <ele>167.649994</ele>
        <time>2013-06-15T15:37:01Z</time>
      </trkpt>
      <trkpt lat="43.48156" lon="1.415">
        <ele>169.599991</ele>
        <time>2013-06-15T15:37:05Z</time>
      </trkpt>
      <trkpt lat="43.48155" lon="1.41501">
        <ele>166.800003</ele>
        <time>2013-06-15T15:37:07Z</time>
      </trkpt>
      <trkpt lat="43.48142" lon="1.41502">
        <ele>166.039993</ele>
        <time>2013-06-15T15:37:15Z</time>
      </trkpt>
      <trkpt lat="43.48138" lon="1.41505">
        <ele>163.809998</ele>
        <time>2013-06-15T15:37:17Z</time>
      </trkpt>
      <trkpt lat="43.48136" lon="1.41505">
        <ele>163.269989</ele>
        <time>2013-06-15T15:37:19Z</time>
      </trkpt>
      <trkpt lat="43.48133" lon="1.41505">
        <ele>162.440002</ele>
        <time>2013-06-15T15:37:21Z</time>
      </trkpt>
      <trkpt lat="43.48128" lon="1.41508">
        <ele>161.559998</ele>
        <time>2013-06-15T15:37:23Z</time>
      </trkpt>
      <trkpt lat="43.48123" lon="1.41512">
        <ele>158.419998</ele>
        <time>2013-06-15T15:37:25Z</time>
      </trkpt>
      <trkpt lat="43.48107" lon="1.41523">
        <ele>151.779999</ele>
        <time>2013-06-15T15:37:35Z</time>
      </trkpt>
      <trkpt lat="43.48097" lon="1.41527">
        <ele>149.940002</ele>
        <time>2013-06-15T15:37:41Z</time>
      </trkpt>
      <trkpt lat="43.4808" lon="1.4153">
        <ele>151.220001</ele>
        <time>2013-06-15T15:37:51Z</time>
      </trkpt>
      <trkpt lat="43.48077" lon="1.41532">
        <ele>150.669998</ele>
        <time>2013-06-15T15:37:53Z</time>
      </trkpt>
      <trkpt lat="43.48076" lon="1.41531">
        <ele>149.819992</ele>
        <time>2013-06-15T15:37:55Z</time>
      </trkpt>
      <trkpt lat="43.48076" lon="1.4153">
        <ele>148.779999</ele>
        <time>2013-06-15T15:37:57Z</time>
      </trkpt>
      <trkpt lat="43.48072" lon="1.41535">
        <ele>148.099991</ele>
        <time>2013-06-15T15:38:01Z</time>
      </trkpt>
      <trkpt lat="43.48069" lon="1.41538">
        <ele>147.23999</ele>
        <time>2013-06-15T15:38:03Z</time>
      </trkpt>
      <trkpt lat="43.48063" lon="1.41538">
        <ele>147.419998</ele>
        <time>2013-06-15T15:38:07Z</time>
      </trkpt>
      <trkpt lat="43.48054" lon="1.41546">
        <ele>148.099991</ele>
        <time>2013-06-15T15:38:09Z</time>
      </trkpt>
      <trkpt lat="43.48045" lon="1.41545">
        <ele>154.089996</ele>
        <time>2013-06-15T15:38:11Z</time>
      </trkpt>
      <trkpt lat="43.48031" lon="1.41547">
        <ele>155.149994</ele>
        <time>2013-06-15T15:38:17Z</time>
      </trkpt>
      <trkpt lat="43.48025" lon="1.41551">
        <ele>154.73999</ele>
        <time>2013-06-15T15:38:21Z</time>
      </trkpt>
      <trkpt lat="43.48021" lon="1.4155">
        <ele>159.940002</ele>
        <time>2013-06-15T15:38:23Z</time>
      </trkpt>
      <trkpt lat="43.48015" lon="1.41554">
        <ele>159.75</ele>
        <time>2013-06-15T15:38:27Z</time>
      </trkpt>
      <trkpt lat="43.48008" lon="1.41554">
        <ele>160.729996</ele>
        <time>2013-06-15T15:38:31Z</time>
      </trkpt>
      <trkpt lat="43.47999" lon="1.41557">
        <ele>163.069992</ele>
        <time>2013-06-15T15:38:35Z</time>
      </trkpt>
      <trkpt lat="43.47991" lon="1.4156">
        <ele>161.940002</ele>
        <time>2013-06-15T15:38:39Z</time>
      </trkpt>
      <trkpt lat="43.47989" lon="1.4156">
        <ele>163.080002</ele>
        <time>2013-06-15T15:38:41Z</time>
      </trkpt>
      <trkpt lat="43.47984" lon="1.4156">
        <ele>164.300003</ele>
        <time>2013-06-15T15:38:45Z</time>
      </trkpt>
      <trkpt lat="43.47981" lon="1.41559">
        <ele>169.209991</ele>
        <time>2013-06-15T15:38:47Z</time>
      </trkpt>
      <trkpt lat="43.47976" lon="1.4156">
        <ele>170.639999</ele>
        <time>2013-06-15T15:38:49Z</time>
      </trkpt>
      <trkpt lat="43.47973" lon="1.41563">
        <ele>169.429993</ele>
        <time>2013-06-15T15:38:51Z</time>
      </trkpt>
      <trkpt lat="43.47964" lon="1.41566">
        <ele>171.759995</ele>
        <time>2013-06-15T15:38:55Z</time>
      </trkpt>
      <trkpt lat="43.4795" lon="1.41572">
        <ele>180.089996</ele>
        <time>2013-06-15T15:39:01Z</time>
      </trkpt>
      <trkpt lat="43.47939" lon="1.41572">
        <ele>186.110001</ele>
        <time>2013-06-15T15:39:07Z</time>
      </trkpt>
      <trkpt lat="43.47932" lon="1.41576">
        <ele>182.289993</ele>
        <time>2013-06-15T15:39:13Z</time>
      </trkpt>
      <trkpt lat="43.47928" lon="1.41577">
        <ele>183.289993</ele>
        <time>2013-06-15T15:39:15Z</time>
      </trkpt>
      <trkpt lat="43.47927" lon="1.41578">
        <ele>179.37999</ele>
        <time>2013-06-15T15:39:17Z</time>
      </trkpt>
      <trkpt lat="43.47925" lon="1.41579">
        <ele>177.470001</ele>
        <time>2013-06-15T15:39:19Z</time>
      </trkpt>
      <trkpt lat="43.47923" lon="1.41582">
        <ele>172.589996</ele>
        <time>2013-06-15T15:39:21Z</time>
      </trkpt>
      <trkpt lat="43.47912" lon="1.41589">
        <ele>170.37999</ele>
        <time>2013-06-15T15:39:28Z</time>
      </trkpt>
      <trkpt lat="43.47908" lon="1.41593">
        <ele>169.550003</ele>
        <time>2013-06-15T15:39:30Z</time>
      </trkpt>
      <trkpt lat="43.47902" lon="1.41593">
        <ele>170.229996</ele>
        <time>2013-06-15T15:39:34Z</time>
      </trkpt>
      <trkpt lat="43.47899" lon="1.41596">
        <ele>170.069992</ele>
        <time>2013-06-15T15:39:36Z</time>
      </trkpt>
      <trkpt lat="43.4789" lon="1.41602">
        <ele>174.099991</ele>
        <time>2013-06-15T15:39:40Z</time>
      </trkpt>
      <trkpt lat="43.47885" lon="1.41606">
        <ele>174.759995</ele>
        <time>2013-06-15T15:39:44Z</time>
      </trkpt>
      <trkpt lat="43.47872" lon="1.4161">
        <ele>179.589996</ele>
        <time>2013-06-15T15:39:52Z</time>
      </trkpt>
      <trkpt lat="43.47866" lon="1.41611">
        <ele>180.800003</ele>
        <time>2013-06-15T15:39:58Z</time>
      </trkpt>
      <trkpt lat="43.47858" lon="1.41616">
        <ele>183.449997</ele>
        <time>2013-06-15T15:40:02Z</time>
      </trkpt>
      <trkpt lat="43.47855" lon="1.4162">
        <ele>184.179993</ele>
        <time>2013-06-15T15:40:04Z</time>
      </trkpt>
      <trkpt lat="43.47849" lon="1.41624">
        <ele>187.610001</ele>
        <time>2013-06-15T15:40:08Z</time>
      </trkpt>
      <trkpt lat="43.47841" lon="1.41631">
        <ele>191.849991</ele>
        <time>2013-06-15T15:40:12Z</time>
      </trkpt>
      <trkpt lat="43.47837" lon="1.41633">
        <ele>194.259995</ele>
        <time>2013-06-15T15:40:14Z</time>
      </trkpt>
      <trkpt lat="43.47833" lon="1.41637">
        <ele>193.860001</ele>
        <time>2013-06-15T15:40:16Z</time>
      </trkpt>
      <trkpt lat="43.47827" lon="1.41639">
        <ele>196.069992</ele>
        <time>2013-06-15T15:40:20Z</time>
      </trkpt>
      <trkpt lat="43.47821" lon="1.4164">
        <ele>196.199997</ele>
        <time>2013-06-15T15:40:24Z</time>
      </trkpt>
      <trkpt lat="43.47818" lon="1.41643">
        <ele>186.059998</ele>
        <time>2013-06-15T15:40:28Z</time>
      </trkpt>
      <trkpt lat="43.47817" lon="1.41641">
        <ele>181.959991</ele>
        <time>2013-06-15T15:40:36Z</time>
      </trkpt>
      <trkpt lat="43.4782" lon="1.41634">
        <ele>160.279999</ele>
        <time>2013-06-15T15:40:38Z</time>
      </trkpt>
      <trkpt lat="43.47824" lon="1.41632">
        <ele>152.919998</ele>
        <time>2013-06-15T15:40:40Z</time>
      </trkpt>
      <trkpt lat="43.47826" lon="1.41629">
        <ele>149.979996</ele>
        <time>2013-06-15T15:40:42Z</time>
      </trkpt>
      <trkpt lat="43.47831" lon="1.41627">
        <ele>143.5</ele>
        <time>2013-06-15T15:40:44Z</time>
      </trkpt>
      <trkpt lat="43.47835" lon="1.41621">
        <ele>143.050003</ele>
        <time>2013-06-15T15:40:48Z</time>
      </trkpt>
      <trkpt lat="43.47837" lon="1.41617">
        <ele>142.529999</ele>
        <time>2013-06-15T15:40:50Z</time>
      </trkpt>
      <trkpt lat="43.47839" lon="1.41614">
        <ele>141.479996</ele>
        <time>2013-06-15T15:40:52Z</time>
      </trkpt>
      <trkpt lat="43.47847" lon="1.41611">
        <ele>139.889999</ele>
        <time>2013-06-15T15:40:56Z</time>
      </trkpt>
      <trkpt lat="43.47847" lon="1.41607">
        <ele>141.330002</ele>
        <time>2013-06-15T15:40:58Z</time>
      </trkpt>
      <trkpt lat="43.4785" lon="1.41599">
        <ele>142.679993</ele>
        <time>2013-06-15T15:41:02Z</time>
      </trkpt>
      <trkpt lat="43.47851" lon="1.41596">
        <ele>144.039993</ele>
        <time>2013-06-15T15:41:04Z</time>
      </trkpt>
      <trkpt lat="43.47852" lon="1.41593">
        <ele>145.639999</ele>
        <time>2013-06-15T15:41:06Z</time>
      </trkpt>
      <trkpt lat="43.47857" lon="1.41587">
        <ele>148.279999</ele>
        <time>2013-06-15T15:41:10Z</time>
      </trkpt>
      <trkpt lat="43.47861" lon="1.41577">
        <ele>147.139999</ele>
        <time>2013-06-15T15:41:16Z</time>
      </trkpt>
      <trkpt lat="43.47862" lon="1.41571">
        <ele>147.979996</ele>
        <time>2013-06-15T15:41:20Z</time>
      </trkpt>
      <trkpt lat="43.47864" lon="1.41568">
        <ele>146.959991</ele>
        <time>2013-06-15T15:41:22Z</time>
      </trkpt>
      <trkpt lat="43.47865" lon="1.41564">
        <ele>146.690002</ele>
        <time>2013-06-15T15:41:24Z</time>
      </trkpt>
      <trkpt lat="43.47868" lon="1.41561">
        <ele>147.259995</ele>
        <time>2013-06-15T15:41:26Z</time>
      </trkpt>
      <trkpt lat="43.4787" lon="1.4156">
        <ele>147.089996</ele>
        <time>2013-06-15T15:41:27Z</time>
      </trkpt>
      <trkpt lat="43.4787" lon="1.41555">
        <ele>146.369995</ele>
        <time>2013-06-15T15:41:29Z</time>
      </trkpt>
      <trkpt lat="43.47872" lon="1.41549">
        <ele>151.819992</ele>
        <time>2013-06-15T15:41:31Z</time>
      </trkpt>
      <trkpt lat="43.47879" lon="1.41543">
        <ele>156.339996</ele>
        <time>2013-06-15T15:41:35Z</time>
      </trkpt>
      <trkpt lat="43.47881" lon="1.41539">
        <ele>158.369995</ele>
        <time>2013-06-15T15:41:37Z</time>
      </trkpt>
      <trkpt lat="43.47884" lon="1.41536">
        <ele>159.279999</ele>
        <time>2013-06-15T15:41:39Z</time>
      </trkpt>
      <trkpt lat="43.47892" lon="1.4153">
        <ele>160.009995</ele>
        <time>2013-06-15T15:41:43Z</time>
      </trkpt>
      <trkpt lat="43.47897" lon="1.41523">
        <ele>160.889999</ele>
        <time>2013-06-15T15:41:47Z</time>
      </trkpt>
      <trkpt lat="43.479" lon="1.41522">
        <ele>160.699997</ele>
        <time>2013-06-15T15:41:49Z</time>
      </trkpt>
      <trkpt lat="43.47904" lon="1.41519">
        <ele>160.110001</ele>
        <time>2013-06-15T15:41:51Z</time>
      </trkpt>
      <trkpt lat="43.47905" lon="1.41516">
        <ele>157.5</ele>
        <time>2013-06-15T15:41:53Z</time>
      </trkpt>
      <trkpt lat="43.4791" lon="1.4151">
        <ele>157.759995</ele>
        <time>2013-06-15T15:41:57Z</time>
      </trkpt>
      <trkpt lat="43.47913" lon="1.41503">
        <ele>159.580002</ele>
        <time>2013-06-15T15:42:01Z</time>
      </trkpt>
      <trkpt lat="43.47926" lon="1.41489">
        <ele>159.809998</ele>
        <time>2013-06-15T15:42:09Z</time>
      </trkpt>
      <trkpt lat="43.47935" lon="1.41481">
        <ele>158.910004</ele>
        <time>2013-06-15T15:42:17Z</time>
      </trkpt>
      <trkpt lat="43.47944" lon="1.41467">
        <ele>161.619995</ele>
        <time>2013-06-15T15:42:23Z</time>
      </trkpt>
      <trkpt lat="43.47957" lon="1.41457">
        <ele>161.87999</ele>
        <time>2013-06-15T15:42:29Z</time>
      </trkpt>
      <trkpt lat="43.47962" lon="1.4145">
        <ele>161.199997</ele>
        <time>2013-06-15T15:42:33Z</time>
      </trkpt>
      <trkpt lat="43.47963" lon="1.41446">
        <ele>161.190002</ele>
        <time>2013-06-15T15:42:35Z</time>
      </trkpt>
      <trkpt lat="43.47961" lon="1.41443">
        <ele>161.199997</ele>
        <time>2013-06-15T15:42:37Z</time>
      </trkpt>
      <trkpt lat="43.47961" lon="1.41441">
        <ele>160.789993</ele>
        <time>2013-06-15T15:42:39Z</time>
      </trkpt>
      <trkpt lat="43.47963" lon="1.41438">
        <ele>160.919998</ele>
        <time>2013-06-15T15:42:41Z</time>
      </trkpt>
      <trkpt lat="43.47966" lon="1.41433">
        <ele>159.259995</ele>
        <time>2013-06-15T15:42:43Z</time>
      </trkpt>
      <trkpt lat="43.47968" lon="1.41429">
        <ele>159.699997</ele>
        <time>2013-06-15T15:42:45Z</time>
      </trkpt>
      <trkpt lat="43.47969" lon="1.41427">
        <ele>159.87999</ele>
        <time>2013-06-15T15:42:47Z</time>
      </trkpt>
      <trkpt lat="43.47985" lon="1.41413">
        <ele>162.269989</ele>
        <time>2013-06-15T15:42:57Z</time>
      </trkpt>
      <trkpt lat="43.48002" lon="1.41391">
        <ele>161.360001</ele>
        <time>2013-06-15T15:43:06Z</time>
      </trkpt>
      <trkpt lat="43.48005" lon="1.41387">
        <ele>161.209991</ele>
        <time>2013-06-15T15:43:08Z</time>
      </trkpt>
      <trkpt lat="43.48009" lon="1.41385">
        <ele>161.559998</ele>
        <time>2013-06-15T15:43:10Z</time>
      </trkpt>
      <trkpt lat="43.48013" lon="1.41378">
        <ele>159.769989</ele>
        <time>2013-06-15T15:43:14Z</time>
      </trkpt>
      <trkpt lat="43.48019" lon="1.41365">
        <ele>157.860001</ele>
        <time>2013-06-15T15:43:22Z</time>
      </trkpt>
      <trkpt lat="43.48024" lon="1.41359">
        <ele>157.259995</ele>
        <time>2013-06-15T15:43:25Z</time>
      </trkpt>
      <trkpt lat="43.48027" lon="1.41354">
        <ele>154.179993</ele>
        <time>2013-06-15T15:43:27Z</time>
      </trkpt>
      <trkpt lat="43.48036" lon="1.41348">
        <ele>156.87999</ele>
        <time>2013-06-15T15:43:31Z</time>
      </trkpt>
      <trkpt lat="43.48043" lon="1.41338">
        <ele>156.319992</ele>
        <time>2013-06-15T15:43:37Z</time>
      </trkpt>
      <trkpt lat="43.48046" lon="1.4133">
        <ele>154.789993</ele>
        <time>2013-06-15T15:43:41Z</time>
      </trkpt>
      <trkpt lat="43.48045" lon="1.41325">
        <ele>156.269989</ele>
        <time>2013-06-15T15:43:43Z</time>
      </trkpt>
      <trkpt lat="43.48048" lon="1.4132">
        <ele>156.779999</ele>
        <time>2013-06-15T15:43:45Z</time>
      </trkpt>
      <trkpt lat="43.48051" lon="1.41316">
        <ele>157.160004</ele>
        <time>2013-06-15T15:43:47Z</time>
      </trkpt>
      <trkpt lat="43.48061" lon="1.41309">
        <ele>158.610001</ele>
        <time>2013-06-15T15:43:53Z</time>
      </trkpt>
      <trkpt lat="43.48065" lon="1.41302">
        <ele>158.809998</ele>
        <time>2013-06-15T15:43:57Z</time>
      </trkpt>
      <trkpt lat="43.48067" lon="1.41298">
        <ele>158.949997</ele>
        <time>2013-06-15T15:43:59Z</time>
      </trkpt>
      <trkpt lat="43.48069" lon="1.41293">
        <ele>159.970001</ele>
        <time>2013-06-15T15:44:01Z</time>
      </trkpt>
      <trkpt lat="43.48079" lon="1.4128">
        <ele>156.979996</ele>
        <time>2013-06-15T15:44:09Z</time>
      </trkpt>
      <trkpt lat="43.48081" lon="1.41277">
        <ele>156.649994</ele>
        <time>2013-06-15T15:44:11Z</time>
      </trkpt>
      <trkpt lat="43.48084" lon="1.41274">
        <ele>157.729996</ele>
        <time>2013-06-15T15:44:13Z</time>
      </trkpt>
      <trkpt lat="43.48088" lon="1.41272">
        <ele>158.050003</ele>
        <time>2013-06-15T15:44:15Z</time>
      </trkpt>
      <trkpt lat="43.48093" lon="1.41266">
        <ele>157.519989</ele>
        <time>2013-06-15T15:44:19Z</time>
      </trkpt>
      <trkpt lat="43.48097" lon="1.41264">
        <ele>156.929993</ele>
        <time>2013-06-15T15:44:21Z</time>
      </trkpt>
      <trkpt lat="43.481" lon="1.41261">
        <ele>157.25</ele>
        <time>2013-06-15T15:44:23Z</time>
      </trkpt>
      <trkpt lat="43.48103" lon="1.41254">
        <ele>159.419998</ele>
        <time>2013-06-15T15:44:27Z</time>
      </trkpt>
      <trkpt lat="43.48108" lon="1.4125">
        <ele>161.830002</ele>
        <time>2013-06-15T15:44:29Z</time>
      </trkpt>
      <trkpt lat="43.48109" lon="1.41244">
        <ele>162.330002</ele>
        <time>2013-06-15T15:44:31Z</time>
      </trkpt>
      <trkpt lat="43.48113" lon="1.41242">
        <ele>164.709991</ele>
        <time>2013-06-15T15:44:33Z</time>
      </trkpt>
      <trkpt lat="43.48115" lon="1.41239">
        <ele>163.769989</ele>
        <time>2013-06-15T15:44:35Z</time>
      </trkpt>
      <trkpt lat="43.48116" lon="1.41235">
        <ele>161.860001</ele>
        <time>2013-06-15T15:44:37Z</time>
      </trkpt>
      <trkpt lat="43.48124" lon="1.41225">
        <ele>160.550003</ele>
        <time>2013-06-15T15:44:43Z</time>
      </trkpt>
      <trkpt lat="43.48127" lon="1.41221">
        <ele>160.539993</ele>
        <time>2013-06-15T15:44:45Z</time>
      </trkpt>
      <trkpt lat="43.4813" lon="1.41217">
        <ele>158.830002</ele>
        <time>2013-06-15T15:44:47Z</time>
      </trkpt>
      <trkpt lat="43.48133" lon="1.41209">
        <ele>155.259995</ele>
        <time>2013-06-15T15:44:51Z</time>
      </trkpt>
      <trkpt lat="43.48135" lon="1.41205">
        <ele>155.199997</ele>
        <time>2013-06-15T15:44:53Z</time>
      </trkpt>
      <trkpt lat="43.48138" lon="1.41195">
        <ele>153.059998</ele>
        <time>2013-06-15T15:44:57Z</time>
      </trkpt>
      <trkpt lat="43.48147" lon="1.41185">
        <ele>154.559998</ele>
        <time>2013-06-15T15:45:03Z</time>
      </trkpt>
      <trkpt lat="43.48151" lon="1.41182">
        <ele>155.019989</ele>
        <time>2013-06-15T15:45:05Z</time>
      </trkpt>
      <trkpt lat="43.48158" lon="1.41175">
        <ele>155.23999</ele>
        <time>2013-06-15T15:45:09Z</time>
      </trkpt>
      <trkpt lat="43.48159" lon="1.41172">
        <ele>155.149994</ele>
        <time>2013-06-15T15:45:11Z</time>
      </trkpt>
      <trkpt lat="43.48161" lon="1.41169">
        <ele>155.889999</ele>
        <time>2013-06-15T15:45:13Z</time>
      </trkpt>
      <trkpt lat="43.48167" lon="1.41165">
        <ele>155.139999</ele>
        <time>2013-06-15T15:45:17Z</time>
      </trkpt>
      <trkpt lat="43.48174" lon="1.4115">
        <ele>154.229996</ele>
        <time>2013-06-15T15:45:23Z</time>
      </trkpt>
      <trkpt lat="43.48178" lon="1.41148">
        <ele>157.429993</ele>
        <time>2013-06-15T15:45:24Z</time>
      </trkpt>
      <trkpt lat="43.48185" lon="1.41147">
        <ele>163.269989</ele>
        <time>2013-06-15T15:45:26Z</time>
      </trkpt>
      <trkpt lat="43.48186" lon="1.41139">
        <ele>162.479996</ele>
        <time>2013-06-15T15:45:28Z</time>
      </trkpt>
      <trkpt lat="43.48184" lon="1.41137">
        <ele>160.910004</ele>
        <time>2013-06-15T15:45:30Z</time>
      </trkpt>
      <trkpt lat="43.48184" lon="1.41133">
        <ele>159.769989</ele>
        <time>2013-06-15T15:45:32Z</time>
      </trkpt>
      <trkpt lat="43.48189" lon="1.41127">
        <ele>158.940002</ele>
        <time>2013-06-15T15:45:36Z</time>
      </trkpt>
      <trkpt lat="43.48192" lon="1.41122">
        <ele>159.029999</ele>
        <time>2013-06-15T15:45:44Z</time>
      </trkpt>
      <trkpt lat="43.48192" lon="1.41111">
        <ele>155.589996</ele>
        <time>2013-06-15T15:45:46Z</time>
      </trkpt>
      <trkpt lat="43.48194" lon="1.41108">
        <ele>156.199997</ele>
        <time>2013-06-15T15:45:48Z</time>
      </trkpt>
      <trkpt lat="43.48196" lon="1.41104">
        <ele>154.419998</ele>
        <time>2013-06-15T15:45:50Z</time>
      </trkpt>
      <trkpt lat="43.48214" lon="1.41075">
        <ele>161.220001</ele>
        <time>2013-06-15T15:46:06Z</time>
      </trkpt>
      <trkpt lat="43.48214" lon="1.41071">
        <ele>160.269989</ele>
        <time>2013-06-15T15:46:08Z</time>
      </trkpt>
      <trkpt lat="43.48213" lon="1.41066">
        <ele>158.699997</ele>
        <time>2013-06-15T15:46:10Z</time>
      </trkpt>
      <trkpt lat="43.48211" lon="1.41063">
        <ele>157.12999</ele>
        <time>2013-06-15T15:46:12Z</time>
      </trkpt>
      <trkpt lat="43.4821" lon="1.4106">
        <ele>156.649994</ele>
        <time>2013-06-15T15:46:13Z</time>
      </trkpt>
      <trkpt lat="43.48211" lon="1.41056">
        <ele>156.470001</ele>
        <time>2013-06-15T15:46:16Z</time>
      </trkpt>
      <trkpt lat="43.48213" lon="1.41051">
        <ele>155.779999</ele>
        <time>2013-06-15T15:46:18Z</time>
      </trkpt>
      <trkpt lat="43.48216" lon="1.41047">
        <ele>153.610001</ele>
        <time>2013-06-15T15:46:20Z</time>
      </trkpt>
      <trkpt lat="43.48217" lon="1.41044">
        <ele>152.289993</ele>
        <time>2013-06-15T15:46:22Z</time>
      </trkpt>
      <trkpt lat="43.48235" lon="1.40999">
        <ele>153.319992</ele>
        <time>2013-06-15T15:46:44Z</time>
      </trkpt>
      <trkpt lat="43.48237" lon="1.40995">
        <ele>154.25</ele>
        <time>2013-06-15T15:46:46Z</time>
      </trkpt>
      <trkpt lat="43.48239" lon="1.40991">
        <ele>155.300003</ele>
        <time>2013-06-15T15:46:48Z</time>
      </trkpt>
      <trkpt lat="43.4824" lon="1.40988">
        <ele>154.37999</ele>
        <time>2013-06-15T15:46:50Z</time>
      </trkpt>
      <trkpt lat="43.48239" lon="1.40983">
        <ele>154.050003</ele>
        <time>2013-06-15T15:46:52Z</time>
      </trkpt>
      <trkpt lat="43.48256" lon="1.40953">
        <ele>159.289993</ele>
        <time>2013-06-15T15:47:11Z</time>
      </trkpt>
      <trkpt lat="43.48255" lon="1.40949">
        <ele>161.429993</ele>
        <time>2013-06-15T15:47:13Z</time>
      </trkpt>
      <trkpt lat="43.48266" lon="1.40935">
        <ele>158.319992</ele>
        <time>2013-06-15T15:47:21Z</time>
      </trkpt>
      <trkpt lat="43.4827" lon="1.40926">
        <ele>155.580002</ele>
        <time>2013-06-15T15:47:25Z</time>
      </trkpt>
      <trkpt lat="43.48277" lon="1.40919">
        <ele>152.660004</ele>
        <time>2013-06-15T15:47:29Z</time>
      </trkpt>
      <trkpt lat="43.48279" lon="1.40916">
        <ele>152.599991</ele>
        <time>2013-06-15T15:47:31Z</time>
      </trkpt>
      <trkpt lat="43.4828" lon="1.40913">
        <ele>152.419998</ele>
        <time>2013-06-15T15:47:33Z</time>
      </trkpt>
      <trkpt lat="43.48279" lon="1.4091">
        <ele>152.959991</ele>
        <time>2013-06-15T15:47:35Z</time>
      </trkpt>
      <trkpt lat="43.48279" lon="1.40906">
        <ele>153.149994</ele>
        <time>2013-06-15T15:47:37Z</time>
      </trkpt>
      <trkpt lat="43.48282" lon="1.40891">
        <ele>152.569992</ele>
        <time>2013-06-15T15:47:43Z</time>
      </trkpt>
      <trkpt lat="43.48282" lon="1.40889">
        <ele>153.959991</ele>
        <time>2013-06-15T15:47:45Z</time>
      </trkpt>
      <trkpt lat="43.48292" lon="1.40875">
        <ele>151.559998</ele>
        <time>2013-06-15T15:47:53Z</time>
      </trkpt>
      <trkpt lat="43.48295" lon="1.40869">
        <ele>152</ele>
        <time>2013-06-15T15:48:04Z</time>
      </trkpt>
      <trkpt lat="43.48299" lon="1.40851">
        <ele>156.339996</ele>
        <time>2013-06-15T15:48:06Z</time>
      </trkpt>
      <trkpt lat="43.48304" lon="1.40844">
        <ele>156.25</ele>
        <time>2013-06-15T15:48:10Z</time>
      </trkpt>
      <trkpt lat="43.48308" lon="1.4084">
        <ele>159.830002</ele>
        <time>2013-06-15T15:48:12Z</time>
      </trkpt>
      <trkpt lat="43.48311" lon="1.40832">
        <ele>159.940002</ele>
        <time>2013-06-15T15:48:16Z</time>
      </trkpt>
      <trkpt lat="43.48312" lon="1.40828">
        <ele>157.709991</ele>
        <time>2013-06-15T15:48:18Z</time>
      </trkpt>
      <trkpt lat="43.48313" lon="1.40825">
        <ele>156.569992</ele>
        <time>2013-06-15T15:48:20Z</time>
      </trkpt>
      <trkpt lat="43.48322" lon="1.40819">
        <ele>156.550003</ele>
        <time>2013-06-15T15:48:25Z</time>
      </trkpt>
      <trkpt lat="43.48327" lon="1.40817">
        <ele>155.089996</ele>
        <time>2013-06-15T15:48:27Z</time>
      </trkpt>
      <trkpt lat="43.48332" lon="1.40818">
        <ele>156.669998</ele>
        <time>2013-06-15T15:48:31Z</time>
      </trkpt>
      <trkpt lat="43.48335" lon="1.40815">
        <ele>156.889999</ele>
        <time>2013-06-15T15:48:33Z</time>
      </trkpt>
      <trkpt lat="43.48337" lon="1.40814">
        <ele>159.559998</ele>
        <time>2013-06-15T15:48:35Z</time>
      </trkpt>
      <trkpt lat="43.48345" lon="1.40797">
        <ele>156.559998</ele>
        <time>2013-06-15T15:48:45Z</time>
      </trkpt>
      <trkpt lat="43.48344" lon="1.40791">
        <ele>157.160004</ele>
        <time>2013-06-15T15:48:49Z</time>
      </trkpt>
      <trkpt lat="43.48346" lon="1.40778">
        <ele>155.660004</ele>
        <time>2013-06-15T15:48:55Z</time>
      </trkpt>
      <trkpt lat="43.48351" lon="1.40771">
        <ele>155.849991</ele>
        <time>2013-06-15T15:48:59Z</time>
      </trkpt>
      <trkpt lat="43.48354" lon="1.40768">
        <ele>156.139999</ele>
        <time>2013-06-15T15:49:01Z</time>
      </trkpt>
      <trkpt lat="43.48355" lon="1.40765">
        <ele>156.449997</ele>
        <time>2013-06-15T15:49:07Z</time>
      </trkpt>
      <trkpt lat="43.4836" lon="1.40756">
        <ele>152.449997</ele>
        <time>2013-06-15T15:49:09Z</time>
      </trkpt>
      <trkpt lat="43.48365" lon="1.40745">
        <ele>151.449997</ele>
        <time>2013-06-15T15:49:15Z</time>
      </trkpt>
      <trkpt lat="43.4837" lon="1.4074">
        <ele>150.569992</ele>
        <time>2013-06-15T15:49:19Z</time>
      </trkpt>
      <trkpt lat="43.48373" lon="1.40735">
        <ele>149.830002</ele>
        <time>2013-06-15T15:49:21Z</time>
      </trkpt>
      <trkpt lat="43.48376" lon="1.40728">
        <ele>149.699997</ele>
        <time>2013-06-15T15:49:35Z</time>
      </trkpt>
      <trkpt lat="43.48386" lon="1.40712">
        <ele>151.160004</ele>
        <time>2013-06-15T15:49:37Z</time>
      </trkpt>
      <trkpt lat="43.48389" lon="1.40709">
        <ele>152.110001</ele>
        <time>2013-06-15T15:49:39Z</time>
      </trkpt>
      <trkpt lat="43.48392" lon="1.40705">
        <ele>153.209991</ele>
        <time>2013-06-15T15:49:41Z</time>
      </trkpt>
      <trkpt lat="43.48396" lon="1.40703">
        <ele>153.819992</ele>
        <time>2013-06-15T15:49:43Z</time>
      </trkpt>
      <trkpt lat="43.48399" lon="1.40702">
        <ele>154.369995</ele>
        <time>2013-06-15T15:49:45Z</time>
      </trkpt>
      <trkpt lat="43.48401" lon="1.407">
        <ele>154.289993</ele>
        <time>2013-06-15T15:49:47Z</time>
      </trkpt>
      <trkpt lat="43.48403" lon="1.407">
        <ele>154.509995</ele>
        <time>2013-06-15T15:49:48Z</time>
      </trkpt>
      <trkpt lat="43.48402" lon="1.40699">
        <ele>154.110001</ele>
        <time>2013-06-15T15:49:50Z</time>
      </trkpt>
      <trkpt lat="43.48404" lon="1.40695">
        <ele>153.929993</ele>
        <time>2013-06-15T15:49:52Z</time>
      </trkpt>
      <trkpt lat="43.48406" lon="1.40689">
        <ele>152.800003</ele>
        <time>2013-06-15T15:49:54Z</time>
      </trkpt>
      <trkpt lat="43.48407" lon="1.40687">
        <ele>153.099991</ele>
        <time>2013-06-15T15:49:56Z</time>
      </trkpt>
      <trkpt lat="43.48409" lon="1.40684">
        <ele>153.729996</ele>
        <time>2013-06-15T15:50:04Z</time>
      </trkpt>
      <trkpt lat="43.4842" lon="1.40669">
        <ele>151.949997</ele>
        <time>2013-06-15T15:50:08Z</time>
      </trkpt>
      <trkpt lat="43.48423" lon="1.40668">
        <ele>151.550003</ele>
        <time>2013-06-15T15:50:10Z</time>
      </trkpt>
      <trkpt lat="43.48427" lon="1.40664">
        <ele>151.019989</ele>
        <time>2013-06-15T15:50:12Z</time>
      </trkpt>
      <trkpt lat="43.48428" lon="1.4066">
        <ele>150.779999</ele>
        <time>2013-06-15T15:50:14Z</time>
      </trkpt>
      <trkpt lat="43.4843" lon="1.40657">
        <ele>151.410004</ele>
        <time>2013-06-15T15:50:16Z</time>
      </trkpt>
      <trkpt lat="43.48437" lon="1.40653">
        <ele>152.449997</ele>
        <time>2013-06-15T15:50:20Z</time>
      </trkpt>
      <trkpt lat="43.4844" lon="1.40649">
        <ele>152.139999</ele>
        <time>2013-06-15T15:50:22Z</time>
      </trkpt>
      <trkpt lat="43.48443" lon="1.40648">
        <ele>152.569992</ele>
        <time>2013-06-15T15:50:24Z</time>
      </trkpt>
      <trkpt lat="43.48447" lon="1.4065">
        <ele>152.029999</ele>
        <time>2013-06-15T15:50:28Z</time>
      </trkpt>
      <trkpt lat="43.4845" lon="1.40648">
        <ele>153.37999</ele>
        <time>2013-06-15T15:50:30Z</time>
      </trkpt>
      <trkpt lat="43.48452" lon="1.40643">
        <ele>152.080002</ele>
        <time>2013-06-15T15:50:32Z</time>
      </trkpt>
      <trkpt lat="43.48454" lon="1.4064">
        <ele>153.470001</ele>
        <time>2013-06-15T15:50:34Z</time>
      </trkpt>
      <trkpt lat="43.48455" lon="1.40638">
        <ele>155.220001</ele>
        <time>2013-06-15T15:50:36Z</time>
      </trkpt>
      <trkpt lat="43.48456" lon="1.40634">
        <ele>154.860001</ele>
        <time>2013-06-15T15:50:38Z</time>
      </trkpt>
      <trkpt lat="43.48466" lon="1.40617">
        <ele>160.089996</ele>
        <time>2013-06-15T15:50:58Z</time>
      </trkpt>
      <trkpt lat="43.48476" lon="1.40613">
        <ele>161.190002</ele>
        <time>2013-06-15T15:51:00Z</time>
      </trkpt>
      <trkpt lat="43.4848" lon="1.40611">
        <ele>160.319992</ele>
        <time>2013-06-15T15:51:02Z</time>
      </trkpt>
      <trkpt lat="43.48481" lon="1.40608">
        <ele>159.98999</ele>
        <time>2013-06-15T15:51:04Z</time>
      </trkpt>
      <trkpt lat="43.48485" lon="1.40604">
        <ele>159.369995</ele>
        <time>2013-06-15T15:51:08Z</time>
      </trkpt>
      <trkpt lat="43.48489" lon="1.40602">
        <ele>158.569992</ele>
        <time>2013-06-15T15:51:12Z</time>
      </trkpt>
      <trkpt lat="43.48495" lon="1.40597">
        <ele>157.589996</ele>
        <time>2013-06-15T15:51:18Z</time>
      </trkpt>
      <trkpt lat="43.48498" lon="1.40595">
        <ele>157.229996</ele>
        <time>2013-06-15T15:51:20Z</time>
      </trkpt>
      <trkpt lat="43.48502" lon="1.40595">
        <ele>156.5</ele>
        <time>2013-06-15T15:51:22Z</time>
      </trkpt>
      <trkpt lat="43.48507" lon="1.4059">
        <ele>154.410004</ele>
        <time>2013-06-15T15:51:26Z</time>
      </trkpt>
      <trkpt lat="43.48511" lon="1.40588">
        <ele>153.360001</ele>
        <time>2013-06-15T15:51:28Z</time>
      </trkpt>
      <trkpt lat="43.48525" lon="1.4059">
        <ele>157.419998</ele>
        <time>2013-06-15T15:51:32Z</time>
      </trkpt>
      <trkpt lat="43.48532" lon="1.40592">
        <ele>160.519989</ele>
        <time>2013-06-15T15:51:34Z</time>
      </trkpt>
      <trkpt lat="43.48541" lon="1.40591">
        <ele>161.789993</ele>
        <time>2013-06-15T15:51:38Z</time>
      </trkpt>
      <trkpt lat="43.48544" lon="1.40593">
        <ele>162.220001</ele>
        <time>2013-06-15T15:51:40Z</time>
      </trkpt>
      <trkpt lat="43.4855" lon="1.40593">
        <ele>162.660004</ele>
        <time>2013-06-15T15:51:44Z</time>
      </trkpt>
      <trkpt lat="43.48554" lon="1.40592">
        <ele>163.339996</ele>
        <time>2013-06-15T15:51:48Z</time>
      </trkpt>
      <trkpt lat="43.48556" lon="1.40592">
        <ele>163.759995</ele>
        <time>2013-06-15T15:51:49Z</time>
      </trkpt>
      <trkpt lat="43.48557" lon="1.40591">
        <ele>160.349991</ele>
        <time>2013-06-15T15:51:51Z</time>
      </trkpt>
      <trkpt lat="43.48558" lon="1.40593">
        <ele>155.190002</ele>
        <time>2013-06-15T15:51:53Z</time>
      </trkpt>
      <trkpt lat="43.48565" lon="1.40597">
        <ele>154.660004</ele>
        <time>2013-06-15T15:51:57Z</time>
      </trkpt>
      <trkpt lat="43.4857" lon="1.40604">
        <ele>158.459991</ele>
        <time>2013-06-15T15:52:07Z</time>
      </trkpt>
      <trkpt lat="43.48576" lon="1.40607">
        <ele>156.569992</ele>
        <time>2013-06-15T15:52:09Z</time>
      </trkpt>
      <trkpt lat="43.48581" lon="1.40608">
        <ele>156.550003</ele>
        <time>2013-06-15T15:52:11Z</time>
      </trkpt>
      <trkpt lat="43.48586" lon="1.40607">
        <ele>155.319992</ele>
        <time>2013-06-15T15:52:13Z</time>
      </trkpt>
      <trkpt lat="43.48602" lon="1.40614">
        <ele>151.709991</ele>
        <time>2013-06-15T15:52:25Z</time>
      </trkpt>
      <trkpt lat="43.48603" lon="1.40618">
        <ele>151.23999</ele>
        <time>2013-06-15T15:52:27Z</time>
      </trkpt>
      <trkpt lat="43.4862" lon="1.40634">
        <ele>154.410004</ele>
        <time>2013-06-15T15:52:33Z</time>
      </trkpt>
      <trkpt lat="43.48624" lon="1.40633">
        <ele>153.860001</ele>
        <time>2013-06-15T15:52:35Z</time>
      </trkpt>
      <trkpt lat="43.48627" lon="1.40629">
        <ele>152.559998</ele>
        <time>2013-06-15T15:52:37Z</time>
      </trkpt>
      <trkpt lat="43.48636" lon="1.4063">
        <ele>153.12999</ele>
        <time>2013-06-15T15:52:43Z</time>
      </trkpt>
      <trkpt lat="43.48644" lon="1.4064">
        <ele>153.269989</ele>
        <time>2013-06-15T15:52:49Z</time>
      </trkpt>
      <trkpt lat="43.48648" lon="1.40641">
        <ele>155.119995</ele>
        <time>2013-06-15T15:52:51Z</time>
      </trkpt>
      <trkpt lat="43.48648" lon="1.40644">
        <ele>153.330002</ele>
        <time>2013-06-15T15:52:55Z</time>
      </trkpt>
      <trkpt lat="43.48654" lon="1.40653">
        <ele>153.300003</ele>
        <time>2013-06-15T15:53:03Z</time>
      </trkpt>
      <trkpt lat="43.48654" lon="1.40657">
        <ele>152.860001</ele>
        <time>2013-06-15T15:53:05Z</time>
      </trkpt>
      <trkpt lat="43.48655" lon="1.40663">
        <ele>154.679993</ele>
        <time>2013-06-15T15:53:07Z</time>
      </trkpt>
      <trkpt lat="43.48651" lon="1.40667">
        <ele>154.910004</ele>
        <time>2013-06-15T15:53:09Z</time>
      </trkpt>
      <trkpt lat="43.4865" lon="1.40671">
        <ele>155.769989</ele>
        <time>2013-06-15T15:53:57Z</time>
      </trkpt>
      <trkpt lat="43.4866" lon="1.40715">
        <ele>160.759995</ele>
        <time>2013-06-15T15:53:59Z</time>
      </trkpt>
      <trkpt lat="43.48663" lon="1.40718">
        <ele>162.360001</ele>
        <time>2013-06-15T15:54:01Z</time>
      </trkpt>
      <trkpt lat="43.48666" lon="1.40721">
        <ele>163.399994</ele>
        <time>2013-06-15T15:54:03Z</time>
      </trkpt>
      <trkpt lat="43.48667" lon="1.40725">
        <ele>164.729996</ele>
        <time>2013-06-15T15:54:05Z</time>
      </trkpt>
      <trkpt lat="43.48666" lon="1.4073">
        <ele>162.819992</ele>
        <time>2013-06-15T15:54:09Z</time>
      </trkpt>
      <trkpt lat="43.48668" lon="1.40731">
        <ele>162.839996</ele>
        <time>2013-06-15T15:54:11Z</time>
      </trkpt>
      <trkpt lat="43.48674" lon="1.40746">
        <ele>160.970001</ele>
        <time>2013-06-15T15:54:18Z</time>
      </trkpt>
      <trkpt lat="43.48677" lon="1.40748">
        <ele>162.279999</ele>
        <time>2013-06-15T15:54:20Z</time>
      </trkpt>
      <trkpt lat="43.48689" lon="1.40768">
        <ele>157.98999</ele>
        <time>2013-06-15T15:54:36Z</time>
      </trkpt>
      <trkpt lat="43.4869" lon="1.40772">
        <ele>160.080002</ele>
        <time>2013-06-15T15:54:40Z</time>
      </trkpt>
      <trkpt lat="43.48702" lon="1.4079">
        <ele>160.220001</ele>
        <time>2013-06-15T15:54:54Z</time>
      </trkpt>
      <trkpt lat="43.48704" lon="1.40797">
        <ele>160.470001</ele>
        <time>2013-06-15T15:54:56Z</time>
      </trkpt>
      <trkpt lat="43.48705" lon="1.40801">
        <ele>160.940002</ele>
        <time>2013-06-15T15:54:58Z</time>
      </trkpt>
      <trkpt lat="43.4871" lon="1.4082">
        <ele>165.619995</ele>
        <time>2013-06-15T15:55:06Z</time>
      </trkpt>
      <trkpt lat="43.48712" lon="1.40825">
        <ele>164.720001</ele>
        <time>2013-06-15T15:55:08Z</time>
      </trkpt>
      <trkpt lat="43.48713" lon="1.40829">
        <ele>163.889999</ele>
        <time>2013-06-15T15:55:10Z</time>
      </trkpt>
      <trkpt lat="43.48712" lon="1.40831">
        <ele>162.099991</ele>
        <time>2013-06-15T15:55:14Z</time>
      </trkpt>
      <trkpt lat="43.48716" lon="1.40836">
        <ele>160.970001</ele>
        <time>2013-06-15T15:55:16Z</time>
      </trkpt>
      <trkpt lat="43.48723" lon="1.40838">
        <ele>159.589996</ele>
        <time>2013-06-15T15:55:19Z</time>
      </trkpt>
      <trkpt lat="43.48732" lon="1.40849">
        <ele>157.619995</ele>
        <time>2013-06-15T15:55:24Z</time>
      </trkpt>
      <trkpt lat="43.48731" lon="1.40851">
        <ele>156.449997</ele>
        <time>2013-06-15T15:55:26Z</time>
      </trkpt>
      <trkpt lat="43.4874" lon="1.40909">
        <ele>161.699997</ele>
        <time>2013-06-15T15:56:04Z</time>
      </trkpt>
      <trkpt lat="43.48743" lon="1.40911">
        <ele>160.349991</ele>
        <time>2013-06-15T15:56:06Z</time>
      </trkpt>
      <trkpt lat="43.48749" lon="1.40919">
        <ele>158.87999</ele>
        <time>2013-06-15T15:56:10Z</time>
      </trkpt>
      <trkpt lat="43.4875" lon="1.40925">
        <ele>160.339996</ele>
        <time>2013-06-15T15:56:12Z</time>
      </trkpt>
      <trkpt lat="43.4875" lon="1.40928">
        <ele>160.179993</ele>
        <time>2013-06-15T15:56:20Z</time>
      </trkpt>
      <trkpt lat="43.48754" lon="1.40952">
        <ele>161.169998</ele>
        <time>2013-06-15T15:56:24Z</time>
      </trkpt>
      <trkpt lat="43.48761" lon="1.40955">
        <ele>161.410004</ele>
        <time>2013-06-15T15:56:28Z</time>
      </trkpt>
      <trkpt lat="43.48772" lon="1.41006">
        <ele>162.309998</ele>
        <time>2013-06-15T15:56:52Z</time>
      </trkpt>
      <trkpt lat="43.48776" lon="1.4101">
        <ele>160.769989</ele>
        <time>2013-06-15T15:56:56Z</time>
      </trkpt>
      <trkpt lat="43.48774" lon="1.41014">
        <ele>159.809998</ele>
        <time>2013-06-15T15:56:58Z</time>
      </trkpt>
      <trkpt lat="43.48778" lon="1.41015">
        <ele>157.5</ele>
        <time>2013-06-15T15:57:01Z</time>
      </trkpt>
      <trkpt lat="43.48784" lon="1.41028">
        <ele>157.410004</ele>
        <time>2013-06-15T15:57:07Z</time>
      </trkpt>
      <trkpt lat="43.48791" lon="1.41046">
        <ele>153.059998</ele>
        <time>2013-06-15T15:57:17Z</time>
      </trkpt>
      <trkpt lat="43.4879" lon="1.41052">
        <ele>150.839996</ele>
        <time>2013-06-15T15:57:21Z</time>
      </trkpt>
      <trkpt lat="43.48802" lon="1.41068">
        <ele>153.050003</ele>
        <time>2013-06-15T15:57:31Z</time>
      </trkpt>
      <trkpt lat="43.48811" lon="1.41081">
        <ele>155.509995</ele>
        <time>2013-06-15T15:57:39Z</time>
      </trkpt>
      <trkpt lat="43.48814" lon="1.41091">
        <ele>157.899994</ele>
        <time>2013-06-15T15:57:45Z</time>
      </trkpt>
      <trkpt lat="43.48821" lon="1.41103">
        <ele>159.419998</ele>
        <time>2013-06-15T15:57:49Z</time>
      </trkpt>
      <trkpt lat="43.48821" lon="1.41108">
        <ele>159.289993</ele>
        <time>2013-06-15T15:57:51Z</time>
      </trkpt>
      <trkpt lat="43.48828" lon="1.4112">
        <ele>161.429993</ele>
        <time>2013-06-15T15:57:57Z</time>
      </trkpt>
      <trkpt lat="43.48832" lon="1.41125">
        <ele>160.800003</ele>
        <time>2013-06-15T15:58:01Z</time>
      </trkpt>
      <trkpt lat="43.48832" lon="1.41131">
        <ele>158.959991</ele>
        <time>2013-06-15T15:58:03Z</time>
      </trkpt>
      <trkpt lat="43.48833" lon="1.41135">
        <ele>159.059998</ele>
        <time>2013-06-15T15:58:05Z</time>
      </trkpt>
      <trkpt lat="43.48835" lon="1.41139">
        <ele>158.87999</ele>
        <time>2013-06-15T15:58:07Z</time>
      </trkpt>
      <trkpt lat="43.48836" lon="1.41145">
        <ele>159.539993</ele>
        <time>2013-06-15T15:58:09Z</time>
      </trkpt>
      <trkpt lat="43.48838" lon="1.41149">
        <ele>159.679993</ele>
        <time>2013-06-15T15:58:11Z</time>
      </trkpt>
      <trkpt lat="43.48845" lon="1.41162">
        <ele>161.699997</ele>
        <time>2013-06-15T15:58:17Z</time>
      </trkpt>
      <trkpt lat="43.48846" lon="1.4117">
        <ele>161.12999</ele>
        <time>2013-06-15T15:58:21Z</time>
      </trkpt>
      <trkpt lat="43.48848" lon="1.41174">
        <ele>161.690002</ele>
        <time>2013-06-15T15:58:23Z</time>
      </trkpt>
      <trkpt lat="43.4885" lon="1.41178">
        <ele>161.729996</ele>
        <time>2013-06-15T15:58:25Z</time>
      </trkpt>
      <trkpt lat="43.48851" lon="1.41183">
        <ele>164.459991</ele>
        <time>2013-06-15T15:58:27Z</time>
      </trkpt>
      <trkpt lat="43.48853" lon="1.41186">
        <ele>165.399994</ele>
        <time>2013-06-15T15:58:29Z</time>
      </trkpt>
      <trkpt lat="43.48854" lon="1.41198">
        <ele>166.029999</ele>
        <time>2013-06-15T15:58:35Z</time>
      </trkpt>
      <trkpt lat="43.48858" lon="1.41199">
        <ele>164.720001</ele>
        <time>2013-06-15T15:58:37Z</time>
      </trkpt>
      <trkpt lat="43.48866" lon="1.41234">
        <ele>152.979996</ele>
        <time>2013-06-15T15:58:57Z</time>
      </trkpt>
      <trkpt lat="43.4887" lon="1.41244">
        <ele>155.050003</ele>
        <time>2013-06-15T15:58:59Z</time>
      </trkpt>
      <trkpt lat="43.48871" lon="1.41252">
        <ele>154.800003</ele>
        <time>2013-06-15T15:59:01Z</time>
      </trkpt>
      <trkpt lat="43.48874" lon="1.41255">
        <ele>155.529999</ele>
        <time>2013-06-15T15:59:05Z</time>
      </trkpt>
      <trkpt lat="43.48879" lon="1.41262">
        <ele>158.369995</ele>
        <time>2013-06-15T15:59:07Z</time>
      </trkpt>
      <trkpt lat="43.48882" lon="1.41263">
        <ele>157.839996</ele>
        <time>2013-06-15T15:59:09Z</time>
      </trkpt>
      <trkpt lat="43.48883" lon="1.41262">
        <ele>157.550003</ele>
        <time>2013-06-15T15:59:11Z</time>
      </trkpt>
      <trkpt lat="43.48883" lon="1.41263">
        <ele>157.179993</ele>
        <time>2013-06-15T15:59:13Z</time>
      </trkpt>
      <trkpt lat="43.48882" lon="1.41268">
        <ele>157.389999</ele>
        <time>2013-06-15T15:59:15Z</time>
      </trkpt>
      <trkpt lat="43.48882" lon="1.41271">
        <ele>157.970001</ele>
        <time>2013-06-15T15:59:17Z</time>
      </trkpt>
      <trkpt lat="43.48902" lon="1.41289">
        <ele>170.289993</ele>
        <time>2013-06-15T15:59:31Z</time>
      </trkpt>
      <trkpt lat="43.4891" lon="1.41294">
        <ele>170.399994</ele>
        <time>2013-06-15T15:59:35Z</time>
      </trkpt>
      <trkpt lat="43.48916" lon="1.41312">
        <ele>174.369995</ele>
        <time>2013-06-15T15:59:49Z</time>
      </trkpt>
      <trkpt lat="43.48919" lon="1.41317">
        <ele>172.369995</ele>
        <time>2013-06-15T15:59:53Z</time>
      </trkpt>
      <trkpt lat="43.48931" lon="1.41334">
        <ele>153.509995</ele>
        <time>2013-06-15T16:00:21Z</time>
      </trkpt>
      <trkpt lat="43.48935" lon="1.41334">
        <ele>150.87999</ele>
        <time>2013-06-15T16:00:23Z</time>
      </trkpt>
      <trkpt lat="43.48968" lon="1.41337">
        <ele>136.190002</ele>
        <time>2013-06-15T16:00:37Z</time>
      </trkpt>
      <trkpt lat="43.48972" lon="1.41336">
        <ele>132.459991</ele>
        <time>2013-06-15T16:00:39Z</time>
      </trkpt>
      <trkpt lat="43.49004" lon="1.41334">
        <ele>115.729996</ele>
        <time>2013-06-15T16:00:53Z</time>
      </trkpt>
      <trkpt lat="43.49007" lon="1.41332">
        <ele>117.239998</ele>
        <time>2013-06-15T16:00:55Z</time>
      </trkpt>
      <trkpt lat="43.49014" lon="1.41333">
        <ele>117.979996</ele>
        <time>2013-06-15T16:00:57Z</time>
      </trkpt>
      <trkpt lat="43.49017" lon="1.41335">
        <ele>117.149994</ele>
        <time>2013-06-15T16:00:59Z</time>
      </trkpt>
      <trkpt lat="43.49017" lon="1.41337">
        <ele>119.229996</ele>
        <time>2013-06-15T16:01:01Z</time>
      </trkpt>
      <trkpt lat="43.49061" lon="1.41346">
        <ele>125.159996</ele>
        <time>2013-06-15T16:01:13Z</time>
      </trkpt>
      <trkpt lat="43.49069" lon="1.41348">
        <ele>127.639999</ele>
        <time>2013-06-15T16:01:15Z</time>
      </trkpt>
      <trkpt lat="43.49069" lon="1.41351">
        <ele>131.029999</ele>
        <time>2013-06-15T16:01:17Z</time>
      </trkpt>
      <trkpt lat="43.49077" lon="1.41354">
        <ele>130.949997</ele>
        <time>2013-06-15T16:01:21Z</time>
      </trkpt>
      <trkpt lat="43.49081" lon="1.41354">
        <ele>131.62999</ele>
        <time>2013-06-15T16:01:23Z</time>
      </trkpt>
      <trkpt lat="43.49085" lon="1.4135">
        <ele>132.360001</ele>
        <time>2013-06-15T16:01:25Z</time>
      </trkpt>
      <trkpt lat="43.49089" lon="1.41341">
        <ele>134.849991</ele>
        <time>2013-06-15T16:01:31Z</time>
      </trkpt>
      <trkpt lat="43.49095" lon="1.41334">
        <ele>135.160004</ele>
        <time>2013-06-15T16:01:37Z</time>
      </trkpt>
      <trkpt lat="43.49097" lon="1.41333">
        <ele>137.259995</ele>
        <time>2013-06-15T16:01:39Z</time>
      </trkpt>
      <trkpt lat="43.49099" lon="1.41331">
        <ele>140.550003</ele>
        <time>2013-06-15T16:01:59Z</time>
      </trkpt>
      <trkpt lat="43.49131" lon="1.41311">
        <ele>137.569992</ele>
        <time>2013-06-15T16:02:03Z</time>
      </trkpt>
      <trkpt lat="43.49144" lon="1.41308">
        <ele>140.029999</ele>
        <time>2013-06-15T16:02:11Z</time>
      </trkpt>
      <trkpt lat="43.49147" lon="1.41308">
        <ele>139.229996</ele>
        <time>2013-06-15T16:02:13Z</time>
      </trkpt>
      <trkpt lat="43.49156" lon="1.41305">
        <ele>140.199997</ele>
        <time>2013-06-15T16:02:17Z</time>
      </trkpt>
      <trkpt lat="43.49164" lon="1.413">
        <ele>137.099991</ele>
        <time>2013-06-15T16:02:23Z</time>
      </trkpt>
      <trkpt lat="43.49175" lon="1.41298">
        <ele>134.209991</ele>
        <time>2013-06-15T16:02:27Z</time>
      </trkpt>
      <trkpt lat="43.49179" lon="1.41296">
        <ele>134.720001</ele>
        <time>2013-06-15T16:02:29Z</time>
      </trkpt>
      <trkpt lat="43.49184" lon="1.41292">
        <ele>135.330002</ele>
        <time>2013-06-15T16:02:33Z</time>
      </trkpt>
      <trkpt lat="43.49186" lon="1.41285">
        <ele>136.179993</ele>
        <time>2013-06-15T16:02:37Z</time>
      </trkpt>
      <trkpt lat="43.49185" lon="1.41281">
        <ele>137.220001</ele>
        <time>2013-06-15T16:02:39Z</time>
      </trkpt>
      <trkpt lat="43.49186" lon="1.41274">
        <ele>137.149994</ele>
        <time>2013-06-15T16:02:43Z</time>
      </trkpt>
      <trkpt lat="43.49185" lon="1.4127">
        <ele>137.069992</ele>
        <time>2013-06-15T16:02:47Z</time>
      </trkpt>
      <trkpt lat="43.49209" lon="1.41254">
        <ele>136.279999</ele>
        <time>2013-06-15T16:03:01Z</time>
      </trkpt>
      <trkpt lat="43.49213" lon="1.41253">
        <ele>135.050003</ele>
        <time>2013-06-15T16:03:19Z</time>
      </trkpt>
      <trkpt lat="43.49236" lon="1.41226">
        <ele>138.539993</ele>
        <time>2013-06-15T16:03:27Z</time>
      </trkpt>
      <trkpt lat="43.49239" lon="1.41222">
        <ele>138.779999</ele>
        <time>2013-06-15T16:03:29Z</time>
      </trkpt>
      <trkpt lat="43.49246" lon="1.41218">
        <ele>138.229996</ele>
        <time>2013-06-15T16:03:33Z</time>
      </trkpt>
      <trkpt lat="43.49246" lon="1.41218">
        <ele>140.229996</ele>
        <time>2013-06-15T16:03:35Z</time>
      </trkpt>
      <trkpt lat="43.49292" lon="1.41203">
        <ele>141.709991</ele>
        <time>2013-06-15T16:04:05Z</time>
      </trkpt>
      <trkpt lat="43.49296" lon="1.41199">
        <ele>144.119995</ele>
        <time>2013-06-15T16:04:07Z</time>
      </trkpt>
      <trkpt lat="43.49301" lon="1.412">
        <ele>141.020004</ele>
        <time>2013-06-15T16:04:09Z</time>
      </trkpt>
      <trkpt lat="43.49307" lon="1.41199">
        <ele>137.300003</ele>
        <time>2013-06-15T16:04:11Z</time>
      </trkpt>
      <trkpt lat="43.49311" lon="1.412">
        <ele>134.369995</ele>
        <time>2013-06-15T16:04:15Z</time>
      </trkpt>
      <trkpt lat="43.49316" lon="1.41199">
        <ele>136.139999</ele>
        <time>2013-06-15T16:04:17Z</time>
      </trkpt>
      <trkpt lat="43.49318" lon="1.41197">
        <ele>138.179993</ele>
        <time>2013-06-15T16:04:19Z</time>
      </trkpt>
      <trkpt lat="43.49369" lon="1.41182">
        <ele>141.330002</ele>
        <time>2013-06-15T16:04:51Z</time>
      </trkpt>
      <trkpt lat="43.49378" lon="1.41177">
        <ele>142.410004</ele>
        <time>2013-06-15T16:04:57Z</time>
      </trkpt>
      <trkpt lat="43.49384" lon="1.41175">
        <ele>141.660004</ele>
        <time>2013-06-15T16:05:01Z</time>
      </trkpt>
      <trkpt lat="43.49422" lon="1.41157">
        <ele>141.309998</ele>
        <time>2013-06-15T16:05:27Z</time>
      </trkpt>
      <trkpt lat="43.49424" lon="1.41154">
        <ele>142.37999</ele>
        <time>2013-06-15T16:05:29Z</time>
      </trkpt>
      <trkpt lat="43.49466" lon="1.41131">
        <ele>143.289993</ele>
        <time>2013-06-15T16:05:56Z</time>
      </trkpt>
      <trkpt lat="43.49502" lon="1.41116">
        <ele>141.709991</ele>
        <time>2013-06-15T16:06:18Z</time>
      </trkpt>
      <trkpt lat="43.49505" lon="1.41113">
        <ele>143.919998</ele>
        <time>2013-06-15T16:06:20Z</time>
      </trkpt>
      <trkpt lat="43.49511" lon="1.4111">
        <ele>143.599991</ele>
        <time>2013-06-15T16:06:24Z</time>
      </trkpt>
      <trkpt lat="43.49511" lon="1.41109">
        <ele>143.789993</ele>
        <time>2013-06-15T16:06:26Z</time>
      </trkpt>
      <trkpt lat="43.49581" lon="1.41059">
        <ele>142.539993</ele>
        <time>2013-06-15T16:07:20Z</time>
      </trkpt>
      <trkpt lat="43.49601" lon="1.41039">
        <ele>147.110001</ele>
        <time>2013-06-15T16:07:24Z</time>
      </trkpt>
      <trkpt lat="43.49647" lon="1.41026">
        <ele>144.309998</ele>
        <time>2013-06-15T16:07:50Z</time>
      </trkpt>
      <trkpt lat="43.49651" lon="1.41024">
        <ele>144.199997</ele>
        <time>2013-06-15T16:07:52Z</time>
      </trkpt>
      <trkpt lat="43.49651" lon="1.41024">
        <ele>144.509995</ele>
        <time>2013-06-15T16:08:08Z</time>
      </trkpt>
      <trkpt lat="43.49677" lon="1.41006">
        <ele>152.059998</ele>
        <time>2013-06-15T16:08:10Z</time>
      </trkpt>
      <trkpt lat="43.49682" lon="1.41005">
        <ele>150.910004</ele>
        <time>2013-06-15T16:08:12Z</time>
      </trkpt>
      <trkpt lat="43.49743" lon="1.40986">
        <ele>141.589996</ele>
        <time>2013-06-15T16:08:44Z</time>
      </trkpt>
      <trkpt lat="43.49746" lon="1.40985">
        <ele>142.160004</ele>
        <time>2013-06-15T16:08:46Z</time>
      </trkpt>
      <trkpt lat="43.49757" lon="1.40982">
        <ele>141.059998</ele>
        <time>2013-06-15T16:08:50Z</time>
      </trkpt>
      <trkpt lat="43.49769" lon="1.40977">
        <ele>140.830002</ele>
        <time>2013-06-15T16:08:56Z</time>
      </trkpt>
      <trkpt lat="43.49794" lon="1.40977">
        <ele>156.449997</ele>
        <time>2013-06-15T16:09:22Z</time>
      </trkpt>
      <trkpt lat="43.49797" lon="1.40978">
        <ele>157.269989</ele>
        <time>2013-06-15T16:09:24Z</time>
      </trkpt>
      <trkpt lat="43.49806" lon="1.40978">
        <ele>156.959991</ele>
        <time>2013-06-15T16:09:28Z</time>
      </trkpt>
      <trkpt lat="43.4981" lon="1.40974">
        <ele>158.649994</ele>
        <time>2013-06-15T16:09:30Z</time>
      </trkpt>
      <trkpt lat="43.49812" lon="1.40971">
        <ele>157.819992</ele>
        <time>2013-06-15T16:09:32Z</time>
      </trkpt>
      <trkpt lat="43.49806" lon="1.40963">
        <ele>158.789993</ele>
        <time>2013-06-15T16:09:36Z</time>
      </trkpt>
      <trkpt lat="43.49802" lon="1.4096">
        <ele>158.110001</ele>
        <time>2013-06-15T16:09:38Z</time>
      </trkpt>
      <trkpt lat="43.49798" lon="1.40955">
        <ele>158.589996</ele>
        <time>2013-06-15T16:09:40Z</time>
      </trkpt>
      <trkpt lat="43.49791" lon="1.40942">
        <ele>161.089996</ele>
        <time>2013-06-15T16:09:44Z</time>
      </trkpt>
      <trkpt lat="43.49786" lon="1.40938">
        <ele>163.009995</ele>
        <time>2013-06-15T16:09:46Z</time>
      </trkpt>
      <trkpt lat="43.49786" lon="1.40936">
        <ele>161.699997</ele>
        <time>2013-06-15T16:09:48Z</time>
      </trkpt>
      <trkpt lat="43.49793" lon="1.40929">
        <ele>161.229996</ele>
        <time>2013-06-15T16:09:52Z</time>
      </trkpt>
      <trkpt lat="43.49793" lon="1.40926">
        <ele>162.649994</ele>
        <time>2013-06-15T16:09:54Z</time>
      </trkpt>
      <trkpt lat="43.49798" lon="1.40915">
        <ele>161.039993</ele>
        <time>2013-06-15T16:10:00Z</time>
      </trkpt>
      <trkpt lat="43.49801" lon="1.40912">
        <ele>160.319992</ele>
        <time>2013-06-15T16:10:02Z</time>
      </trkpt>
      <trkpt lat="43.49806" lon="1.40909">
        <ele>159.580002</ele>
        <time>2013-06-15T16:10:04Z</time>
      </trkpt>
      <trkpt lat="43.49803" lon="1.40905">
        <ele>165.559998</ele>
        <time>2013-06-15T16:10:06Z</time>
      </trkpt>
      <trkpt lat="43.49803" lon="1.40898">
        <ele>167.160004</ele>
        <time>2013-06-15T16:10:10Z</time>
      </trkpt>
      <trkpt lat="43.49805" lon="1.40896">
        <ele>166.089996</ele>
        <time>2013-06-15T16:10:12Z</time>
      </trkpt>
      <trkpt lat="43.49807" lon="1.40892">
        <ele>165.220001</ele>
        <time>2013-06-15T16:10:14Z</time>
      </trkpt>
      <trkpt lat="43.49806" lon="1.40888">
        <ele>167.110001</ele>
        <time>2013-06-15T16:10:16Z</time>
      </trkpt>
      <trkpt lat="43.49814" lon="1.40879">
        <ele>166.559998</ele>
        <time>2013-06-15T16:10:24Z</time>
      </trkpt>
      <trkpt lat="43.49818" lon="1.40876">
        <ele>167.110001</ele>
        <time>2013-06-15T16:10:26Z</time>
      </trkpt>
      <trkpt lat="43.49821" lon="1.40873">
        <ele>167.830002</ele>
        <time>2013-06-15T16:10:28Z</time>
      </trkpt>
      <trkpt lat="43.49828" lon="1.40868">
        <ele>169.87999</ele>
        <time>2013-06-15T16:10:34Z</time>
      </trkpt>
      <trkpt lat="43.49831" lon="1.40867">
        <ele>169.509995</ele>
        <time>2013-06-15T16:10:36Z</time>
      </trkpt>
      <trkpt lat="43.49834" lon="1.40864">
        <ele>170.289993</ele>
        <time>2013-06-15T16:10:38Z</time>
      </trkpt>
      <trkpt lat="43.49844" lon="1.40858">
        <ele>166.669998</ele>
        <time>2013-06-15T16:10:42Z</time>
      </trkpt>
      <trkpt lat="43.49857" lon="1.40849">
        <ele>164.800003</ele>
        <time>2013-06-15T16:10:48Z</time>
      </trkpt>
      <trkpt lat="43.4987" lon="1.40836">
        <ele>162.800003</ele>
        <time>2013-06-15T16:10:56Z</time>
      </trkpt>
      <trkpt lat="43.49877" lon="1.40832">
        <ele>162.369995</ele>
        <time>2013-06-15T16:11:00Z</time>
      </trkpt>
      <trkpt lat="43.4988" lon="1.40829">
        <ele>161.190002</ele>
        <time>2013-06-15T16:11:02Z</time>
      </trkpt>
      <trkpt lat="43.49886" lon="1.40825">
        <ele>160.160004</ele>
        <time>2013-06-15T16:11:06Z</time>
      </trkpt>
      <trkpt lat="43.49894" lon="1.40816">
        <ele>158.729996</ele>
        <time>2013-06-15T16:11:12Z</time>
      </trkpt>
      <trkpt lat="43.49899" lon="1.40814">
        <ele>158.139999</ele>
        <time>2013-06-15T16:11:14Z</time>
      </trkpt>
      <trkpt lat="43.49904" lon="1.40809">
        <ele>156.979996</ele>
        <time>2013-06-15T16:11:18Z</time>
      </trkpt>
      <trkpt lat="43.4991" lon="1.40807">
        <ele>158.199997</ele>
        <time>2013-06-15T16:11:22Z</time>
      </trkpt>
      <trkpt lat="43.49913" lon="1.40801">
        <ele>157.919998</ele>
        <time>2013-06-15T16:11:26Z</time>
      </trkpt>
      <trkpt lat="43.49918" lon="1.40796">
        <ele>157.860001</ele>
        <time>2013-06-15T16:11:30Z</time>
      </trkpt>
      <trkpt lat="43.49924" lon="1.40788">
        <ele>157.940002</ele>
        <time>2013-06-15T16:11:34Z</time>
      </trkpt>
      <trkpt lat="43.49929" lon="1.40792">
        <ele>159.300003</ele>
        <time>2013-06-15T16:11:36Z</time>
      </trkpt>
      <trkpt lat="43.49932" lon="1.4079">
        <ele>154.550003</ele>
        <time>2013-06-15T16:11:38Z</time>
      </trkpt>
      <trkpt lat="43.49937" lon="1.40782">
        <ele>151.87999</ele>
        <time>2013-06-15T16:11:40Z</time>
      </trkpt>
      <trkpt lat="43.49947" lon="1.40773">
        <ele>155.720001</ele>
        <time>2013-06-15T16:12:16Z</time>
      </trkpt>
      <trkpt lat="43.49942" lon="1.40789">
        <ele>165.25</ele>
        <time>2013-06-15T16:12:18Z</time>
      </trkpt>
      <trkpt lat="43.49938" lon="1.4078">
        <ele>162.330002</ele>
        <time>2013-06-15T16:12:26Z</time>
      </trkpt>
      <trkpt lat="43.49934" lon="1.40775">
        <ele>162.229996</ele>
        <time>2013-06-15T16:12:28Z</time>
      </trkpt>
      <trkpt lat="43.49932" lon="1.40771">
        <ele>161.539993</ele>
        <time>2013-06-15T16:12:30Z</time>
      </trkpt>
      <trkpt lat="43.4993" lon="1.40769">
        <ele>161.029999</ele>
        <time>2013-06-15T16:12:32Z</time>
      </trkpt>
      <trkpt lat="43.49928" lon="1.40767">
        <ele>159.899994</ele>
        <time>2013-06-15T16:12:34Z</time>
      </trkpt>
      <trkpt lat="43.49926" lon="1.40764">
        <ele>160.119995</ele>
        <time>2013-06-15T16:12:36Z</time>
      </trkpt>
      <trkpt lat="43.49924" lon="1.40761">
        <ele>160.069992</ele>
        <time>2013-06-15T16:12:38Z</time>
      </trkpt>
      <trkpt lat="43.49919" lon="1.40754">
        <ele>161.62999</ele>
        <time>2013-06-15T16:12:42Z</time>
      </trkpt>
      <trkpt lat="43.49913" lon="1.40747">
        <ele>159.940002</ele>
        <time>2013-06-15T16:12:46Z</time>
      </trkpt>
      <trkpt lat="43.4991" lon="1.40739">
        <ele>159.949997</ele>
        <time>2013-06-15T16:12:48Z</time>
      </trkpt>
      <trkpt lat="43.4991" lon="1.40734">
        <ele>159.269989</ele>
        <time>2013-06-15T16:12:50Z</time>
      </trkpt>
      <trkpt lat="43.49906" lon="1.4073">
        <ele>160.849991</ele>
        <time>2013-06-15T16:12:52Z</time>
      </trkpt>
      <trkpt lat="43.49904" lon="1.40726">
        <ele>162.009995</ele>
        <time>2013-06-15T16:12:54Z</time>
      </trkpt>
      <trkpt lat="43.49903" lon="1.40722">
        <ele>161.039993</ele>
        <time>2013-06-15T16:12:56Z</time>
      </trkpt>
      <trkpt lat="43.49893" lon="1.40708">
        <ele>159.449997</ele>
        <time>2013-06-15T16:13:05Z</time>
      </trkpt>
      <trkpt lat="43.49889" lon="1.40693">
        <ele>152.929993</ele>
        <time>2013-06-15T16:13:13Z</time>
      </trkpt>
      <trkpt lat="43.49888" lon="1.40689">
        <ele>152.589996</ele>
        <time>2013-06-15T16:13:15Z</time>
      </trkpt>
      <trkpt lat="43.49885" lon="1.40687">
        <ele>152.199997</ele>
        <time>2013-06-15T16:13:17Z</time>
      </trkpt>
      <trkpt lat="43.49884" lon="1.40685">
        <ele>151.429993</ele>
        <time>2013-06-15T16:13:19Z</time>
      </trkpt>
      <trkpt lat="43.49884" lon="1.40682">
        <ele>150.87999</ele>
        <time>2013-06-15T16:13:21Z</time>
      </trkpt>
      <trkpt lat="43.49883" lon="1.4068">
        <ele>149.789993</ele>
        <time>2013-06-15T16:13:23Z</time>
      </trkpt>
      <trkpt lat="43.49881" lon="1.40674">
        <ele>149.220001</ele>
        <time>2013-06-15T16:13:26Z</time>
      </trkpt>
      <trkpt lat="43.4988" lon="1.40668">
        <ele>149.009995</ele>
        <time>2013-06-15T16:13:28Z</time>
      </trkpt>
      <trkpt lat="43.49873" lon="1.40666">
        <ele>152.789993</ele>
        <time>2013-06-15T16:13:30Z</time>
      </trkpt>
      <trkpt lat="43.4987" lon="1.40663">
        <ele>154.119995</ele>
        <time>2013-06-15T16:13:32Z</time>
      </trkpt>
      <trkpt lat="43.49861" lon="1.4065">
        <ele>156.429993</ele>
        <time>2013-06-15T16:13:42Z</time>
      </trkpt>
      <trkpt lat="43.49857" lon="1.40647">
        <ele>156.089996</ele>
        <time>2013-06-15T16:13:45Z</time>
      </trkpt>
      <trkpt lat="43.49855" lon="1.40643">
        <ele>156.37999</ele>
        <time>2013-06-15T16:13:47Z</time>
      </trkpt>
      <trkpt lat="43.49851" lon="1.40639">
        <ele>159.649994</ele>
        <time>2013-06-15T16:13:49Z</time>
      </trkpt>
      <trkpt lat="43.49848" lon="1.4063">
        <ele>161.369995</ele>
        <time>2013-06-15T16:13:53Z</time>
      </trkpt>
      <trkpt lat="43.4985" lon="1.40629">
        <ele>161.470001</ele>
        <time>2013-06-15T16:13:55Z</time>
      </trkpt>
      <trkpt lat="43.49855" lon="1.40632">
        <ele>160.619995</ele>
        <time>2013-06-15T16:13:57Z</time>
      </trkpt>
      <trkpt lat="43.49863" lon="1.40635">
        <ele>161.580002</ele>
        <time>2013-06-15T16:13:59Z</time>
      </trkpt>
      <trkpt lat="43.49882" lon="1.40634">
        <ele>159.830002</ele>
        <time>2013-06-15T16:14:09Z</time>
      </trkpt>
      <trkpt lat="43.49888" lon="1.40633">
        <ele>159.849991</ele>
        <time>2013-06-15T16:14:13Z</time>
      </trkpt>
      <trkpt lat="43.49894" lon="1.40628">
        <ele>160.73999</ele>
        <time>2013-06-15T16:14:17Z</time>
      </trkpt>
      <trkpt lat="43.49898" lon="1.40628">
        <ele>161.550003</ele>
        <time>2013-06-15T16:14:19Z</time>
      </trkpt>
      <trkpt lat="43.49904" lon="1.40622">
        <ele>161.619995</ele>
        <time>2013-06-15T16:14:23Z</time>
      </trkpt>
      <trkpt lat="43.49907" lon="1.40621">
        <ele>160.759995</ele>
        <time>2013-06-15T16:14:25Z</time>
      </trkpt>
      <trkpt lat="43.4991" lon="1.40618">
        <ele>159.709991</ele>
        <time>2013-06-15T16:14:27Z</time>
      </trkpt>
      <trkpt lat="43.49914" lon="1.40616">
        <ele>160.639999</ele>
        <time>2013-06-15T16:14:29Z</time>
      </trkpt>
      <trkpt lat="43.49917" lon="1.40614">
        <ele>160.179993</ele>
        <time>2013-06-15T16:14:31Z</time>
      </trkpt>
      <trkpt lat="43.49921" lon="1.40612">
        <ele>159.819992</ele>
        <time>2013-06-15T16:14:33Z</time>
      </trkpt>
      <trkpt lat="43.49924" lon="1.4061">
        <ele>159.419998</ele>
        <time>2013-06-15T16:14:35Z</time>
      </trkpt>
      <trkpt lat="43.49929" lon="1.40608">
        <ele>159.300003</ele>
        <time>2013-06-15T16:14:39Z</time>
      </trkpt>
      <trkpt lat="43.49935" lon="1.40604">
        <ele>158.5</ele>
        <time>2013-06-15T16:14:43Z</time>
      </trkpt>
      <trkpt lat="43.49936" lon="1.40601">
        <ele>156.429993</ele>
        <time>2013-06-15T16:14:45Z</time>
      </trkpt>
      <trkpt lat="43.49942" lon="1.40596">
        <ele>154.800003</ele>
        <time>2013-06-15T16:14:49Z</time>
      </trkpt>
      <trkpt lat="43.49947" lon="1.40589">
        <ele>152.339996</ele>
        <time>2013-06-15T16:14:53Z</time>
      </trkpt>
      <trkpt lat="43.49951" lon="1.40582">
        <ele>149.789993</ele>
        <time>2013-06-15T16:14:57Z</time>
      </trkpt>
      <trkpt lat="43.49954" lon="1.40579">
        <ele>148.12999</ele>
        <time>2013-06-15T16:14:59Z</time>
      </trkpt>
      <trkpt lat="43.49958" lon="1.40574">
        <ele>147.889999</ele>
        <time>2013-06-15T16:15:00Z</time>
      </trkpt>
      <trkpt lat="43.49962" lon="1.40579">
        <ele>153.410004</ele>
        <time>2013-06-15T16:15:02Z</time>
      </trkpt>
      <trkpt lat="43.49968" lon="1.40575">
        <ele>157</ele>
        <time>2013-06-15T16:15:04Z</time>
      </trkpt>
      <trkpt lat="43.49975" lon="1.40566">
        <ele>158.330002</ele>
        <time>2013-06-15T16:15:08Z</time>
      </trkpt>
      <trkpt lat="43.49978" lon="1.40563">
        <ele>157.839996</ele>
        <time>2013-06-15T16:15:10Z</time>
      </trkpt>
      <trkpt lat="43.49985" lon="1.40553">
        <ele>157.539993</ele>
        <time>2013-06-15T16:15:16Z</time>
      </trkpt>
      <trkpt lat="43.49987" lon="1.40549">
        <ele>157.899994</ele>
        <time>2013-06-15T16:15:18Z</time>
      </trkpt>
      <trkpt lat="43.49991" lon="1.40545">
        <ele>157.73999</ele>
        <time>2013-06-15T16:15:20Z</time>
      </trkpt>
      <trkpt lat="43.49993" lon="1.4054">
        <ele>157.660004</ele>
        <time>2013-06-15T16:15:22Z</time>
      </trkpt>
      <trkpt lat="43.49997" lon="1.40528">
        <ele>156.639999</ele>
        <time>2013-06-15T16:15:26Z</time>
      </trkpt>
      <trkpt lat="43.50006" lon="1.40514">
        <ele>155.160004</ele>
        <time>2013-06-15T16:15:32Z</time>
      </trkpt>
      <trkpt lat="43.50008" lon="1.40509">
        <ele>154.789993</ele>
        <time>2013-06-15T16:15:34Z</time>
      </trkpt>
      <trkpt lat="43.50013" lon="1.405">
        <ele>154.179993</ele>
        <time>2013-06-15T16:15:38Z</time>
      </trkpt>
      <trkpt lat="43.50016" lon="1.40497">
        <ele>154.679993</ele>
        <time>2013-06-15T16:15:39Z</time>
      </trkpt>
      <trkpt lat="43.50022" lon="1.40499">
        <ele>158.98999</ele>
        <time>2013-06-15T16:15:43Z</time>
      </trkpt>
      <trkpt lat="43.50028" lon="1.40494">
        <ele>157.819992</ele>
        <time>2013-06-15T16:15:47Z</time>
      </trkpt>
      <trkpt lat="43.50037" lon="1.40485">
        <ele>156</ele>
        <time>2013-06-15T16:15:55Z</time>
      </trkpt>
      <trkpt lat="43.50045" lon="1.40468">
        <ele>153.949997</ele>
        <time>2013-06-15T16:16:07Z</time>
      </trkpt>
      <trkpt lat="43.50055" lon="1.40456">
        <ele>154.779999</ele>
        <time>2013-06-15T16:16:11Z</time>
      </trkpt>
      <trkpt lat="43.50062" lon="1.4045">
        <ele>156.37999</ele>
        <time>2013-06-15T16:16:15Z</time>
      </trkpt>
      <trkpt lat="43.50064" lon="1.40447">
        <ele>156.25</ele>
        <time>2013-06-15T16:16:17Z</time>
      </trkpt>
      <trkpt lat="43.50066" lon="1.40442">
        <ele>155.720001</ele>
        <time>2013-06-15T16:16:19Z</time>
      </trkpt>
      <trkpt lat="43.50069" lon="1.40437">
        <ele>156.349991</ele>
        <time>2013-06-15T16:16:21Z</time>
      </trkpt>
      <trkpt lat="43.50076" lon="1.40427">
        <ele>155.779999</ele>
        <time>2013-06-15T16:16:25Z</time>
      </trkpt>
      <trkpt lat="43.50083" lon="1.40417">
        <ele>154.869995</ele>
        <time>2013-06-15T16:16:29Z</time>
      </trkpt>
      <trkpt lat="43.50086" lon="1.40411">
        <ele>154.330002</ele>
        <time>2013-06-15T16:16:31Z</time>
      </trkpt>
      <trkpt lat="43.50088" lon="1.40403">
        <ele>153.649994</ele>
        <time>2013-06-15T16:16:35Z</time>
      </trkpt>
      <trkpt lat="43.50087" lon="1.40398">
        <ele>153.419998</ele>
        <time>2013-06-15T16:16:37Z</time>
      </trkpt>
      <trkpt lat="43.50089" lon="1.40389">
        <ele>153.349991</ele>
        <time>2013-06-15T16:16:41Z</time>
      </trkpt>
      <trkpt lat="43.5009" lon="1.4038">
        <ele>153.009995</ele>
        <time>2013-06-15T16:16:45Z</time>
      </trkpt>
      <trkpt lat="43.50092" lon="1.40375">
        <ele>152.569992</ele>
        <time>2013-06-15T16:16:47Z</time>
      </trkpt>
      <trkpt lat="43.50096" lon="1.40364">
        <ele>153.099991</ele>
        <time>2013-06-15T16:16:53Z</time>
      </trkpt>
      <trkpt lat="43.50103" lon="1.40356">
        <ele>153.569992</ele>
        <time>2013-06-15T16:16:59Z</time>
      </trkpt>
      <trkpt lat="43.50107" lon="1.4035">
        <ele>153.709991</ele>
        <time>2013-06-15T16:17:03Z</time>
      </trkpt>
      <trkpt lat="43.50111" lon="1.40338">
        <ele>153.229996</ele>
        <time>2013-06-15T16:17:05Z</time>
      </trkpt>
      <trkpt lat="43.50113" lon="1.40328">
        <ele>152.959991</ele>
        <time>2013-06-15T16:17:07Z</time>
      </trkpt>
      <trkpt lat="43.50116" lon="1.40322">
        <ele>152.569992</ele>
        <time>2013-06-15T16:17:09Z</time>
      </trkpt>
      <trkpt lat="43.50116" lon="1.40316">
        <ele>152.059998</ele>
        <time>2013-06-15T16:17:11Z</time>
      </trkpt>
      <trkpt lat="43.50116" lon="1.40314">
        <ele>152.979996</ele>
        <time>2013-06-15T16:17:13Z</time>
      </trkpt>
      <trkpt lat="43.50115" lon="1.4031">
        <ele>151.899994</ele>
        <time>2013-06-15T16:17:15Z</time>
      </trkpt>
      <trkpt lat="43.50117" lon="1.40302">
        <ele>151.610001</ele>
        <time>2013-06-15T16:17:21Z</time>
      </trkpt>
      <trkpt lat="43.50117" lon="1.40293">
        <ele>151.080002</ele>
        <time>2013-06-15T16:17:25Z</time>
      </trkpt>
      <trkpt lat="43.50129" lon="1.40265">
        <ele>154.009995</ele>
        <time>2013-06-15T16:17:35Z</time>
      </trkpt>
      <trkpt lat="43.5013" lon="1.40262">
        <ele>154.089996</ele>
        <time>2013-06-15T16:17:37Z</time>
      </trkpt>
      <trkpt lat="43.50137" lon="1.40247">
        <ele>154.940002</ele>
        <time>2013-06-15T16:17:43Z</time>
      </trkpt>
      <trkpt lat="43.50137" lon="1.40243">
        <ele>153.550003</ele>
        <time>2013-06-15T16:17:45Z</time>
      </trkpt>
      <trkpt lat="43.50137" lon="1.40238">
        <ele>152.470001</ele>
        <time>2013-06-15T16:17:47Z</time>
      </trkpt>
      <trkpt lat="43.50141" lon="1.40223">
        <ele>154.580002</ele>
        <time>2013-06-15T16:17:55Z</time>
      </trkpt>
      <trkpt lat="43.50141" lon="1.40214">
        <ele>154.559998</ele>
        <time>2013-06-15T16:17:58Z</time>
      </trkpt>
      <trkpt lat="43.50143" lon="1.40204">
        <ele>152.919998</ele>
        <time>2013-06-15T16:18:01Z</time>
      </trkpt>
      <trkpt lat="43.50148" lon="1.40194">
        <ele>153.149994</ele>
        <time>2013-06-15T16:18:09Z</time>
      </trkpt>
      <trkpt lat="43.50153" lon="1.40181">
        <ele>154.019989</ele>
        <time>2013-06-15T16:18:11Z</time>
      </trkpt>
      <trkpt lat="43.50155" lon="1.40176">
        <ele>153.970001</ele>
        <time>2013-06-15T16:18:13Z</time>
      </trkpt>
      <trkpt lat="43.50155" lon="1.40173">
        <ele>154.479996</ele>
        <time>2013-06-15T16:18:15Z</time>
      </trkpt>
      <trkpt lat="43.50157" lon="1.40168">
        <ele>154.529999</ele>
        <time>2013-06-15T16:18:17Z</time>
      </trkpt>
      <trkpt lat="43.50161" lon="1.40157">
        <ele>155.5</ele>
        <time>2013-06-15T16:18:21Z</time>
      </trkpt>
      <trkpt lat="43.50162" lon="1.40151">
        <ele>154.569992</ele>
        <time>2013-06-15T16:18:23Z</time>
      </trkpt>
      <trkpt lat="43.50164" lon="1.40142">
        <ele>153.979996</ele>
        <time>2013-06-15T16:18:27Z</time>
      </trkpt>
      <trkpt lat="43.50176" lon="1.40124">
        <ele>156.519989</ele>
        <time>2013-06-15T16:18:35Z</time>
      </trkpt>
      <trkpt lat="43.5018" lon="1.40111">
        <ele>156.419998</ele>
        <time>2013-06-15T16:18:41Z</time>
      </trkpt>
      <trkpt lat="43.5018" lon="1.40106">
        <ele>156.479996</ele>
        <time>2013-06-15T16:18:43Z</time>
      </trkpt>
      <trkpt lat="43.50182" lon="1.40098">
        <ele>155.589996</ele>
        <time>2013-06-15T16:18:47Z</time>
      </trkpt>
      <trkpt lat="43.50186" lon="1.40087">
        <ele>154.789993</ele>
        <time>2013-06-15T16:18:51Z</time>
      </trkpt>
      <trkpt lat="43.50192" lon="1.40057">
        <ele>153.98999</ele>
        <time>2013-06-15T16:19:04Z</time>
      </trkpt>
      <trkpt lat="43.50191" lon="1.40052">
        <ele>153.5</ele>
        <time>2013-06-15T16:19:06Z</time>
      </trkpt>
      <trkpt lat="43.50199" lon="1.40031">
        <ele>152.089996</ele>
        <time>2013-06-15T16:19:11Z</time>
      </trkpt>
      <trkpt lat="43.50201" lon="1.40018">
        <ele>154.569992</ele>
        <time>2013-06-15T16:19:15Z</time>
      </trkpt>
      <trkpt lat="43.50196" lon="1.40002">
        <ele>154.5</ele>
        <time>2013-06-15T16:19:23Z</time>
      </trkpt>
      <trkpt lat="43.50196" lon="1.39998">
        <ele>154.25</ele>
        <time>2013-06-15T16:19:25Z</time>
      </trkpt>
      <trkpt lat="43.50198" lon="1.39989">
        <ele>154.149994</ele>
        <time>2013-06-15T16:19:29Z</time>
      </trkpt>
      <trkpt lat="43.50197" lon="1.39986">
        <ele>153.98999</ele>
        <time>2013-06-15T16:19:31Z</time>
      </trkpt>
      <trkpt lat="43.50195" lon="1.39984">
        <ele>153.529999</ele>
        <time>2013-06-15T16:19:32Z</time>
      </trkpt>
      <trkpt lat="43.50197" lon="1.39978">
        <ele>152.229996</ele>
        <time>2013-06-15T16:19:36Z</time>
      </trkpt>
      <trkpt lat="43.50201" lon="1.39969">
        <ele>153.110001</ele>
        <time>2013-06-15T16:19:40Z</time>
      </trkpt>
      <trkpt lat="43.50204" lon="1.3996">
        <ele>151.929993</ele>
        <time>2013-06-15T16:19:44Z</time>
      </trkpt>
      <trkpt lat="43.50209" lon="1.39952">
        <ele>151.73999</ele>
        <time>2013-06-15T16:19:48Z</time>
      </trkpt>
      <trkpt lat="43.50216" lon="1.39945">
        <ele>151.949997</ele>
        <time>2013-06-15T16:19:52Z</time>
      </trkpt>
      <trkpt lat="43.50219" lon="1.39942">
        <ele>152.12999</ele>
        <time>2013-06-15T16:19:53Z</time>
      </trkpt>
      <trkpt lat="43.50224" lon="1.3994">
        <ele>152.509995</ele>
        <time>2013-06-15T16:19:57Z</time>
      </trkpt>
      <trkpt lat="43.5023" lon="1.39928">
        <ele>152.019989</ele>
        <time>2013-06-15T16:20:03Z</time>
      </trkpt>
      <trkpt lat="43.50237" lon="1.3992">
        <ele>150.369995</ele>
        <time>2013-06-15T16:20:07Z</time>
      </trkpt>
      <trkpt lat="43.50239" lon="1.3991">
        <ele>151.699997</ele>
        <time>2013-06-15T16:20:11Z</time>
      </trkpt>
      <trkpt lat="43.50241" lon="1.39907">
        <ele>152.87999</ele>
        <time>2013-06-15T16:20:13Z</time>
      </trkpt>
      <trkpt lat="43.50244" lon="1.39904">
        <ele>153.759995</ele>
        <time>2013-06-15T16:20:15Z</time>
      </trkpt>
      <trkpt lat="43.50246" lon="1.399">
        <ele>154.269989</ele>
        <time>2013-06-15T16:20:17Z</time>
      </trkpt>
      <trkpt lat="43.50246" lon="1.39897">
        <ele>155.860001</ele>
        <time>2013-06-15T16:20:19Z</time>
      </trkpt>
      <trkpt lat="43.50246" lon="1.39893">
        <ele>157.309998</ele>
        <time>2013-06-15T16:20:21Z</time>
      </trkpt>
      <trkpt lat="43.5025" lon="1.39882">
        <ele>158.479996</ele>
        <time>2013-06-15T16:20:27Z</time>
      </trkpt>
      <trkpt lat="43.50256" lon="1.39871">
        <ele>157.839996</ele>
        <time>2013-06-15T16:20:31Z</time>
      </trkpt>
      <trkpt lat="43.5026" lon="1.39861">
        <ele>157.209991</ele>
        <time>2013-06-15T16:20:35Z</time>
      </trkpt>
      <trkpt lat="43.5026" lon="1.39856">
        <ele>155.649994</ele>
        <time>2013-06-15T16:20:37Z</time>
      </trkpt>
      <trkpt lat="43.50262" lon="1.3985">
        <ele>155.37999</ele>
        <time>2013-06-15T16:20:39Z</time>
      </trkpt>
      <trkpt lat="43.50262" lon="1.39846">
        <ele>155.050003</ele>
        <time>2013-06-15T16:20:41Z</time>
      </trkpt>
      <trkpt lat="43.50261" lon="1.3984">
        <ele>154.639999</ele>
        <time>2013-06-15T16:20:44Z</time>
      </trkpt>
      <trkpt lat="43.50262" lon="1.39831">
        <ele>155.869995</ele>
        <time>2013-06-15T16:20:46Z</time>
      </trkpt>
      <trkpt lat="43.50261" lon="1.39828">
        <ele>155.519989</ele>
        <time>2013-06-15T16:20:48Z</time>
      </trkpt>
      <trkpt lat="43.50266" lon="1.39821">
        <ele>156.029999</ele>
        <time>2013-06-15T16:20:52Z</time>
      </trkpt>
      <trkpt lat="43.50269" lon="1.39817">
        <ele>156.569992</ele>
        <time>2013-06-15T16:20:54Z</time>
      </trkpt>
      <trkpt lat="43.5027" lon="1.39814">
        <ele>158.119995</ele>
        <time>2013-06-15T16:20:56Z</time>
      </trkpt>
      <trkpt lat="43.50275" lon="1.39809">
        <ele>159.839996</ele>
        <time>2013-06-15T16:21:00Z</time>
      </trkpt>
      <trkpt lat="43.50281" lon="1.39801">
        <ele>158.580002</ele>
        <time>2013-06-15T16:21:04Z</time>
      </trkpt>
      <trkpt lat="43.50283" lon="1.398">
        <ele>158.62999</ele>
        <time>2013-06-15T16:21:06Z</time>
      </trkpt>
      <trkpt lat="43.50285" lon="1.39797">
        <ele>158.119995</ele>
        <time>2013-06-15T16:21:08Z</time>
      </trkpt>
      <trkpt lat="43.50294" lon="1.39786">
        <ele>157.789993</ele>
        <time>2013-06-15T16:21:16Z</time>
      </trkpt>
      <trkpt lat="43.50295" lon="1.39777">
        <ele>157.410004</ele>
        <time>2013-06-15T16:21:21Z</time>
      </trkpt>
      <trkpt lat="43.50299" lon="1.39768">
        <ele>155.039993</ele>
        <time>2013-06-15T16:21:23Z</time>
      </trkpt>
      <trkpt lat="43.50304" lon="1.3976">
        <ele>156.12999</ele>
        <time>2013-06-15T16:21:27Z</time>
      </trkpt>
      <trkpt lat="43.50312" lon="1.39754">
        <ele>157.459991</ele>
        <time>2013-06-15T16:21:31Z</time>
      </trkpt>
      <trkpt lat="43.50317" lon="1.39748">
        <ele>158</ele>
        <time>2013-06-15T16:21:35Z</time>
      </trkpt>
      <trkpt lat="43.5033" lon="1.39738">
        <ele>157.309998</ele>
        <time>2013-06-15T16:21:41Z</time>
      </trkpt>
      <trkpt lat="43.50335" lon="1.3973">
        <ele>156</ele>
        <time>2013-06-15T16:21:45Z</time>
      </trkpt>
      <trkpt lat="43.50337" lon="1.39725">
        <ele>156.089996</ele>
        <time>2013-06-15T16:21:47Z</time>
      </trkpt>
      <trkpt lat="43.50337" lon="1.39722">
        <ele>156.62999</ele>
        <time>2013-06-15T16:21:49Z</time>
      </trkpt>
      <trkpt lat="43.50339" lon="1.39718">
        <ele>157.119995</ele>
        <time>2013-06-15T16:21:51Z</time>
      </trkpt>
      <trkpt lat="43.50349" lon="1.39706">
        <ele>156.110001</ele>
        <time>2013-06-15T16:21:57Z</time>
      </trkpt>
      <trkpt lat="43.50352" lon="1.39705">
        <ele>155.25</ele>
        <time>2013-06-15T16:21:59Z</time>
      </trkpt>
      <trkpt lat="43.50354" lon="1.39702">
        <ele>154.019989</ele>
        <time>2013-06-15T16:22:01Z</time>
      </trkpt>
      <trkpt lat="43.50364" lon="1.39685">
        <ele>154.119995</ele>
        <time>2013-06-15T16:22:09Z</time>
      </trkpt>
      <trkpt lat="43.50369" lon="1.39673">
        <ele>155.269989</ele>
        <time>2013-06-15T16:22:15Z</time>
      </trkpt>
      <trkpt lat="43.50372" lon="1.3967">
        <ele>155.259995</ele>
        <time>2013-06-15T16:22:17Z</time>
      </trkpt>
      <trkpt lat="43.50376" lon="1.39667">
        <ele>155.330002</ele>
        <time>2013-06-15T16:22:19Z</time>
      </trkpt>
      <trkpt lat="43.50379" lon="1.39665">
        <ele>154.860001</ele>
        <time>2013-06-15T16:22:21Z</time>
      </trkpt>
      <trkpt lat="43.50387" lon="1.39651">
        <ele>153.929993</ele>
        <time>2013-06-15T16:22:29Z</time>
      </trkpt>
      <trkpt lat="43.50401" lon="1.39638">
        <ele>155.330002</ele>
        <time>2013-06-15T16:22:39Z</time>
      </trkpt>
      <trkpt lat="43.50415" lon="1.39627">
        <ele>154.089996</ele>
        <time>2013-06-15T16:22:47Z</time>
      </trkpt>
      <trkpt lat="43.50419" lon="1.39625">
        <ele>154.639999</ele>
        <time>2013-06-15T16:22:49Z</time>
      </trkpt>
      <trkpt lat="43.50425" lon="1.3962">
        <ele>154.720001</ele>
        <time>2013-06-15T16:22:53Z</time>
      </trkpt>
      <trkpt lat="43.50435" lon="1.39609">
        <ele>155.330002</ele>
        <time>2013-06-15T16:23:01Z</time>
      </trkpt>
      <trkpt lat="43.5044" lon="1.39604">
        <ele>156.929993</ele>
        <time>2013-06-15T16:23:05Z</time>
      </trkpt>
      <trkpt lat="43.50442" lon="1.39602">
        <ele>158.179993</ele>
        <time>2013-06-15T16:23:07Z</time>
      </trkpt>
      <trkpt lat="43.50453" lon="1.39595">
        <ele>159.209991</ele>
        <time>2013-06-15T16:23:13Z</time>
      </trkpt>
      <trkpt lat="43.50461" lon="1.39592">
        <ele>158.440002</ele>
        <time>2013-06-15T16:23:17Z</time>
      </trkpt>
      <trkpt lat="43.50464" lon="1.3959">
        <ele>158.190002</ele>
        <time>2013-06-15T16:23:19Z</time>
      </trkpt>
      <trkpt lat="43.50466" lon="1.39587">
        <ele>157.839996</ele>
        <time>2013-06-15T16:23:21Z</time>
      </trkpt>
      <trkpt lat="43.50469" lon="1.39584">
        <ele>158.179993</ele>
        <time>2013-06-15T16:23:23Z</time>
      </trkpt>
      <trkpt lat="43.50482" lon="1.39574">
        <ele>159.309998</ele>
        <time>2013-06-15T16:23:33Z</time>
      </trkpt>
      <trkpt lat="43.5049" lon="1.39572">
        <ele>160.349991</ele>
        <time>2013-06-15T16:23:37Z</time>
      </trkpt>
      <trkpt lat="43.50493" lon="1.39573">
        <ele>161.089996</ele>
        <time>2013-06-15T16:23:39Z</time>
      </trkpt>
      <trkpt lat="43.505" lon="1.39565">
        <ele>161.98999</ele>
        <time>2013-06-15T16:23:43Z</time>
      </trkpt>
      <trkpt lat="43.50504" lon="1.39558">
        <ele>161.160004</ele>
        <time>2013-06-15T16:23:45Z</time>
      </trkpt>
      <trkpt lat="43.50506" lon="1.39552">
        <ele>160.139999</ele>
        <time>2013-06-15T16:23:47Z</time>
      </trkpt>
      <trkpt lat="43.50508" lon="1.39546">
        <ele>159.470001</ele>
        <time>2013-06-15T16:23:49Z</time>
      </trkpt>
      <trkpt lat="43.50505" lon="1.39522">
        <ele>159.720001</ele>
        <time>2013-06-15T16:23:57Z</time>
      </trkpt>
      <trkpt lat="43.50506" lon="1.39519">
        <ele>159.899994</ele>
        <time>2013-06-15T16:23:59Z</time>
      </trkpt>
      <trkpt lat="43.50502" lon="1.39516">
        <ele>165.269989</ele>
        <time>2013-06-15T16:24:01Z</time>
      </trkpt>
      <trkpt lat="43.505" lon="1.3951">
        <ele>168.550003</ele>
        <time>2013-06-15T16:24:03Z</time>
      </trkpt>
      <trkpt lat="43.50495" lon="1.39507">
        <ele>174.869995</ele>
        <time>2013-06-15T16:24:05Z</time>
      </trkpt>
      <trkpt lat="43.50493" lon="1.39502">
        <ele>177.779999</ele>
        <time>2013-06-15T16:24:07Z</time>
      </trkpt>
      <trkpt lat="43.50495" lon="1.39494">
        <ele>177.080002</ele>
        <time>2013-06-15T16:24:11Z</time>
      </trkpt>
      <trkpt lat="43.50496" lon="1.39493">
        <ele>174.979996</ele>
        <time>2013-06-15T16:24:20Z</time>
      </trkpt>
      <trkpt lat="43.50498" lon="1.39487">
        <ele>171.349991</ele>
        <time>2013-06-15T16:24:22Z</time>
      </trkpt>
    </trkseg>
  </trk>
</gpx>